[[{"header":{"parameterUnit":"m.s-1","parameterCategory":1,"la1":30.6,"la2":29.2853,"lo1":-89.7004,"lo2":-87.6739,"dy":0.0162,"dx":0.0183,"nx":112,"ny":82,"refTime":"2026-05-16T00:00:00:Z","depth":0,"parameterNumber":2,"parameterNumberName":"U-component_of_WINDS"},"data":[0.0,0.0,0.0,0.0,0.0,0.0,0.0,0.0,0.0,0.0,0.0,0.0,0.0,0.0,0.0,0.0,0.0,0.0,0.0,0.0,0.0,0.0,0.0,0.0,0.0,0.0,0.0,0.0,0.0,0.0,0.0,0.0,0.0,0.0,0.0,0.0,0.0,0.0,0.0,0.0,0.0,0.0,0.0,0.0,0.0,0.0,0.0,0.0,0.0,0.0,0.0,0.0,0.0,0.0,0.0,0.0,0.0,0.0,0.0,0.0,0.0,0.0,0.0,0.0,0.0,0.0,0.0,0.0,0.0,0.0,0.0,0.0,0.0,0.0,0.0,0.0,0.0,0.0,0.0,0.0,0.0,0.0,0.0,0.0,0.0,0.0,0.0,0.0,0.0,0.0,0.0,-2.3294,-2.5102,-2.6526,-2.7417,-2.4845,-2.2035,-1.9363,0.0,0.0,0.0,0.0,0.0,0.0,0.0,0.0,0.0,0.0,0.0,0.0,0.0,0.0,0.0,0.0,0.0,0.0,0.0,0.0,0.0,0.0,0.0,0.0,0.0,0.0,0.0,0.0,0.0,0.0,0.0,0.0,0.0,0.0,0.0,0.0,0.0,0.0,0.0,0.0,0.0,0.0,0.0,0.0,0.0,0.0,0.0,0.0,0.0,0.0,0.0,0.0,0.0,0.0,0.0,0.0,0.0,0.0,0.0,0.0,0.0,0.0,0.0,0.0,0.0,0.0,0.0,0.0,0.0,0.0,0.0,0.0,0.0,0.0,0.0,0.0,0.0,0.0,0.0,0.0,0.0,0.0,0.0,0.0,0.0,0.0,0.0,0.0,0.0,0.0,0.0,0.0,0.0,0.0,0.0,0.0,0.0,0.0,0.0,0.0,0.0,0.0,0.0,0.0,-2.1126,-2.5624,-2.6863,-2.7014,-2.6179,-2.4324,-2.2211,-1.9839,0.0,0.0,0.0,0.0,0.0,0.0,0.0,0.0,0.0,0.0,0.0,0.0,0.0,0.0,0.0,0.0,0.0,0.0,0.0,0.0,0.0,0.0,0.0,0.0,0.0,0.0,0.0,0.0,0.0,0.0,0.0,0.0,0.0,0.0,0.0,0.0,0.0,0.0,0.0,0.0,0.0,0.0,0.0,0.0,0.0,0.0,0.0,0.0,0.0,0.0,0.0,0.0,0.0,0.0,0.0,0.0,0.0,0.0,0.0,0.0,0.0,0.0,0.0,0.0,0.0,0.0,0.0,0.0,0.0,0.0,0.0,0.0,0.0,0.0,0.0,0.0,0.0,0.0,0.0,0.0,0.0,0.0,0.0,0.0,0.0,0.0,0.0,0.0,0.0,0.0,0.0,0.0,0.0,0.0,0.0,0.0,0.0,0.0,0.0,0.0,0.0,0.0,0.0,-2.084,-2.2852,-2.7255,-2.7053,-2.6363,-2.5834,-2.3883,-2.1621,-1.9108,-1.7652,0.0,0.0,0.0,0.0,0.0,0.0,0.0,0.0,0.0,0.0,0.0,0.0,0.0,0.0,0.0,0.0,0.0,0.0,0.0,0.0,0.0,0.0,0.0,0.0,0.0,0.0,0.0,0.0,0.0,0.0,0.0,0.0,0.0,0.0,0.0,0.0,0.0,0.0,0.0,0.0,0.0,0.0,0.0,0.0,0.0,0.0,0.0,0.0,0.0,0.0,0.0,0.0,0.0,0.0,0.0,0.0,0.0,0.0,0.0,0.0,0.0,0.0,0.0,0.0,0.0,0.0,0.0,0.0,0.0,0.0,0.0,0.0,0.0,0.0,0.0,0.0,0.0,0.0,0.0,0.0,0.0,0.0,0.0,0.0,0.0,0.0,0.0,0.0,0.0,0.0,0.0,0.0,0.0,0.0,0.0,0.0,0.0,0.0,0.0,0.0,0.0,0.0,-2.3407,-2.4748,-2.7784,-2.6916,-2.5991,-2.5579,-2.345,-2.1066,-1.8555,-1.6848,0.0,0.0,0.0,0.0,0.0,0.0,0.0,0.0,0.0,0.0,0.0,0.0,0.0,0.0,0.0,0.0,0.0,0.0,0.0,0.0,0.0,0.0,0.0,0.0,0.0,0.0,0.0,0.0,0.0,0.0,0.0,0.0,0.0,0.0,0.0,0.0,0.0,0.0,0.0,0.0,0.0,0.0,0.0,0.0,0.0,0.0,0.0,0.0,0.0,0.0,0.0,0.0,0.0,0.0,0.0,0.0,0.0,0.0,0.0,0.0,0.0,0.0,0.0,0.0,0.0,0.0,0.0,0.0,0.0,0.0,0.0,0.0,0.0,0.0,0.0,0.0,0.0,0.0,0.0,0.0,0.0,0.0,0.0,0.0,0.0,0.0,0.0,0.0,0.0,0.0,0.0,0.0,0.0,0.0,0.0,0.0,0.0,0.0,0.0,0.0,0.0,0.0,-2.3738,-2.5867,-2.6574,-2.7079,-2.6686,-2.5005,-2.2828,-2.0815,-1.9058,-1.599,0.0,0.0,0.0,0.0,0.0,0.0,0.0,0.0,0.0,0.0,0.0,0.0,0.0,0.0,0.0,0.0,0.0,0.0,0.0,0.0,0.0,0.0,0.0,0.0,0.0,0.0,0.0,0.0,0.0,0.0,0.0,0.0,0.0,0.0,0.0,0.0,0.0,0.0,0.0,0.0,0.0,0.0,0.0,0.0,0.0,0.0,0.0,0.0,0.0,0.0,0.0,0.0,0.0,0.0,0.0,0.0,0.0,0.0,0.0,0.0,0.0,0.0,0.0,0.0,0.0,0.0,0.0,0.0,0.0,0.0,0.0,0.0,0.0,0.0,0.0,0.0,0.0,0.0,0.0,0.0,0.0,0.0,0.0,0.0,0.0,0.0,0.0,0.0,0.0,0.0,0.0,0.0,0.0,0.0,0.0,0.0,0.0,0.0,0.0,0.0,0.0,0.0,-2.3205,-2.4734,0.0,-2.6966,-2.629,-2.4908,-2.3371,-2.134,-1.8657,0.0,0.0,0.0,0.0,0.0,0.0,0.0,0.0,0.0,0.0,0.0,0.0,0.0,0.0,0.0,0.0,0.0,0.0,0.0,0.0,0.0,0.0,0.0,0.0,0.0,0.0,0.0,0.0,0.0,0.0,0.0,0.0,0.0,0.0,0.0,0.0,0.0,0.0,0.0,0.0,0.0,0.0,0.0,0.0,0.0,0.0,0.0,0.0,0.0,0.0,0.0,0.0,0.0,0.0,0.0,0.0,0.0,0.0,0.0,0.0,0.0,0.0,0.0,0.0,0.0,0.0,0.0,0.0,0.0,0.0,0.0,0.0,0.0,0.0,0.0,0.0,0.0,0.0,0.0,0.0,0.0,0.0,0.0,0.0,0.0,0.0,0.0,0.0,0.0,0.0,0.0,0.0,0.0,0.0,0.0,0.0,0.0,0.0,0.0,0.0,0.0,0.0,-2.1923,-2.2977,-2.4392,0.0,-2.6782,-2.6047,-2.4876,-2.3421,-2.1343,-1.838,0.0,0.0,0.0,0.0,0.0,0.0,0.0,0.0,0.0,0.0,0.0,0.0,0.0,0.0,0.0,0.0,0.0,0.0,0.0,0.0,0.0,0.0,0.0,0.0,0.0,0.0,0.0,0.0,0.0,0.0,0.0,0.0,0.0,0.0,0.0,0.0,0.0,0.0,0.0,0.0,0.0,0.0,0.0,0.0,0.0,0.0,0.0,0.0,0.0,0.0,0.0,0.0,0.0,0.0,0.0,0.0,0.0,0.0,0.0,0.0,0.0,0.0,0.0,0.0,0.0,0.0,0.0,0.0,0.0,0.0,0.0,0.0,0.0,0.0,0.0,0.0,0.0,0.0,0.0,0.0,0.0,0.0,0.0,0.0,0.0,0.0,0.0,0.0,0.0,0.0,0.0,0.0,0.0,0.0,0.0,0.0,0.0,0.0,0.0,0.0,0.0,0.0,-2.0991,-2.3314,-2.5234,-2.6373,-2.6499,-2.6047,-2.4876,-2.2774,-2.0564,0.0,0.0,0.0,0.0,0.0,0.0,0.0,0.0,0.0,0.0,0.0,0.0,0.0,0.0,0.0,0.0,0.0,0.0,0.0,0.0,0.0,0.0,0.0,0.0,0.0,0.0,0.0,0.0,0.0,0.0,0.0,0.0,0.0,0.0,0.0,0.0,0.0,0.0,0.0,0.0,0.0,0.0,0.0,0.0,0.0,0.0,0.0,0.0,0.0,0.0,0.0,0.0,0.0,0.0,0.0,0.0,0.0,0.0,0.0,0.0,0.0,0.0,0.0,0.0,0.0,0.0,0.0,0.0,0.0,0.0,0.0,0.0,0.0,0.0,0.0,0.0,0.0,0.0,0.0,0.0,0.0,0.0,0.0,0.0,0.0,0.0,0.0,0.0,0.0,0.0,0.0,0.0,0.0,0.0,0.0,0.0,0.0,0.0,0.0,0.0,0.0,0.0,0.0,0.0,-2.3568,-2.5234,-2.6373,-2.6499,-2.6047,-2.4876,-2.3471,-2.134,-1.838,0.0,0.0,0.0,0.0,0.0,0.0,0.0,0.0,0.0,0.0,0.0,0.0,0.0,0.0,0.0,0.0,0.0,0.0,0.0,0.0,0.0,0.0,0.0,0.0,0.0,0.0,0.0,0.0,0.0,0.0,0.0,0.0,0.0,0.0,0.0,0.0,0.0,0.0,0.0,0.0,0.0,0.0,0.0,0.0,0.0,0.0,0.0,0.0,0.0,0.0,0.0,0.0,0.0,0.0,0.0,0.0,0.0,0.0,0.0,0.0,0.0,0.0,0.0,0.0,0.0,0.0,0.0,0.0,0.0,0.0,0.0,0.0,0.0,0.0,0.0,0.0,0.0,0.0,0.0,0.0,0.0,0.0,0.0,0.0,0.0,0.0,0.0,0.0,0.0,0.0,0.0,0.0,0.0,0.0,0.0,0.0,0.0,0.0,0.0,0.0,0.0,0.0,-2.1471,-2.3578,-2.5234,-2.6373,-2.6499,-2.6047,-2.4876,-2.3747,-2.1791,-1.8707,0.0,0.0,0.0,0.0,0.0,0.0,0.0,0.0,0.0,0.0,0.0,0.0,0.0,0.0,0.0,0.0,0.0,0.0,0.0,0.0,0.0,0.0,0.0,0.0,0.0,0.0,0.0,0.0,0.0,0.0,0.0,0.0,0.0,0.0,0.0,0.0,0.0,0.0,0.0,0.0,0.0,0.0,0.0,0.0,0.0,0.0,0.0,0.0,0.0,0.0,0.0,0.0,0.0,0.0,0.0,0.0,0.0,0.0,0.0,0.0,0.0,0.0,0.0,0.0,0.0,0.0,0.0,0.0,0.0,0.0,0.0,0.0,0.0,0.0,0.0,0.0,0.0,0.0,0.0,0.0,0.0,0.0,0.0,0.0,0.0,0.0,0.0,0.0,0.0,0.0,0.0,0.0,0.0,0.0,0.0,0.0,0.0,0.0,0.0,0.0,0.0,0.0,-2.1142,-2.3427,-2.5234,-2.6373,-2.6499,-2.6047,-2.4876,-2.3797,-2.2017,-1.9259,0.0,0.0,0.0,0.0,0.0,0.0,0.0,0.0,0.0,0.0,0.0,0.0,0.0,0.0,0.0,0.0,0.0,0.0,0.0,0.0,0.0,0.0,0.0,0.0,0.0,0.0,0.0,0.0,0.0,0.0,0.0,0.0,0.0,0.0,0.0,0.0,0.0,0.0,0.0,0.0,0.0,0.0,0.0,0.0,0.0,0.0,0.0,0.0,0.0,0.0,0.0,0.0,0.0,0.0,0.0,0.0,0.0,0.0,0.0,0.0,-2.5586,0.0,0.0,0.0,0.0,0.0,0.0,0.0,0.0,0.0,0.0,0.0,0.0,0.0,0.0,0.0,0.0,0.0,0.0,0.0,0.0,0.0,0.0,0.0,0.0,0.0,0.0,0.0,0.0,0.0,0.0,0.0,0.0,0.0,0.0,0.0,0.0,0.0,0.0,0.0,0.0,0.0,-2.1142,-2.3427,-2.5234,-2.6373,-2.6499,-2.6047,-2.4876,-2.4205,-2.2623,-1.9811,0.0,0.0,0.0,0.0,0.0,0.0,0.0,0.0,0.0,0.0,0.0,0.0,0.0,0.0,0.0,0.0,0.0,0.0,0.0,0.0,0.0,0.0,0.0,0.0,0.0,0.0,0.0,0.0,0.0,0.0,0.0,0.0,0.0,0.0,0.0,0.0,0.0,0.0,0.0,0.0,0.0,0.0,0.0,0.0,0.0,0.0,0.0,0.0,0.0,0.0,0.0,0.0,0.0,0.0,0.0,0.0,0.0,0.0,0.0,0.0,0.0,-2.6907,0.0,0.0,0.0,0.0,0.0,0.0,0.0,0.0,0.0,0.0,0.0,0.0,0.0,0.0,0.0,0.0,0.0,0.0,0.0,0.0,0.0,0.0,0.0,0.0,0.0,0.0,0.0,0.0,0.0,0.0,0.0,0.0,0.0,0.0,0.0,0.0,0.0,0.0,0.0,0.0,-2.1518,-2.3828,-2.5511,-2.6399,-2.6499,-2.6047,-2.4876,-2.433,-2.3025,-2.0765,-1.8832,0.0,0.0,0.0,0.0,0.0,0.0,0.0,0.0,0.0,0.0,0.0,0.0,0.0,0.0,0.0,0.0,0.0,0.0,0.0,0.0,0.0,0.0,0.0,0.0,0.0,0.0,0.0,0.0,0.0,0.0,0.0,0.0,0.0,0.0,0.0,0.0,0.0,0.0,0.0,0.0,0.0,0.0,0.0,0.0,0.0,0.0,0.0,0.0,0.0,0.0,0.0,0.0,0.0,0.0,0.0,-3.4248,-3.47,-3.4901,-3.4751,-3.1913,-3.0809,-3.0859,0.0,0.0,0.0,0.0,0.0,0.0,0.0,0.0,0.0,0.0,0.0,0.0,0.0,0.0,0.0,0.0,0.0,0.0,0.0,0.0,0.0,0.0,0.0,0.0,0.0,-2.5259,-2.4481,0.0,0.0,0.0,0.0,0.0,0.0,0.0,0.0,0.0,0.0,0.0,0.0,-2.2092,-2.428,-2.5812,-2.6424,-2.6499,-2.6047,-2.4876,-2.4406,-2.3427,-2.1744,-1.9836,-1.8229,0.0,0.0,0.0,0.0,0.0,0.0,0.0,0.0,0.0,0.0,0.0,0.0,0.0,0.0,0.0,0.0,0.0,0.0,0.0,0.0,0.0,0.0,0.0,0.0,0.0,0.0,0.0,0.0,0.0,0.0,0.0,0.0,-2.4858,-2.644,0.0,0.0,0.0,0.0,0.0,0.0,0.0,0.0,0.0,0.0,0.0,0.0,0.0,0.0,-3.4073,-3.6107,-3.7136,-3.7161,-3.8366,-3.8894,-3.8818,-3.8894,-3.8944,-3.8868,-3.7965,0.0,-3.2692,-3.1813,0.0,0.0,0.0,0.0,0.0,0.0,0.0,0.0,0.0,0.0,0.0,0.0,0.0,0.0,0.0,0.0,0.0,0.0,0.0,0.0,0.0,0.0,-2.7935,-2.7143,-2.6967,-2.6841,0.0,-2.3256,-2.0264,-1.951,0.0,0.0,0.0,0.0,0.0,0.0,0.0,0.0,-2.2694,-2.4531,-2.5812,-2.6424,-2.6499,-2.6047,-2.4876,-2.4725,-2.3973,-2.2322,-2.1468,-2.0338,-1.8732,-1.7052,0.0,0.0,0.0,0.0,0.0,0.0,0.0,0.0,0.0,0.0,0.0,0.0,0.0,0.0,0.0,0.0,0.0,0.0,0.0,0.0,0.0,0.0,0.0,0.0,0.0,0.0,0.0,0.0,0.0,-2.5202,-2.7358,-2.8122,-2.8273,-2.7806,0.0,0.0,0.0,0.0,0.0,0.0,0.0,0.0,0.0,-3.46,-3.5655,-3.6634,-3.7513,-3.8793,-3.9421,-3.9421,-4.0551,-4.0927,-4.0626,-4.0927,-4.0902,-4.0601,-4.035,-3.8944,-3.6634,-3.45,-3.2541,-3.0758,0.0,0.0,0.0,0.0,0.0,0.0,-3.0131,0.0,0.0,0.0,0.0,0.0,0.0,0.0,0.0,0.0,0.0,0.0,0.0,0.0,0.0,-2.9202,-2.9151,-2.8976,-2.8348,-2.644,-2.4305,0.0,-2.1594,-2.0439,-1.8281,0.0,0.0,0.0,0.0,0.0,-2.3797,-2.5259,-2.6223,-2.6474,-2.6499,-2.6047,-2.4876,-2.48,-2.4199,-2.2844,-2.2246,-2.1343,-2.0012,-1.8656,-1.6999,0.0,0.0,0.0,0.0,0.0,0.0,0.0,0.0,0.0,0.0,0.0,0.0,0.0,0.0,0.0,0.0,0.0,0.0,0.0,0.0,0.0,0.0,0.0,0.0,0.0,0.0,0.0,0.0,-2.7734,-2.9665,-2.9578,-3.0557,-3.0432,0.0,0.0,0.0,0.0,0.0,0.0,-3.3621,-3.5278,-3.6835,-3.8216,-3.9044,-3.9898,-4.0727,-4.1153,-4.1354,-4.1354,-4.2032,-4.2158,-4.1781,-4.2183,-4.2133,-4.1756,-4.1605,-4.1078,-4.0074,-3.7036,-3.5052,-3.3815,-3.2416,-3.1537,0.0,-3.2114,-3.2114,-3.1872,-3.3696,-3.3872,-3.3119,-3.2014,0.0,-2.9704,-2.7092,0.0,0.0,0.0,0.0,-2.7681,-2.9176,0.0,-3.0306,-3.0708,-3.0708,-3.0382,-2.9515,-2.8762,-2.762,0.0,-2.4607,-2.3527,-2.0738,0.0,0.0,0.0,0.0,-2.3301,-2.4833,-2.5862,-2.6499,-2.6499,-2.6499,-2.6047,-2.4876,-2.48,-2.4299,-2.317,-2.2719,-2.202,-2.0943,-1.9962,-1.8455,0.0,0.0,0.0,0.0,0.0,0.0,0.0,0.0,0.0,0.0,0.0,0.0,0.0,0.0,0.0,0.0,0.0,0.0,0.0,0.0,0.0,0.0,0.0,0.0,0.0,0.0,0.0,0.0,0.0,0.0,-3.1336,-3.3621,0.0,0.0,0.0,0.0,-3.286,-3.4374,-3.5959,-3.7638,-3.932,-4.0501,-4.1075,-4.2685,-4.3539,-4.3589,-4.3614,-4.3639,-4.3639,-4.3162,-4.2911,-4.2911,-4.2936,-4.2911,-4.2861,-4.2389,-4.2137,-4.1911,-3.9648,-3.7737,-3.6179,-3.5483,-3.4906,-3.4505,-3.5082,-3.4931,-3.4555,-3.5182,-3.4705,-3.3922,-3.4374,-3.3068,-3.1185,-3.0532,-2.9202,0.0,0.0,-2.9578,-2.988,-3.0984,-3.1286,-3.1311,-3.1336,-3.0984,-3.0608,-3.0532,-2.9615,-2.8524,0.0,-2.6264,-2.5134,-2.3954,0.0,0.0,-2.2945,-2.3471,-2.4305,-2.541,-2.6122,-2.6499,-2.6499,-2.6499,-2.6047,-2.4876,-2.48,-2.4299,-2.317,-2.307,-2.2569,-2.1493,-2.0918,-1.9811,-1.8103,-1.6446,0.0,0.0,0.0,0.0,0.0,0.0,0.0,0.0,0.0,0.0,0.0,0.0,0.0,0.0,0.0,0.0,0.0,0.0,0.0,0.0,0.0,0.0,0.0,0.0,0.0,0.0,0.0,0.0,-3.46,-3.6433,0.0,0.0,-3.5223,-3.5855,-3.6232,-3.7789,-3.932,-4.0601,-4.1907,-4.2886,-4.3438,-4.4016,-4.4317,-4.4317,-4.3991,-4.379,-4.379,-4.3237,-4.2986,-4.2986,-4.2986,-4.2986,-4.2961,-4.2816,-4.2539,-4.2162,-4.1358,-4.005,-3.8417,-3.7487,-3.701,-3.686,-3.7061,-3.701,-3.686,-3.7061,-3.6634,-3.5931,-3.5382,-3.4223,-3.2968,-3.2792,-3.1813,-3.0909,-3.1687,-3.1637,-3.1512,-3.229,-3.2466,-3.239,-3.2014,-3.1788,-3.1461,-3.0758,-3.0306,-2.9804,-2.9051,-2.7996,-2.6866,-2.5795,-2.5443,-2.5159,-2.4782,-2.4883,-2.531,-2.6097,-2.6373,-2.6499,-2.6499,-2.6499,-2.6047,-2.4876,-2.48,-2.4299,-2.317,-2.2769,-2.2272,-2.1518,-2.0993,-2.0088,-1.8732,-1.7428,-1.5746,0.0,0.0,0.0,0.0,0.0,0.0,0.0,0.0,0.0,0.0,0.0,0.0,0.0,0.0,0.0,0.0,0.0,0.0,0.0,0.0,0.0,0.0,0.0,0.0,0.0,0.0,-3.6461,-3.691,-3.8743,-3.9296,-3.7436,-3.804,-3.8818,-3.9371,-4.0601,-4.1831,-4.2936,-4.3865,-4.4543,-4.4895,-4.5095,-4.5196,-4.5196,-4.4443,-4.4091,-4.4066,-4.3338,-4.2986,-4.2986,-4.2986,-4.2986,-4.2986,-4.2986,-4.2816,-4.2464,-4.2288,-4.1404,-4.0149,-3.922,-3.8743,-3.8567,-3.8567,-3.8467,-3.8266,-3.8065,-3.7638,-3.7036,-3.6107,-3.5203,-3.4424,-3.4223,-3.3646,-3.3093,-3.3294,-3.3068,-3.2817,-3.3018,-3.3111,-3.2993,-3.2591,-3.2365,-3.2014,-3.1311,-3.0859,-3.0507,-3.0131,-2.9327,-2.8373,-2.748,-2.7329,-2.7042,-2.6289,-2.6163,-2.6239,-2.6474,-2.6499,-2.6499,-2.6499,-2.6499,-2.6047,-2.4876,-2.48,-2.4299,-2.317,-2.2594,-2.2071,-2.1518,-2.0792,-1.9962,-1.9033,-1.7703,-1.6123,-1.4329,0.0,0.0,0.0,0.0,0.0,0.0,0.0,0.0,0.0,0.0,0.0,0.0,0.0,0.0,0.0,0.0,0.0,0.0,0.0,0.0,0.0,0.0,0.0,-3.3219,-3.6031,-3.8115,-3.8165,-4.0576,-4.1458,-3.9321,-4.0501,-4.1656,-4.2238,-4.2791,-4.3514,-4.4593,-4.5196,-4.5522,-4.5522,-4.6024,-4.6301,-4.6301,-4.5196,-4.4618,-4.4618,-4.3514,-4.2986,-4.2986,-4.2986,-4.2986,-4.2986,-4.2986,-4.2986,-4.2936,-4.2464,-4.1856,-4.1225,-4.0727,-4.0174,-3.9697,-3.9697,-3.9346,-3.8818,-3.8241,-3.7663,-3.7111,-3.6606,-3.6006,-3.5433,-3.4881,-3.4731,-3.465,-3.4098,-3.3922,-3.3771,-3.3244,-3.3093,-3.3111,-3.3111,-3.2641,-3.224,-3.2215,-3.1386,-3.0633,-3.0608,-3.0181,-2.9603,-2.9013,-2.8888,-2.8574,-2.7494,-2.7354,0.0,-2.66,-2.6524,-2.6524,-2.6499,-2.6499,-2.6047,-2.4933,-2.48,-2.4299,-2.317,-2.2569,-2.2046,-2.1518,-2.0387,-1.9534,-1.8983,-1.7338,-1.6078,-1.5198,0.0,0.0,0.0,0.0,0.0,0.0,0.0,0.0,0.0,0.0,0.0,0.0,0.0,0.0,0.0,0.0,0.0,0.0,0.0,0.0,0.0,0.0,-3.6508,-3.6107,-3.8567,-4.0727,-4.153,-4.2986,-4.3714,-4.3087,-4.3438,-4.379,-4.394,-4.4468,-4.492,-4.5246,-4.5773,-4.6075,-4.6075,-4.6225,-4.6301,-4.6301,-4.5196,-4.4618,-4.4618,-4.3514,-4.2986,-4.2986,-4.2986,-4.2986,-4.2986,-4.2986,-4.2986,-4.2961,-4.2811,-4.2183,-4.1225,-4.0727,-4.0174,-3.9697,-3.9697,-3.9597,-3.9396,-3.8818,-3.8266,-3.7688,-3.7136,-3.6584,-3.6107,-3.6003,-3.5629,-3.5232,-3.5082,-3.4525,-3.3872,-3.3721,-3.337,-3.3111,-3.3111,-3.2943,-3.2717,-3.229,-3.1662,-3.106,-3.0683,-3.0181,-2.9754,-2.9578,-2.9202,-2.8787,-2.8487,0.0,0.0,-2.7153,-2.7102,-2.6927,-2.6524,-2.6499,-2.6197,-2.5435,-2.5034,-2.4299,0.0,-2.2246,-2.1644,-2.1493,-2.0355,-1.9262,-1.8215,-1.7162,-1.6166,0.0,0.0,0.0,0.0,0.0,0.0,0.0,0.0,0.0,0.0,0.0,0.0,0.0,0.0,0.0,0.0,0.0,0.0,0.0,0.0,0.0,0.0,-3.7161,-3.9446,-3.9597,-4.1003,-4.2434,-4.3539,-4.4242,-4.4719,-4.497,-4.4769,-4.4719,-4.497,-4.5296,-4.5598,-4.5824,-4.6125,-4.6301,-4.6301,-4.6301,-4.62,-4.5974,-4.507,-4.4518,-4.4267,-4.3388,-4.2986,-4.2986,-4.2986,-4.2986,0.0,-4.2986,-4.2986,-4.2986,-4.2986,-4.2333,0.0,0.0,0.0,0.0,0.0,-3.9697,-3.9647,-3.932,-3.8693,-3.7965,-3.7638,-3.701,-3.6405,-3.6405,-3.6132,-3.583,-3.5558,-3.4881,-3.4198,-3.3947,-3.3495,-3.3111,-3.3111,-3.3111,-3.2993,-3.2641,-3.2139,-3.1587,-3.1035,0.0,0.0,-2.9829,-2.9528,-2.9202,-2.8938,-2.8612,-2.8247,0.0,-2.7419,-2.7203,-2.6876,-2.6625,-2.6273,-2.5636,-2.531,0.0,0.0,0.0,-2.187,-2.1194,0.0,0.0,0.0,0.0,0.0,0.0,0.0,0.0,0.0,-1.5488,-1.5672,0.0,0.0,0.0,0.0,0.0,0.0,0.0,0.0,0.0,0.0,0.0,0.0,0.0,0.0,0.0,0.0,-3.9798,-4.1907,-4.3011,-4.3212,-4.3614,-4.4593,-4.4769,-4.502,-4.5522,-4.5121,-4.502,-4.5547,-4.5573,-4.5799,-4.6276,0.0,0.0,0.0,0.0,-4.605,-4.5497,-4.492,-4.4342,-4.379,-4.3237,-4.2986,-4.2986,-4.2986,-4.2986,-4.2986,-4.2986,-4.2986,-4.2986,-4.2986,-4.2333,-4.1275,-4.115,-4.0551,-3.9697,-3.9697,-3.9697,0.0,0.0,0.0,0.0,-3.8015,-3.7262,-3.6405,-3.6405,-3.6405,-3.6304,-3.578,-3.5157,-3.46,-3.4123,-3.3545,-3.3111,-3.3111,-3.3111,-3.3111,-3.3111,-3.2616,-3.2039,-3.1486,-3.0959,-3.0432,-2.988,-2.9804,-2.9628,-2.9063,-2.8988,0.0,-2.8273,-2.772,-2.7379,-2.7329,0.0,0.0,-2.5737,-2.5636,-2.5159,-2.4155,-2.3521,-2.2518,-2.0909,-2.0941,-2.0588,-1.9793,-1.9187,-1.8854,-1.8715,-1.8164,-1.7885,-1.7937,-1.6133,-1.6033,0.0,0.0,0.0,0.0,0.0,0.0,0.0,0.0,0.0,0.0,0.0,0.0,0.0,0.0,0.0,-3.9496,-4.143,-4.3037,-4.4141,-4.4719,-4.507,-4.5296,-4.5723,-4.6024,-4.6125,-4.605,-4.6024,-4.615,-4.615,-4.62,-4.6301,-4.6301,0.0,-4.6301,-4.6301,-4.605,-4.5497,-4.492,-4.4342,-4.379,0.0,0.0,-4.2986,-4.2986,-4.2986,-4.2986,-4.2986,-4.2986,-4.2986,-4.2986,-4.2333,-4.12,-4.035,-3.9873,-3.9697,-3.9697,-3.9697,-3.9697,-3.9697,-3.8944,-3.8015,-3.8015,-3.7262,-3.6405,-3.6405,-3.6405,0.0,-3.6279,-3.5479,-3.47,-3.46,-3.3822,-3.3111,-3.3111,-3.3111,-3.3111,-3.3111,-3.2616,-3.2039,-3.1486,-3.0959,-3.0432,-2.988,-2.9804,-2.9754,-2.9654,-2.9628,-2.9428,-2.8813,-2.8298,-2.777,-2.7344,-2.6826,-2.6449,-2.6348,-2.5862,-2.5335,-2.4707,-2.413,-2.3232,-2.1874,-2.2352,-2.1893,-2.0301,-1.9736,-1.9428,-1.9401,-1.902,-1.9078,-1.9523,-1.7914,-1.7532,0.0,0.0,0.0,0.0,0.0,0.0,0.0,0.0,0.0,0.0,0.0,-3.4299,-3.573,0.0,-3.9396,-4.1078,-4.2735,-4.389,-4.4166,-4.4945,-4.5497,-4.5497,-4.5974,-4.6301,-4.6301,-4.6301,-4.6301,-4.6301,-4.6301,-4.6301,-4.6301,-4.605,-4.5899,-4.5899,-4.5623,-4.5196,-4.4644,-4.4367,-4.394,-4.3388,-4.3112,-4.2986,-4.2986,-4.2986,-4.2986,-4.2986,-4.2986,-4.2986,-4.2936,-4.2384,-4.1831,-4.1175,-4.0124,-3.9697,-3.9697,-3.9697,-3.9697,-3.9697,-3.9697,-3.8944,-3.8015,-3.8015,-3.7262,-3.6405,-3.6405,-3.6405,-3.6405,-3.6405,-3.5579,-3.468,-3.468,-3.3897,-3.3111,-3.3111,-3.3111,-3.3111,-3.3111,-3.2842,-3.239,-3.1562,-3.1185,-3.0733,-2.993,-2.9804,-2.9804,-2.9804,-2.9804,-2.9679,-2.9402,-2.8875,-2.8298,-2.7745,-2.7228,-2.6801,-2.6524,-2.5971,-2.5485,-2.5234,-2.4707,-2.4122,-2.3484,-2.3791,-2.3179,-2.1523,-2.1238,-2.0719,-1.9998,-1.9826,-1.992,-2.0173,-1.9427,-1.9189,0.0,0.0,0.0,0.0,0.0,0.0,0.0,0.0,-3.2641,-3.5303,-3.6235,-3.7163,-3.9019,-4.0174,-4.1229,-4.2489,-4.374,-4.4518,-4.4166,-4.492,-4.5447,-4.5321,-4.5723,-4.5974,-4.5974,-4.5974,-4.6024,-4.615,-4.615,-4.62,-4.6301,-4.5773,-4.5497,-4.5497,-4.492,-4.4367,-4.3815,-4.379,-4.3514,-4.2986,-4.2986,-4.2986,-4.2986,-4.2986,-4.2986,-4.2986,-4.2986,-4.2986,-4.2886,-4.1806,-4.1275,-4.1175,-4.0124,-3.9697,-3.9697,-3.9697,-3.9697,-3.9697,-3.9697,-3.8944,-3.8015,-3.8015,-3.7262,-3.6405,-3.6405,-3.6405,-3.6405,-3.6405,-3.5579,-3.468,-3.468,-3.3897,-3.3111,-3.3111,-3.3111,-3.3111,-3.3111,-3.3111,-3.2742,-3.1612,-3.1386,-3.106,-2.998,-2.9804,-2.9804,-2.9804,-2.9804,-2.9804,-2.9804,-2.9277,-2.8687,-2.8172,-2.762,-2.7102,-2.6549,-2.6072,-2.5762,-2.5762,-2.5385,-2.5084,-2.4951,-2.4983,-2.4263,-2.2796,-2.2796,-2.2104,-2.0588,-2.0728,-2.077,-2.077,-2.0674,-2.0602,-2.9553,-2.9126,-2.949,-3.1989,-3.1562,-3.2089,0.0,0.0,-3.7111,-3.9396,-4.0247,-4.0724,-4.0974,-4.1555,-4.2484,-4.4091,-4.4493,-4.4794,-4.5221,-4.5422,-4.5296,-4.4769,-4.4769,-4.4819,-4.4819,-4.4819,-4.502,-4.5547,-4.5573,-4.5799,-4.6276,-4.5773,-4.5497,-4.5497,-4.492,-4.4367,-4.3815,-4.379,-4.3514,-4.2986,-4.2986,-4.2986,-4.2986,-4.2986,-4.2986,-4.2986,-4.2986,-4.2986,-4.2886,-4.1806,-4.1275,-4.1175,-4.0124,-3.9697,-3.9697,-3.9697,-3.9697,-3.9697,-3.9697,-3.8944,-3.8015,-3.8015,-3.7262,-3.6405,-3.6405,-3.6405,-3.6405,-3.6405,-3.5579,-3.468,-3.468,-3.3897,-3.3111,-3.3111,-3.3111,-3.3111,-3.3111,-3.3111,-3.2742,-3.1612,-3.1386,-3.106,-2.998,-2.9804,-2.9804,-2.9804,-2.9804,-2.9804,-2.9804,-2.9277,-2.8687,-2.8172,-2.762,-2.7102,-2.6549,-2.6424,-2.6399,-2.6399,-2.6348,-2.6072,-2.5536,-2.5511,-2.4863,-2.349,-2.3613,-2.291,-2.1385,-2.1854,-2.2085,-2.2085,-2.1781,-2.1424,-3.3018,-3.2925,-3.3176,0.0,-3.5454,-3.6232,-3.9346,-3.932,-3.9195,-4.1078,-4.1656,-4.1907,-4.2233,-4.2484,-4.2961,0.0,-4.4418,-4.4593,-4.4518,-4.4518,-4.4166,-4.3288,-4.3187,-4.3564,-4.4543,-4.4618,-4.4719,-4.497,-4.4995,-4.5221,-4.5799,-4.4995,-4.4644,-4.497,-4.4141,-4.3564,-4.3313,-4.3313,-4.3212,-4.2986,-4.2986,-4.2986,-4.2986,-4.2986,-4.2986,-4.2986,-4.2986,-4.2986,-4.2886,-4.1806,-4.1275,-4.1175,-4.0124,-3.9697,-3.9697,-3.9697,-3.9697,-3.9697,-3.9697,-3.8944,-3.8015,-3.8015,-3.7262,-3.6405,-3.6405,-3.6405,-3.6405,-3.6405,-3.5805,-3.5082,-3.4756,-3.4148,-3.347,-3.3144,-3.3111,-3.3111,-3.3111,-3.3111,-3.2842,-3.2039,-3.1612,-3.116,-3.0407,-3.0005,-2.9804,-2.9804,-2.9804,-2.9804,-2.9804,-2.9578,-2.9101,-2.8197,-2.7318,-2.6751,-2.6524,-2.6499,-2.6499,-2.6499,-2.6499,-2.6373,-2.6147,-2.6122,-2.5623,-2.4616,-2.4177,-2.3441,-2.2353,-2.2608,-2.2695,-2.2695,-2.2579,-2.2408,-3.4881,-3.5483,0.0,-3.7362,-3.8492,-3.9521,-4.0224,-4.0375,-4.0752,-4.2162,-4.2313,-4.2338,-4.274,-4.2816,-4.2986,-4.3689,-4.4267,-4.4493,-4.4091,-4.389,-4.3388,-4.2338,-4.2062,-4.2459,-4.3815,-4.4091,-4.4242,-4.4392,-4.4392,-4.4644,-4.5221,-4.4342,-4.3991,-4.4392,-4.3463,-4.2986,-4.2986,-4.2986,-4.2986,-4.2986,-4.2986,-4.2986,-4.2986,-4.2986,-4.2986,-4.2986,-4.2986,-4.2986,-4.2886,-4.1806,-4.1275,-4.1175,-4.0124,-3.9697,-3.9697,-3.9697,-3.9697,-3.9697,-3.9697,-3.8944,-3.8015,-3.8015,-3.7262,-3.6405,-3.6405,-3.6405,-3.6405,-3.6405,-3.5981,-3.5382,-3.4831,-3.4299,-3.3746,-3.3219,-3.3111,-3.3111,-3.3111,-3.3111,-3.2893,-3.2315,-3.1763,-3.1235,-3.0708,-3.0156,-2.9804,-2.9804,-2.9804,-2.9804,-2.9804,-2.9654,-2.9176,-2.8197,-2.7243,-2.665,-2.6499,-2.6499,-2.6499,-2.6499,-2.6499,-2.6499,-2.6499,-2.6499,-2.6129,-2.53,-2.4957,-2.4168,-2.3001,-2.3356,-2.34,-2.3198,-2.2972,-2.2972,-3.4098,0.0,-3.7412,-3.8592,-3.9647,-4.0752,-4.1886,-4.2137,-4.2313,-4.2891,-4.259,-4.2213,-4.2238,-4.2238,-4.259,-4.3639,-4.4267,-4.4618,-4.4593,-4.4141,-4.3388,-4.2338,-4.1681,-4.1605,0.0,-4.271,-4.3237,-4.379,-4.3815,-4.4066,-4.4618,-4.4116,-4.3815,-4.3815,-4.3263,-4.2986,-4.2986,-4.2986,-4.2986,-4.2986,-4.2986,-4.2986,-4.2986,-4.2986,-4.2986,-4.2986,-4.2986,-4.2986,-4.2886,-4.1806,-4.1275,-4.1175,-4.0124,-3.9697,-3.9697,-3.9697,-3.9697,-3.9697,-3.9697,-3.8944,-3.8015,-3.8015,-3.7262,-3.6405,-3.6405,-3.6405,-3.6405,-3.6405,-3.5981,-3.5382,-3.4831,-3.4299,-3.3746,-3.3219,-3.3111,-3.3111,-3.3111,-3.3111,-3.2893,-3.2315,-3.1763,-3.1235,-3.0708,-3.0156,-2.9804,-2.9804,-2.9804,-2.9804,-2.9804,-2.9302,-2.8687,-2.8172,-2.7595,-2.7077,-2.6549,-2.6499,-2.6499,-2.6499,-2.6499,-2.6499,-2.6499,-2.6499,-2.6129,-2.53,-2.6025,-2.53,-2.3001,-2.419,-2.4378,-2.3656,-2.2889,-2.2928,-3.583,0.0,-3.912,-4.0224,-4.1053,-4.1806,-4.259,-4.2766,-4.2715,-4.2514,-4.2007,-4.1505,-4.1128,-4.1078,-4.143,-4.259,-4.3489,-4.4091,-4.4091,-4.3915,-4.3263,-4.1781,-4.1401,0.0,0.0,0.0,0.0,-4.3187,-4.2911,-4.3112,-4.4041,-4.3564,-4.3413,-4.379,-4.3263,-4.2986,-4.2986,-4.2986,-4.2986,-4.2986,-4.2986,-4.2986,-4.2986,-4.2986,-4.2986,-4.2986,-4.2986,-4.2816,-4.2439,-4.163,-4.1075,-4.0727,-3.9973,-3.9697,-3.9697,-3.9697,-3.9697,-3.9697,-3.9697,-3.8944,-3.8015,-3.8015,-3.7262,-3.6405,-3.6405,-3.6405,-3.6405,-3.6405,-3.6279,-3.5881,-3.4951,-3.4575,-3.4223,-3.3294,-3.3111,-3.3111,-3.3111,-3.3111,-3.3061,-3.2817,-3.2315,-3.1763,-3.121,-3.0683,-3.0206,-2.9854,-2.9804,-2.9804,-2.9804,-2.9277,-2.8813,-2.8637,-2.8147,-2.7595,-2.7077,-2.7027,-2.6876,-2.6524,-2.6499,-2.6499,-2.6499,-2.63,-2.6069,-2.5757,-2.5872,-2.5518,-2.4725,-2.515,-2.518,-2.4912,-2.4081,-2.3845,-3.8065,-3.932,-4.035,-4.1856,-4.2333,-4.2539,-4.2715,-4.274,-4.2514,-4.1785,-4.0802,-4.0049,-3.9697,-3.9295,-3.9597,-4.1304,-4.2333,-4.3137,-4.3714,-4.3639,-4.3037,-4.1781,-4.1401,0.0,0.0,0.0,0.0,-4.2886,-4.2715,-4.2836,-4.374,-4.3263,-4.3237,-4.379,-4.3263,-4.2986,-4.2986,-4.2986,-4.2986,-4.2986,-4.2986,-4.2986,-4.2986,-4.2986,-4.2986,-4.2986,-4.2986,-4.2715,-4.2162,-4.1555,-4.0949,-4.045,-3.9898,-3.9697,-3.9697,-3.9697,-3.9697,-3.9697,-3.9697,-3.9094,-3.8291,-3.8065,-3.7387,-3.6656,-3.6455,-3.6405,-3.6405,-3.6405,-3.6405,-3.6204,-3.5253,-3.4831,-3.45,-3.3596,-3.3262,-3.3111,-3.3111,-3.3111,-3.3111,-3.3111,-3.2616,-3.2039,-3.1486,-3.0809,-3.0206,-2.9854,-2.9804,-2.9804,-2.9804,-2.9478,-2.9113,-2.8913,-2.8599,-2.8172,-2.762,-2.7293,-2.6964,-2.6618,-2.6308,-2.6273,-2.6593,-2.6116,-2.5975,-2.6271,-2.5829,-2.5585,-2.5585,-2.5457,-2.5391,-2.543,-2.4581,-2.414,-4.045,-4.1003,-4.1153,-4.3263,-4.3363,-4.2841,-4.2288,-4.2112,-4.176,-4.0576,-3.9019,-3.7814,0.0,0.0,-3.7211,-3.9898,-4.0902,-4.1852,-4.3539,-4.3338,-4.2811,0.0,0.0,0.0,0.0,0.0,0.0,-4.2911,0.0,-4.3212,-4.3765,-4.3313,-4.3263,-4.379,-4.3263,-4.2986,-4.2986,-4.2986,-4.2986,-4.2986,-4.2986,-4.2986,-4.2986,-4.2986,-4.2986,-4.2986,-4.2986,-4.2715,-4.2137,-4.1555,-4.1003,-4.0425,-3.9898,-3.9697,-3.9697,-3.9697,-3.9697,-3.9697,-3.9697,-3.932,-3.8768,-3.8191,-3.7638,-3.7086,-3.6581,-3.6405,-3.6405,-3.6405,-3.6405,-3.6279,-3.5633,-3.5082,-3.4575,-3.4022,-3.347,-3.3111,-3.3111,-3.3111,-3.3111,-3.3111,-3.2616,-3.2039,-3.1486,-3.0532,-2.9829,-2.9804,-2.9804,-2.9804,-2.9804,-2.9804,-2.9578,-2.8988,-2.8938,-2.8712,-2.8197,-2.736,-2.6849,-2.6801,-2.5969,-2.5854,-2.6689,-2.5915,-2.5862,-2.6699,-2.5923,-2.5561,-2.56,-2.5245,-2.5123,-2.5204,-2.4345,-2.3908,-4.1121,-4.1994,-4.264,-4.3846,-4.331,-4.2263,-4.1681,-4.0902,-3.9873,-3.8341,-3.6709,-3.5303,0.0,0.0,0.0,-3.7713,-3.9898,0.0,-4.3011,-4.3413,0.0,-4.2313,0.0,-4.2062,-4.2213,-4.2087,0.0,0.0,-4.2986,-4.3212,-4.3765,-4.3664,-4.3664,-4.379,-4.3263,-4.2986,-4.2986,-4.2986,-4.2986,-4.2986,-4.2986,-4.2986,-4.2986,-4.2986,-4.2986,-4.2986,-4.2986,-4.2434,-4.153,-4.1351,-4.0777,-3.9898,-3.9747,-3.9697,-3.9697,-3.9697,-3.9697,-3.9697,-3.9697,-3.932,-3.8768,-3.8191,-3.7638,-3.7086,-3.6581,-3.6405,-3.6405,-3.6405,-3.6405,-3.6279,-3.5633,-3.5082,-3.4575,-3.4022,-3.347,-3.3111,-3.3111,-3.3111,-3.3111,-3.3111,-3.2616,-3.2039,-3.1486,-3.0834,-3.0256,-2.9854,-2.9804,-2.9804,-2.9804,-2.9804,-2.9729,-2.9578,-2.9578,-2.9327,-2.8775,-2.7922,-2.7234,-2.6825,-2.5969,-2.5608,-2.5839,-2.5363,-2.5245,-2.5423,-2.5639,-2.5735,-2.5735,-2.5661,-2.5603,-2.5644,-2.4724,-2.4321,-4.2608,-4.3305,-4.3695,-4.4193,-4.3265,-4.181,-4.0224,-3.9195,-3.7839,-3.5177,-3.3721,0.0,-3.1461,0.0,0.0,0.0,0.0,0.0,-4.2384,-4.3087,-4.3212,0.0,-4.2564,0.0,-4.2564,-4.2564,-4.269,0.0,-4.3212,-4.3589,-4.4141,-4.394,-4.3915,-4.4141,-4.3388,-4.2986,-4.2986,-4.2986,-4.2986,-4.2986,-4.2986,-4.2986,-4.2986,-4.2986,-4.2986,-4.2986,0.0,-4.2359,-4.1275,-4.1275,-4.0701,-3.9697,-3.9697,-3.9697,-3.9697,-3.9697,-3.9697,-3.9697,-3.9697,-3.9496,-3.9094,-3.8266,-3.7789,-3.7387,-3.6656,-3.6405,-3.6405,-3.6405,-3.6405,-3.6188,-3.5392,-3.4632,-3.3966,-3.3601,-3.3005,-3.2568,-3.2982,-3.3111,-3.2982,-3.2525,-3.1994,-3.1332,-3.0634,-3.0423,-3.0154,-2.9588,-2.9554,-2.948,-2.9273,-2.9585,-2.9804,-2.9804,-2.9804,-2.9654,-2.9327,-2.8135,-2.7262,-2.6941,-2.5734,-2.5235,-2.5614,-2.509,-2.4952,-2.5343,-2.5292,-2.5421,-2.5777,-2.5421,-2.5421,-2.5777,-2.4893,-2.4507,-4.4468,-4.4602,-4.4356,-4.428,-4.3144,-4.1282,-3.8517,-3.7236,-3.5604,-3.1938,0.0,-2.9754,-2.8737,-2.9955,-3.1838,-3.4223,0.0,-3.9522,-4.1886,-4.2615,-4.2911,-4.3062,-4.3087,-4.3112,-4.3187,-4.3187,-4.3187,-4.3187,-4.3714,-4.4192,-4.4593,-4.4166,-4.4066,-4.4392,-4.3489,-4.2986,-4.2986,-4.2986,-4.2986,-4.2986,-4.2986,-4.2986,-4.2986,-4.2986,-4.2986,-4.2986,0.0,0.0,-4.1376,-4.13,-4.0727,-3.9798,-3.9722,-3.9697,-3.9697,-3.9697,-3.9697,-3.9697,-3.9697,-3.9697,-3.9521,-3.8467,-3.8065,-3.7814,-3.6832,-3.6455,-3.6405,-3.6405,-3.631,-3.5953,-3.5017,-3.3982,-3.3145,-3.2956,-3.2192,-3.1741,-3.268,-3.3025,-3.2766,-3.1625,-3.1133,-3.0557,-2.9477,-2.9652,-2.9714,-2.9124,-2.9087,-2.8913,-2.8458,-2.8998,-2.9507,-2.9624,-2.9624,-2.9663,-2.9804,-2.8131,-2.7098,-2.7098,-2.5485,-2.4828,-2.5589,-2.4893,-2.4871,-2.561,-2.4893,-2.485,-2.5631,-2.4871,-2.4893,-2.5631,-2.485,-2.4507,-4.5473,-4.5222,-4.4535,-4.4049,-4.2528,-4.0487,-3.7913,-3.5479,0.0,0.0,-2.8561,-2.7153,-2.6952,-2.8247,-3.0382,-3.3545,-3.5981,-3.8617,0.0,0.0,-4.269,0.0,0.0,0.0,0.0,0.0,0.0,0.0,0.0,0.0,-4.4644,-4.4543,-4.4116,-4.3288,-4.3087,-4.2986,-4.2986,-4.2986,-4.2986,-4.2986,-4.2986,-4.2986,-4.2986,-4.2986,-4.2986,-4.2986,0.0,0.0,-4.2037,-4.153,-4.0899,-4.0325,-3.9873,-3.9697,-3.9697,-3.9697,-3.9697,-3.9697,-3.9697,-3.9697,-3.9597,-3.8919,-3.8391,-3.7889,-3.7236,-3.6782,-3.6405,-3.6405,-3.5763,-3.5017,-3.4824,-3.3692,-3.2455,-3.2015,-3.146,-3.1134,-3.1721,-3.2525,-3.2568,-3.08,-3.0998,-3.0985,-2.9546,-2.9364,-2.9222,-2.8714,-2.8299,-2.8041,-2.7907,-2.7702,-2.7851,-2.8633,-2.8752,-2.9013,-2.974,-2.8131,-2.7098,-2.7098,-2.5485,-2.4572,-2.4743,-2.4572,-2.4572,-2.4743,-2.4572,-2.4572,-2.4743,-2.4572,-2.4572,-2.4743,-2.4572,-2.4507,-4.5649,-4.5468,-4.495,-4.4108,-4.2095,-3.9423,-3.6229,0.0,0.0,0.0,-2.6364,-2.5435,-2.4833,-2.6791,0.0,-3.1009,-3.3646,-3.6634,0.0,0.0,0.0,0.0,0.0,0.0,0.0,0.0,0.0,0.0,0.0,0.0,-4.507,-4.4794,-4.4116,-4.3011,-4.2986,-4.2986,-4.2986,-4.2986,-4.2986,-4.2986,-4.2986,-4.2986,-4.2986,-4.2986,-4.2986,-4.2986,0.0,0.0,-4.2162,-4.1555,-4.0949,-4.045,-3.9898,-3.9697,-3.9645,-3.8973,-3.9154,-3.9645,-3.8973,-3.8764,-3.8715,-3.8469,-3.8238,-3.7791,-3.6653,-3.6352,-3.6263,-3.5715,-3.521,-3.4532,-3.3426,-3.2365,-3.1542,-3.1296,-3.1004,-3.0813,-3.0873,-3.1247,-3.1158,-2.9715,-2.9761,-2.9693,-2.8488,-2.8673,-2.8835,-2.8277,-2.8009,-2.7786,-2.7519,-2.6909,-2.6812,-2.7696,-2.777,-2.7931,-2.8355,-2.718,-2.64,-2.64,-2.5232,-2.4507,-2.4507,-2.4507,-2.4507,-2.4507,-2.4507,-2.4507,-2.4507,-2.4507,-2.4507,-2.4507,-2.4507,-2.4507,-4.5529,-4.5615,-4.5248,-4.3962,-4.1612,-3.8717,-3.4841,-3.2055,0.0,0.0,-2.4675,-2.4199,-2.3421,-2.5561,-2.777,0.0,-3.1512,-3.46,-3.8191,0.0,0.0,0.0,0.0,0.0,0.0,0.0,0.0,0.0,0.0,0.0,0.0,-4.4694,-4.3991,-4.3011,-4.2986,-4.2986,-4.2986,-4.2986,-4.2986,-4.2986,-4.2986,-4.2986,-4.2986,-4.2986,-4.2986,-4.2986,0.0,0.0,0.0,-4.1605,-4.1025,-4.0626,-3.9948,-3.9517,-3.9206,-3.8267,-3.8502,-3.9154,-3.795,-3.7713,-3.7844,-3.734,-3.73,-3.7193,-3.5755,-3.5574,-3.5671,-3.4702,-3.4288,-3.3723,-3.2022,-3.115,-3.0694,-3.0507,-3.0511,-3.0348,-2.9803,-2.9966,-2.9852,-2.8631,-2.8538,-2.8398,-2.7431,-2.7904,-2.829,-2.781,-2.7705,-2.7556,-2.7144,-2.6388,-2.6163,-2.6761,-2.6915,-2.7008,-2.708,-2.6318,-2.5777,-2.5777,-2.4978,-2.4507,-2.4507,-2.4507,-2.4549,-2.4652,-2.4652,-2.4652,-2.4652,-2.4735,-2.4735,-2.4652,-2.4735,-2.4776,-4.548,-4.5607,-4.5132,-4.3201,-4.1209,-3.8751,-3.5099,0.0,0.0,-2.6013,-2.433,-2.3396,-2.3853,-2.4582,-2.6138,-2.9202,-3.0783,-3.3144,-3.7462,0.0,0.0,0.0,0.0,0.0,0.0,0.0,0.0,0.0,0.0,0.0,0.0,-4.3915,-4.3614,-4.2986,-4.2986,-4.2986,-4.2986,-4.2986,-4.2986,-4.2986,-4.2986,-4.2986,-4.2986,-4.2986,-4.2986,-4.2986,0.0,0.0,0.0,-4.1781,-4.125,-4.11,-4.0099,-3.9025,-3.8056,-3.795,-3.795,-3.7897,-3.6727,-3.7019,-3.7554,-3.5521,-3.5192,-3.5531,-3.497,-3.4485,-3.4,-3.3488,-3.265,-3.1819,-3.1615,-3.0845,-2.9964,-2.9548,-2.9479,-2.9302,-2.8347,-2.9195,-2.9669,-2.7809,-2.8139,-2.8398,-2.7431,-2.7357,-2.7431,-2.7342,-2.7014,-2.6697,-2.6635,-2.6235,-2.5944,-2.5975,-2.6324,-2.6681,-2.7062,-2.6318,-2.5777,-2.5777,-2.4978,-2.4507,-2.4507,-2.4507,-2.4693,-2.5127,-2.5127,-2.5127,-2.5127,-2.5564,-2.5544,-2.5127,-2.5564,-2.5751,-4.4748,-4.5239,-4.4996,-4.3512,-4.1055,-3.8044,-3.4615,0.0,-2.7795,-2.5586,-2.4023,-2.317,-2.3396,-2.3954,-2.5084,-2.7454,-2.8184,-3.0019,-3.4424,0.0,0.0,0.0,0.0,0.0,0.0,0.0,0.0,0.0,0.0,0.0,0.0,-4.3614,-4.3539,-4.2986,-4.2986,-4.2986,-4.2986,-4.2986,-4.2986,-4.2986,-4.2986,-4.2986,-4.2986,-4.2986,-4.2986,0.0,0.0,0.0,0.0,-4.1806,-4.1275,-4.1121,-3.9287,-3.8319,-3.7737,-3.6371,-3.6317,-3.6727,-3.5553,-3.5443,-3.5717,-3.4803,-3.4171,-3.3756,-3.3652,-3.3779,-3.3663,-3.2532,-3.1942,-3.1432,-3.0785,-3.0339,-2.987,-2.9415,-2.9115,-2.8747,-2.8035,-2.8174,-2.8211,-2.7452,-2.7573,-2.7715,-2.7357,-2.7309,-2.7309,-2.7309,-2.7143,-2.704,-2.704,-2.6874,-2.6646,-2.6376,-2.596,-2.5891,-2.6346,-2.5807,-2.5569,-2.5823,-2.5513,-2.5337,-2.5337,-2.5337,-2.544,-2.5627,-2.5627,-2.5627,-2.5627,-2.5792,-2.5792,-2.5627,-2.5792,-2.5875,-4.3493,-4.4247,-4.424,-4.3046,-4.0412,-3.7279,0.0,-3.0452,-2.7293,-2.5202,-2.3898,-2.3095,-2.3095,-2.3572,-2.4481,-2.5996,-2.665,-2.836,-3.2265,-3.3596,0.0,0.0,0.0,0.0,0.0,0.0,0.0,0.0,0.0,0.0,0.0,0.0,-4.3388,-4.2986,-4.2986,-4.2986,-4.2986,-4.2986,-4.2986,-4.2986,-4.2986,-4.2986,-4.2986,-4.2986,-4.2986,0.0,0.0,0.0,0.0,-4.1806,-4.1114,-4.0611,-3.8626,-3.7501,-3.6696,-3.508,-3.5024,-3.5553,-3.4357,-3.4211,-3.4413,-3.4099,-3.3388,-3.2695,-3.2636,-3.2896,-3.2864,-3.1525,-3.1124,-3.094,-3.0203,-2.9994,-2.9911,-2.958,-2.9042,-2.8524,-2.8193,-2.7676,-2.7309,-2.7309,-2.7309,-2.7309,-2.7309,-2.7309,-2.7309,-2.7309,-2.7309,-2.7309,-2.7309,-2.7309,-2.7185,-2.6853,-2.6082,-2.5689,-2.5854,-2.5606,-2.5564,-2.5854,-2.5875,-2.5875,-2.5875,-2.5875,-2.5982,-2.6082,-2.6127,-2.6127,-2.6127,-2.6273,-2.6252,-2.6127,-2.6273,-2.6335,-4.1716,-4.2605,-4.2658,-4.1308,-3.9043,-3.6436,-3.3293,-2.9871,-2.6816,-2.5159,-2.3898,-2.3095,-2.3095,-2.3572,-2.4356,-2.5435,-2.6992,-2.9051,-3.1838,-3.3671,0.0,0.0,0.0,0.0,0.0,0.0,0.0,0.0,0.0,0.0,0.0,0.0,-4.2986,-4.2986,-4.2986,-4.2986,-4.2986,-4.2986,-4.2986,-4.2986,-4.2986,-4.2986,-4.2986,-4.2986,0.0,0.0,0.0,0.0,0.0,-4.1806,-4.0656,-3.9503,-3.8359,-3.6534,-3.4525,-3.4525,-3.4525,-3.4379,-3.3161,-3.3501,-3.4323,-3.3126,-3.2727,-3.2587,-3.2168,-3.1733,-3.1228,-3.0263,-2.9994,-2.9994,-2.9994,-2.9994,-2.9994,-2.9994,-2.929,-2.8607,-2.8607,-2.7903,-2.7309,-2.7309,-2.7309,-2.7309,-2.7309,-2.7309,-2.7309,-2.7309,-2.7309,-2.7309,-2.7309,-2.7309,-2.7309,-2.7309,-2.6874,-2.6418,-2.5962,-2.592,-2.5875,-2.5875,-2.5875,-2.5875,-2.5875,-2.5875,-2.6148,-2.6604,-2.6604,-2.6604,-2.6604,-2.7061,-2.7061,-2.6625,-2.7081,-2.7289,-3.7769,-3.8929,-3.9384,-3.739,-3.6039,-3.4448,-3.1629,-2.9074,-2.6816,-2.5159,-2.3898,-2.3095,-2.3095,-2.3246,-2.4255,-2.6892,-2.7444,-2.8775,0.0,0.0,0.0,0.0,0.0,0.0,0.0,0.0,0.0,0.0,0.0,0.0,0.0,0.0,-4.2986,-4.2986,-4.2986,-4.2986,-4.2986,-4.2986,-4.2986,-4.2986,-4.2986,-4.2986,-4.2986,0.0,0.0,0.0,0.0,0.0,0.0,-4.0764,-3.9704,-3.8833,-3.6461,-3.5135,-3.4413,-3.3558,-3.3275,-3.3218,-3.2841,-3.2955,-3.3218,-3.2841,-3.2669,-3.2582,-3.1816,-3.1485,-3.1174,-3.0263,-2.9994,-2.9994,-2.9994,-2.9994,-2.9994,-2.9994,-2.9539,-2.9001,-2.869,-2.8131,-2.7614,-2.7372,-2.7309,-2.7309,-2.7309,-2.7309,-2.7309,-2.7309,-2.7309,-2.7309,-2.7309,-2.7309,-2.7309,-2.7309,-2.7185,-2.704,-2.6874,-2.6584,-2.6542,-2.6853,-2.6874,-2.6874,-2.6874,-2.6874,-2.6936,-2.7081,-2.7081,-2.7081,-2.7081,-2.7247,-2.7226,-2.7102,-2.7247,-2.7309,-3.4897,-3.6326,-3.6845,-3.4899,-3.3888,-3.2641,-3.0037,-2.799,-2.6239,-2.4808,-2.3747,-2.3095,-2.3095,-2.3296,-2.4173,-2.649,-2.7092,-2.8423,0.0,0.0,0.0,0.0,0.0,0.0,0.0,0.0,0.0,0.0,0.0,0.0,0.0,0.0,-4.2986,-4.2986,-4.2986,-4.2986,-4.2986,-4.2986,-4.2986,-4.2986,-4.2986,-4.2986,-4.2986,0.0,0.0,0.0,0.0,0.0,0.0,-4.0116,-3.8737,-3.7284,-3.5257,-3.4211,-3.3706,-3.3012,-3.2669,-3.2669,-3.2669,-3.2669,-3.2669,-3.2669,-3.2545,-3.2333,-3.1588,-3.1133,-3.0739,-3.016,-2.9994,-2.9994,-2.9994,-2.9994,-2.9994,-2.9994,-2.9642,-2.9228,-2.8938,-2.838,-2.7841,-2.7572,-2.7413,-2.7309,-2.7309,-2.7309,-2.7309,-2.7309,-2.7309,-2.7309,-2.7309,-2.7309,-2.7309,-2.7309,-2.7309,-2.7309,-2.7309,-2.704,-2.6998,-2.7289,-2.7309,-2.7309,-2.7309,-2.7309,-2.7309,-2.7309,-2.7309,-2.7309,-2.7309,-2.7309,-2.7309,-2.7309,-2.7309,-2.7309,0.0,-3.4281,-3.4751,-3.3386,-3.2234,-3.0874,-2.846,-2.6691,0.0,-2.4205,-2.3521,-2.3145,-2.3271,-2.3678,-2.428,-2.5076,-2.649,0.0,0.0,0.0,0.0,0.0,0.0,0.0,0.0,0.0,0.0,0.0,0.0,0.0,0.0,0.0,0.0,-4.2986,-4.2986,-4.2986,-4.2986,-4.2986,-4.2986,-4.2986,-4.2986,-4.2986,-4.2986,0.0,0.0,0.0,0.0,0.0,0.0,-3.9594,-3.7715,-3.5216,-3.4588,-3.3727,-3.2669,-3.2669,-3.2669,-3.2669,-3.2669,-3.2669,-3.2669,-3.2669,-3.2359,-3.1905,-3.1505,-3.076,-3.0036,-2.9994,-2.9994,-2.9994,-2.9994,-2.9994,-2.9994,-2.9994,-2.9663,-2.9352,-2.9311,-2.8628,-2.8007,-2.7875,-2.7593,-2.7351,-2.7309,-2.7262,-2.7262,-2.7262,-2.7262,-2.7262,-2.7262,-2.7262,-2.7262,-2.7309,-2.7262,-2.7262,-2.7262,-2.7309,-2.7309,-2.7309,-2.7309,-2.7309,-2.7309,-2.7309,-2.7309,-2.7309,-2.7309,-2.7309,-2.7309,-2.7309,-2.7309,-2.7309,-2.7309,-2.7309,-2.8329,0.0,-3.0356,-2.8729,-2.8304,-2.8005,0.0,-2.5561,-2.4808,-2.413,-2.3521,-2.3496,-2.4782,-2.4456,-2.5159,-2.8674,-2.9227,-3.0256,0.0,0.0,0.0,0.0,0.0,0.0,0.0,0.0,0.0,0.0,0.0,0.0,0.0,0.0,0.0,-4.2986,-4.2986,-4.2986,-4.2986,-4.2986,-4.2986,-4.2986,-4.2986,-4.2986,0.0,0.0,0.0,0.0,0.0,0.0,0.0,-3.7656,-3.5979,-3.4588,-3.3544,-3.2955,-3.2669,-3.2669,-3.2669,-3.2669,-3.2669,-3.2669,-3.2669,-3.2669,-3.2359,-3.1905,-3.1505,-3.0967,-3.045,-3.0098,-2.9994,-2.9994,-2.9994,-2.9994,-2.9994,-2.9994,-2.9911,-2.9746,-2.9373,-2.9145,-2.8773,-2.8069,-2.7841,-2.7655,-2.7372,-2.7119,-2.6996,-2.6996,-2.6832,-2.6736,-2.6996,-2.6996,-2.7071,-2.7262,-2.7139,-2.6996,-2.6996,-2.7167,-2.7309,-2.7309,-2.7309,-2.7309,-2.7309,-2.7309,-2.7309,-2.7309,-2.7309,-2.7309,-2.7309,-2.7309,-2.7309,-2.7309,-2.7309,-2.7309,-2.6274,-2.7849,-2.9189,-2.7713,-2.7515,-2.7369,-2.6273,-2.5184,-2.428,-2.3697,-2.3547,-2.3879,-2.5034,-2.5184,-2.6088,-2.9001,-2.9854,0.0,0.0,0.0,0.0,0.0,0.0,0.0,0.0,0.0,0.0,0.0,0.0,0.0,0.0,0.0,0.0,0.0,-4.2986,-4.2986,-4.2986,-4.2986,-4.2986,-4.2986,-4.2986,-4.2681,-4.2093,0.0,0.0,0.0,0.0,0.0,-3.7814,-3.6302,-3.4861,-3.3593,-3.2955,-3.2669,-3.2669,-3.2669,-3.2669,-3.2669,-3.2669,-3.2669,-3.2669,-3.2669,-3.2271,-3.1692,-3.1443,-3.0905,-3.0325,-3.0056,-2.9994,-2.9994,-2.9994,-2.9994,-2.9994,-2.9994,-2.9994,-2.9932,-2.9684,-2.9456,-2.9145,-2.8649,-2.838,-2.809,-2.7634,-2.738,-2.7173,-2.6941,-2.664,-2.6544,-2.6709,-2.6709,-2.6784,-2.6928,-2.6784,-2.6709,-2.6709,-2.6832,-2.6928,-2.6928,-2.7023,-2.7139,-2.7139,-2.7214,-2.7262,-2.7139,-2.7139,-2.7139,-2.7139,-2.7214,-2.7309,-2.7309,-2.7309,-2.7309,-2.5711,-2.772,-2.9453,-2.8072,-2.7846,-2.7695,-2.6625,-2.5184,-2.3979,-2.3471,-2.3853,-2.4481,-2.5277,-2.6214,-2.7354,0.0,0.0,0.0,0.0,0.0,0.0,0.0,0.0,0.0,0.0,0.0,0.0,0.0,0.0,0.0,0.0,0.0,0.0,0.0,-4.2986,-4.2986,-4.2986,-4.2986,-4.2986,-4.2986,-4.2793,-4.215,-4.11,-4.0673,0.0,0.0,0.0,0.0,-3.5837,-3.525,-3.4076,-3.2669,-3.2669,-3.2669,-3.2669,-3.2669,-3.2669,-3.2669,-3.2669,-3.2669,-3.2669,-3.2669,-3.2209,-3.1547,-3.1422,-3.0822,-3.018,-3.0036,-2.9994,-2.9994,-2.9994,-2.9994,-2.9994,-2.9994,-2.9994,-2.9994,-2.9994,-2.9684,-2.9394,-2.9311,-2.898,-2.8516,-2.8012,-2.7783,-2.7464,-2.7049,-2.6746,-2.658,-2.65,-2.6549,-2.6528,-2.6496,-2.6448,-2.6448,-2.6448,-2.64,-2.6352,-2.6352,-2.6661,-2.6853,-2.6853,-2.7071,-2.7071,-2.6853,-2.6853,-2.6853,-2.69,-2.7119,-2.7262,-2.7309,-2.7309,-2.7351,-2.6223,-2.8021,-2.9176,-2.6615,-2.6691,-2.7118,-2.5988,-2.5184,-2.465,-2.455,-2.4983,-2.5963,-2.791,-2.8386,-2.9528,0.0,0.0,0.0,0.0,0.0,0.0,0.0,0.0,0.0,0.0,0.0,0.0,0.0,0.0,0.0,0.0,0.0,0.0,0.0,0.0,-4.2986,-4.2986,-4.2986,-4.2986,-4.2986,-4.1923,-4.1272,-4.1043,-3.8839,-3.814,0.0,0.0,0.0,-3.5299,-3.4143,-3.3293,-3.2669,-3.2669,-3.2669,-3.2669,-3.2669,-3.2669,-3.2669,-3.2669,-3.2669,-3.2669,-3.2669,-3.2644,-3.2375,-3.1609,-3.1278,-3.1008,-3.0222,-2.9994,-2.9994,-2.9994,-2.9994,-2.9994,-2.9994,-2.9994,-2.9994,-2.9994,-2.9932,-2.9766,-2.9373,-2.9249,-2.8961,-2.8257,-2.7925,-2.7683,-2.7352,-2.71,-2.6881,-2.6685,-2.6695,-2.6674,-2.6536,-2.6304,-2.6139,-2.6139,-2.5965,-2.5839,-2.5839,-2.6304,-2.6544,-2.6544,-2.6592,-2.6592,-2.6544,-2.6544,-2.664,-2.69,-2.6948,-2.7092,-2.7309,-2.7309,-2.7469,-2.5134,-2.6741,-2.8122,-2.6841,-2.8021,-2.9302,-2.8499,-2.7419,-2.659,-2.659,-2.7017,-2.7795,-2.9151,0.0,-3.2265,-3.5579,0.0,0.0,0.0,0.0,0.0,0.0,0.0,0.0,0.0,0.0,0.0,0.0,0.0,0.0,0.0,0.0,0.0,0.0,0.0,0.0,-4.0928,-4.1615,-4.198,-4.198,-4.1386,-4.0384,-3.9017,-3.7828,-3.6987,0.0,0.0,-3.4345,-3.4216,-3.3351,-3.2913,-3.2669,-3.2669,-3.2669,-3.2669,-3.2669,-3.2669,-3.2669,-3.2669,-3.2669,-3.2669,-3.2669,-3.2504,-3.2215,-3.1857,-3.1402,-3.0905,-3.0491,-3.0075,-2.9837,-2.9942,-2.9889,-2.9837,-2.9994,-2.9994,-2.9994,-2.9994,-2.9994,-2.988,-2.9549,-2.9456,-2.9208,-2.8523,-2.8115,-2.783,-2.749,-2.7145,-2.6984,-2.687,-2.692,-2.6892,-2.6794,-2.6655,-2.6527,-2.6291,-2.6123,-2.6026,-2.5936,-2.6159,-2.6352,-2.6496,-2.6352,-2.6304,-2.6304,-2.6304,-2.6352,-2.6448,-2.6757,-2.7023,-2.7179,-2.7469,-2.7765,-2.4808,-2.6013,-2.7344,-2.7595,-2.9252,-3.0834,-3.0959,-2.9704,-2.8649,-2.9176,-2.9603,-3.008,0.0,-3.2667,0.0,0.0,0.0,0.0,0.0,0.0,0.0,0.0,0.0,0.0,0.0,0.0,0.0,0.0,0.0,0.0,0.0,0.0,0.0,0.0,0.0,0.0,-3.9216,-4.0152,-4.0639,-4.0639,-4.0639,-3.951,-3.7287,-3.6898,-3.5955,-3.4629,-3.4173,-3.3637,-3.3203,-3.2871,-3.2669,-3.2669,-3.2669,-3.2669,-3.2669,-3.2669,-3.2669,-3.2669,-3.2669,-3.2669,-3.2669,-3.2669,-3.2442,-3.2132,-3.2008,-3.1492,-3.0838,-3.0632,-3.0089,-2.9591,-2.9858,-2.9711,-2.9554,-2.9837,-2.9889,-2.9942,-2.9994,-2.9942,-2.9837,-2.9659,-2.9554,-2.9294,-2.8637,-2.8369,-2.8093,-2.7653,-2.7459,-2.7285,-2.7187,-2.7168,-2.7129,-2.7031,-2.7012,-2.6894,-2.6562,-2.6543,-2.6486,-2.633,-2.6112,-2.611,-2.6304,-2.611,-2.6014,-2.6014,-2.6112,-2.6201,-2.6249,-2.6806,-2.7175,-2.7301,-2.7746,-2.809,-2.6801,-2.7168,-2.7519,-2.8549,-2.8913,-2.959,-3.1637,-3.0834,-3.0256,-3.229,-3.2784,-3.2943,-3.3495,-3.583,0.0,0.0,0.0,0.0,0.0,0.0,0.0,0.0,0.0,0.0,0.0,0.0,0.0,0.0,0.0,0.0,0.0,0.0,0.0,0.0,0.0,0.0,-3.9216,-3.9275,-3.9334,-3.9334,-3.9334,-3.8625,-3.7226,-3.5692,-3.4669,-3.4093,-3.3617,-3.3182,-3.2768,-3.269,-3.2669,-3.2669,-3.2669,-3.2669,-3.2669,-3.2669,-3.2669,-3.2669,-3.2669,-3.2669,-3.2669,-3.2669,-3.2706,-3.2545,-3.2112,-3.1758,-3.1344,-3.0506,-2.983,-2.9459,-2.9623,-2.9396,-2.9237,-2.9554,-2.9606,-2.9711,-2.9942,-2.9784,-2.9606,-2.9606,-2.9343,-2.9026,-2.8741,-2.8688,-2.8562,-2.8256,-2.8203,-2.8066,-2.7728,-2.7669,-2.7461,-2.7051,-2.7012,-2.7012,-2.6973,-2.6973,-2.6953,-2.6914,-2.6172,-2.5742,-2.5791,-2.5742,-2.5742,-2.5742,-2.6182,-2.6477,-2.6636,-2.7352,-2.7744,-2.7764,-2.8036,-2.8279,-2.531,-2.6741,-2.8398,-2.8787,-3.0231,-3.1813,-3.2993,-3.3319,-3.3897,-3.5755,-3.5881,-3.568,-3.5906,0.0,0.0,0.0,0.0,0.0,0.0,0.0,0.0,0.0,0.0,0.0,0.0,0.0,0.0,0.0,0.0,0.0,0.0,0.0,0.0,0.0,0.0,0.0,0.0,-3.761,-3.7515,-3.6475,-3.7229,-3.6931,-3.5692,-3.4768,-3.4132,-3.3617,-3.3451,-3.3141,-3.2669,-3.2669,-3.2669,-3.2669,-3.2669,-3.2669,-3.2669,-3.2669,-3.2669,-3.2669,-3.2669,-3.2669,-3.2669,-3.2669,-3.2669,-3.2649,-3.2463,-3.2025,-3.1487,-3.0819,-3.0017,-2.9391,-2.9306,-2.9079,-2.8993,-2.9501,-2.9606,-2.9606,-2.9711,-2.9659,-2.9501,-2.9099,-2.894,-2.8781,-2.8514,-2.8461,-2.8408,-2.8301,-2.8301,-2.8242,-2.8066,-2.8047,-2.7988,-2.7832,-2.7578,-2.7422,-2.7422,-2.7168,-2.7012,-2.7012,-2.6719,-2.6523,-2.6523,-2.6523,-2.6523,-2.6523,-2.6699,-2.6828,-2.6909,-2.732,-2.7589,-2.7732,-2.8195,-2.8468,-2.5234,-2.6691,-2.8524,-2.9038,-3.1009,-3.3169,-3.46,-3.5403,-3.6386,-3.8617,-3.8341,-3.7713,-3.7713,0.0,0.0,0.0,0.0,0.0,0.0,0.0,0.0,0.0,0.0,0.0,0.0,0.0,0.0,0.0,0.0,0.0,0.0,0.0,0.0,0.0,0.0,0.0,0.0,-3.5873,-3.5703,-3.4608,-3.5257,-3.5198,-3.4588,-3.4051,-3.3679,-3.3368,-3.3223,-3.2996,-3.2669,-3.2669,-3.2669,-3.2669,-3.2669,-3.2669,-3.2669,-3.2669,-3.2669,-3.2669,-3.2669,-3.2669,-3.2669,-3.2669,-3.2669,-3.2669,-3.2612,-3.2158,-3.1584,-3.1025,-3.0294,-2.9549,-2.9118,-2.8827,-2.8727,-2.9185,-2.929,-2.9343,-2.9396,-2.9396,-2.9185,-2.8781,-2.8621,-2.8514,-2.8354,-2.8301,-2.8301,-2.8301,-2.8301,-2.8301,-2.8301,-2.8301,-2.8301,-2.8301,-2.8027,-2.7871,-2.7871,-2.7598,-2.7422,-2.7422,-2.7422,-2.7305,-2.7031,-2.7012,-2.7012,-2.7012,-2.7148,-2.7226,-2.7226,-2.7602,-2.7818,-2.7924,-2.8324,-2.8555,-2.7268,-2.7293,-2.772,-2.9377,-3.1035,-3.3144,-3.6458,-3.681,-3.7362,-4.0623,-4.0049,-3.8944,-3.8944,-3.932,0.0,0.0,0.0,0.0,0.0,0.0,0.0,0.0,0.0,0.0,0.0,0.0,0.0,0.0,0.0,0.0,0.0,0.0,0.0,0.0,0.0,0.0,0.0,-3.4132,-3.4132,-3.4111,-3.3596,-3.3617,-3.4111,-3.3575,-3.3368,-3.3348,-3.2913,-3.2669,-3.2669,-3.2669,-3.2669,-3.2669,-3.2669,-3.2669,-3.2669,-3.2669,-3.2669,-3.2669,-3.2669,-3.2669,-3.2669,-3.2669,-3.2669,-3.2669,-3.2363,-3.2076,-3.1649,-3.0923,-3.0443,-3.0,-2.9141,-2.8613,-2.8354,-2.8621,-2.8674,-2.8781,-2.9026,-2.8887,-2.8674,-2.8674,-2.8461,-2.8301,-2.8301,-2.8301,-2.8301,-2.8301,-2.8301,-2.8301,-2.8301,-2.8301,-2.8301,-2.8301,-2.8301,-2.8301,-2.8301,-2.8301,-2.8301,-2.8301,-2.8301,-2.791,-2.707,-2.7031,-2.7031,-2.7031,-2.7461,-2.7728,-2.7728,-2.837,-2.8568,-2.8301,-2.8568,-2.8568,-2.5963,-2.7544,-2.9754,-3.0256,-3.337,-3.6759,-3.8542,-3.8843,-3.932,-4.148,-4.1229,-4.0501,-4.0099,0.0,0.0,0.0,0.0,0.0,0.0,0.0,0.0,0.0,0.0,0.0,0.0,0.0,0.0,0.0,0.0,0.0,0.0,0.0,0.0,0.0,0.0,0.0,0.0,0.0,-3.3906,-3.3634,-3.3451,-3.3451,-3.3575,-3.312,-3.2934,-3.2913,-3.2789,-3.2669,-3.2669,-3.2669,-3.2669,-3.2669,-3.2669,-3.2669,-3.2669,-3.2669,-3.2669,-3.2669,-3.2669,-3.2669,-3.2669,-3.2498,-3.2555,-3.2612,-3.2076,-3.1903,-3.1649,-3.0923,-3.0443,-3.0078,-2.9512,-2.9277,-2.9153,-2.8779,-2.8674,-2.8727,-2.8781,-2.8781,-2.8621,-2.8461,-2.8354,-2.8301,-2.8301,-2.8301,-2.8301,-2.8301,-2.8301,-2.8301,-2.8301,-2.8301,-2.8301,-2.8301,-2.8301,-2.8301,-2.8301,-2.8301,-2.8301,-2.8301,-2.8301,-2.8184,-2.793,-2.791,-2.791,-2.791,-2.8047,-2.8105,-2.8105,-2.8349,-2.8408,-2.8301,-2.8408,-2.8408,-2.7494,-2.9302,-3.1562,-3.2893,-3.5629,-3.8467,-4.0275,-4.0852,-4.1279,-4.2338,-4.1882,-4.125,-4.1178,0.0,0.0,0.0,0.0,0.0,0.0,0.0,0.0,0.0,0.0,0.0,0.0,0.0,0.0,0.0,0.0,0.0,0.0,0.0,0.0,0.0,0.0,0.0,0.0,0.0,0.0,-3.312,-3.312,-3.312,-3.312,-3.2851,-3.2669,-3.2669,-3.2669,-3.2669,-3.2669,-3.2669,-3.2669,-3.2669,-3.2669,-3.2669,-3.2669,-3.2669,-3.2612,-3.2555,-3.2555,-3.244,-3.2326,-3.2133,-3.219,-3.2268,-3.173,-3.1614,-3.1516,-3.0912,-3.0661,-3.0371,-2.9941,-2.9824,-2.9704,-2.9183,-2.8888,-2.877,-2.877,-2.8632,-2.8514,-2.8354,-2.8301,-2.8301,-2.8301,-2.8301,-2.8301,-2.8301,-2.8301,-2.8301,-2.8301,-2.8301,-2.8301,-2.8301,-2.8301,-2.8301,-2.8301,-2.8301,-2.8301,-2.8301,-2.8301,-2.8301,-2.8301,-2.8301,-2.8301,-2.8301,-2.8301,-2.8301,-2.8301,-2.8301,-2.8301,-2.8301,-2.8301,-2.8301,-3.0357,-3.1637,-3.3068,-3.6307,-3.7739,-3.9069,-4.171,-4.2665,-4.2986,-4.2986,0.0,-4.163,0.0,0.0,0.0,0.0,0.0,0.0,0.0,0.0,0.0,0.0,0.0,0.0,0.0,0.0,0.0,0.0,0.0,0.0,0.0,0.0,0.0,0.0,0.0,0.0,0.0,0.0,0.0,0.0,-3.2669,-3.2669,-3.2669,-3.2669,-3.2669,-3.2669,-3.2669,-3.2669,-3.2669,-3.2669,-3.2669,-3.2669,-3.2669,-3.2669,-3.2669,-3.2669,-3.2555,-3.2305,-3.2305,-3.2076,-3.1787,-3.1787,-3.1787,-3.173,-3.1383,-3.1267,-3.1208,-3.0995,-3.0898,-3.0801,-3.0371,-3.0254,-3.0156,-2.9785,-2.9316,-2.8965,-2.8926,-2.8613,-2.834,-2.8301,-2.8301,-2.8301,-2.8301,-2.8301,-2.8301,-2.8301,-2.8301,-2.8301,-2.8301,-2.8301,-2.8301,-2.8301,-2.8301,-2.8301,-2.8301,-2.8301,-2.8301,-2.8301,-2.8301,-2.8301,-2.8301,-2.8301,-2.8301,-2.8301,-2.8301,-2.8301,-2.8301,-2.8301,-2.8301,-2.8301,-2.8301,-2.8301,-2.8247,-3.0482,-3.347,-3.5977,-3.8969,-4.1584,-4.2615,-4.2886,-4.2986,-4.2986,-4.2785,0.0,0.0,0.0,0.0,0.0,0.0,0.0,0.0,0.0,0.0,0.0,0.0,0.0,0.0,0.0,0.0,0.0,0.0,0.0,0.0,0.0,0.0,0.0,0.0,0.0,-3.2669,-3.2669,-3.2669,0.0,-3.2669,-3.2669,-3.2669,-3.2669,-3.2669,-3.2669,-3.2669,-3.2669,-3.2669,-3.2669,-3.2669,-3.2669,-3.2669,-3.2669,-3.2669,-3.2669,-3.2555,-3.2305,-3.2305,-3.2076,-3.173,-3.1498,-3.1614,-3.1672,-3.117,-3.1112,-3.1208,-3.0995,-3.0898,-3.0859,-3.0762,-3.0742,-3.0723,-3.0625,-3.0,-2.9336,-2.9004,-2.8848,-2.8691,-2.8359,-2.8301,-2.8301,-2.8301,-2.8301,-2.8301,-2.8301,-2.8301,-2.8301,-2.8301,-2.8301,-2.8301,-2.8301,-2.8301,-2.8301,-2.8301,-2.8301,-2.8301,-2.8301,-2.8301,-2.8301,-2.8301,-2.8301,-2.8301,-2.8301,-2.8301,-2.8301,-2.8301,-2.8301,-2.8301,-2.8301,-2.8301,-2.8301,-2.9151,-3.1512,-3.4324,-3.7864,-4.0651,-4.269,-4.2911,-4.2986,-4.2986,-4.2986,0.0,0.0,0.0,0.0,0.0,0.0,0.0,0.0,0.0,0.0,0.0,0.0,0.0,0.0,0.0,0.0,0.0,0.0,0.0,0.0,0.0,0.0,0.0,0.0,0.0,0.0,-3.2669,-3.2669,-3.2669,-3.2669,-3.2669,-3.2669,-3.2669,-3.2669,-3.2669,-3.2669,-3.2669,-3.2669,-3.2669,-3.2669,-3.2669,-3.2669,-3.2669,-3.2669,-3.2669,-3.2555,-3.2305,-3.2018,-3.1903,-3.1614,-3.1344,-3.117,-3.1228,-3.1286,-3.1015,-3.0995,-3.1054,-3.0937,-3.0898,-3.0898,-3.0898,-3.0898,-3.0898,-3.0898,-3.0371,-2.9805,-2.959,-2.9375,-2.916,-2.8945,-2.873,-2.8594,-2.8594,-2.8418,-2.8301,-2.8301,-2.8301,-2.8301,-2.8301,-2.8301,-2.8301,-2.8301,-2.8301,-2.8301,-2.8301,-2.8301,-2.8301,-2.8301,-2.8301,-2.8301,-2.8301,-2.8301,-2.8301,-2.8301,-2.8301,-2.8301,-2.8301,-2.8301,-2.8301,-2.8301,-2.8301,-2.8301,-2.9829,-3.2466,-3.5203,-3.9946,-4.2032,-4.2861,-4.2961,-4.2986,-4.2986,0.0,0.0,0.0,0.0,0.0,0.0,0.0,0.0,0.0,0.0,0.0,0.0,0.0,0.0,0.0,0.0,0.0,0.0,0.0,0.0,0.0,0.0,0.0,0.0,0.0,0.0,-3.2669,-3.2669,-3.2669,-3.2669,-3.2669,-3.2669,-3.2669,-3.2669,-3.2669,-3.2669,-3.2669,-3.2669,-3.2669,-3.2669,-3.2669,-3.2669,-3.2669,-3.2669,-3.2669,-3.2612,-3.2363,-3.2076,-3.1672,-3.1383,-3.1112,-3.0898,-3.0898,-3.0898,-3.0898,-3.0898,-3.0898,-3.0898,-3.0898,-3.0898,-3.0898,-3.0898,-3.0898,-3.0898,-3.0898,-3.0586,-3.0293,-3.0215,-2.9922,-2.9648,-2.9646,-2.9277,-2.9023,-2.9023,-2.8691,-2.8398,-2.8398,-2.834,-2.8301,-2.8301,-2.8301,-2.8301,-2.8301,-2.8301,-2.8301,-2.8301,-2.8301,-2.8301,-2.8301,-2.8301,-2.8301,-2.8301,-2.8301,-2.8301,-2.8301,-2.8301,-2.8301,-2.8301,-2.8301,-2.8301,-2.8301,-2.8301,-2.8301,-2.5603,-3.0131,-3.5579,-3.9622,-4.1455,-4.2439,0.0,0.0,-4.2986,0.0,0.0,0.0,0.0,0.0,0.0,0.0,0.0,0.0,0.0,0.0,0.0,0.0,0.0,0.0,0.0,0.0,0.0,0.0,0.0,0.0,0.0,0.0,-3.2669,-3.2669,-3.2669,0.0,-3.2669,-3.2669,-3.2669,-3.2669,-3.2669,-3.2669,-3.2669,-3.2669,-3.2669,-3.2669,-3.2669,-3.2669,-3.2669,-3.2669,-3.2669,-3.2669,-3.2669,-3.2555,-3.2363,-3.2305,-3.1903,-3.1383,-3.1325,-3.1112,-3.0898,-3.0898,-3.0898,-3.0898,-3.0898,-3.0898,-3.0898,-3.0898,-3.0898,-3.0898,-3.0898,-3.0898,-3.0898,-3.0898,-3.084,-3.0684,-3.0293,-3.0156,-3.0,-2.9704,-2.9531,-2.9492,-2.9492,-2.9121,-2.8828,-2.8828,-2.8516,-2.8301,-2.8301,-2.8301,-2.8301,-2.8301,-2.8301,-2.8301,-2.8301,-2.8301,-2.8301,-2.8301,-2.8301,-2.8301,-2.8301,-2.8301,-2.8301,-2.8301,-2.8301,-2.8301,-2.8301,-2.8301,-2.8301,-2.8301,-2.8301,-2.8301,-2.7143,-3.1295,-3.5579,-3.917,-4.0651,-4.1455,-4.2363,0.0,0.0,0.0,0.0,0.0,0.0,0.0,0.0,0.0,0.0,0.0,0.0,0.0,0.0,0.0,0.0,0.0,0.0,0.0,0.0,0.0,0.0,0.0,0.0,-3.3012,-3.2669,-3.2669,-3.2669,0.0,-3.2669,-3.2669,-3.2669,-3.2669,-3.2669,-3.2669,-3.2669,-3.2669,-3.2669,-3.2669,-3.2669,-3.2669,-3.2669,-3.2669,-3.2669,-3.2669,-3.2555,-3.2363,-3.2248,-3.1903,-3.1556,-3.1267,-3.1112,-3.0995,-3.0898,-3.0898,-3.0898,-3.0898,-3.0898,-3.0898,-3.0898,-3.0898,-3.0898,-3.0898,-3.0898,-3.0898,-3.0898,-3.0898,-3.0898,-3.084,-3.0625,-3.0586,-3.0449,-3.0,-2.9922,-2.9844,-2.9665,-2.9414,-2.9277,-2.9277,-2.9121,-2.9004,-2.9004,-2.9004,-2.9004,-2.9004,-2.8789,-2.8652,-2.8652,-2.8437,-2.8398,-2.8633,-2.8652,-2.8652,-2.8652,-2.8652,-2.8535,-2.8301,-2.8301,-2.8301,-2.8301,-2.8301,-2.8301,-2.8301,-2.8301,-2.8301,-2.7821,-3.106,-3.3721,-3.7487,-3.917,-4.0199,0.0,0.0,0.0,0.0,0.0,0.0,0.0,0.0,0.0,0.0,0.0,0.0,0.0,0.0,0.0,0.0,0.0,0.0,0.0,0.0,0.0,0.0,0.0,0.0,-3.2727,-3.2669,-3.2669,-3.2669,-3.2669,-3.2669,-3.2669,-3.2669,-3.2669,-3.2669,-3.2669,-3.2669,-3.2669,-3.2669,-3.2669,-3.2669,-3.2669,-3.2669,-3.2669,-3.2669,-3.2669,-3.2555,-3.2363,-3.219,-3.196,-3.1498,-3.1267,-3.117,-3.0937,-3.0898,-3.0898,-3.0898,-3.0898,-3.0898,-3.0898,-3.0898,-3.0898,-3.0898,-3.0898,-3.0898,-3.0898,-3.0898,-3.0898,-3.0898,-3.0898,-3.0898,-3.0898,-3.0898,-3.0781,-3.0449,-3.0371,-3.0273,-2.9961,-2.9805,-2.9726,-2.9726,-2.9704,-2.9626,-2.9626,-2.9626,-2.9626,-2.9626,-2.9277,-2.9082,-2.9082,-2.8789,-2.875,-2.9062,-2.9082,-2.9082,-2.9082,-2.9082,-2.8945,-2.8633,-2.8516,-2.8398,-2.8301,-2.8301,-2.8301,-2.8301,-2.8398,-2.8457,-2.4782,-2.6741,-2.885,-3.3746,-3.6584,-3.8567,0.0,0.0,0.0,0.0,0.0,0.0,0.0,0.0,0.0,0.0,0.0,0.0,0.0,0.0,0.0,0.0,0.0,0.0,0.0,0.0,0.0,0.0,0.0,0.0,-3.2669,-3.2669,-3.2669,-3.2669,-3.2669,-3.2669,-3.2669,-3.2669,-3.2669,-3.2669,-3.2669,-3.2669,-3.2669,-3.2669,-3.2669,-3.2669,-3.2669,-3.2669,-3.2669,-3.2669,-3.2555,-3.2305,-3.2305,-3.1903,-3.1325,-3.1325,-3.117,-3.0898,-3.0898,-3.0898,-3.0898,-3.0898,-3.0898,-3.0898,-3.0898,-3.0898,-3.0898,-3.0898,-3.0898,-3.0898,-3.0898,-3.0898,-3.0898,-3.0898,-3.0898,-3.0898,-3.0898,-3.0898,-3.0879,-3.0859,-3.0859,-3.0859,-3.082,-3.0449,-3.0156,-3.0156,-2.9824,-2.9626,-2.9626,-2.9626,-2.9626,-2.9626,-2.9551,-2.9531,-2.9531,-2.9512,-2.9567,-2.9531,-2.9531,-2.9531,-2.9531,-2.9531,-2.9531,-2.9512,-2.9101,-2.8691,-2.8301,-2.8301,-2.8301,-2.8301,-2.8711,-2.8887,-2.4004,-2.5912,-2.8147,-3.1687,-3.3997,-3.5906,0.0,0.0,0.0,0.0,0.0,0.0,0.0,0.0,0.0,0.0,0.0,0.0,0.0,0.0,0.0,0.0,0.0,0.0,0.0,0.0,0.0,0.0,0.0,0.0,-3.2669,-3.2669,-3.2669,-3.2669,-3.2669,-3.2669,-3.2669,-3.2669,-3.2669,-3.2669,-3.2669,-3.2669,-3.2669,-3.2669,-3.2669,-3.2669,-3.2669,-3.2669,-3.2669,-3.2669,-3.2555,-3.2305,-3.2076,-3.1672,-3.1267,-3.1112,-3.0995,-3.0898,-3.0898,-3.0898,-3.0898,-3.0898,-3.0898,-3.0898,-3.0898,-3.0898,-3.0898,-3.0898,-3.0898,-3.0898,-3.0898,-3.0898,-3.0898,-3.0898,-3.0898,-3.0898,-3.0898,-3.0898,-3.0898,-3.0898,-3.0898,-3.0898,-3.0898,-3.0762,-3.0644,-3.0644,-3.0508,-3.041,-3.041,-3.041,-3.041,-3.041,-3.0156,-2.998,-2.998,-2.9726,-2.9687,-2.9961,-2.998,-2.998,-2.998,-2.998,-2.9844,-2.9626,-2.9414,-2.9121,-2.8691,-2.8418,-2.8437,-2.8691,-2.8848,-2.9062,-2.2673,-2.4356,-2.664,0.0,0.0,-3.3093,0.0,0.0,0.0,0.0,0.0,0.0,0.0,0.0,0.0,0.0,0.0,0.0,0.0,0.0,0.0,0.0,0.0,0.0,0.0,0.0,0.0,0.0,0.0,0.0,-3.2669,-3.2669,-3.2669,-3.2669,-3.2669,-3.2669,-3.2669,-3.2669,-3.2669,-3.2669,-3.2669,-3.2669,-3.2669,-3.2669,-3.2669,-3.2669,-3.2669,-3.2669,-3.2669,-3.2612,-3.2383,-3.2076,-3.1787,-3.1441,-3.117,-3.0937,-3.0898,-3.0898,-3.0898,-3.0898,-3.0898,-3.0898,-3.0898,-3.0898,-3.0898,-3.0898,-3.0898,-3.0898,-3.0898,-3.0898,-3.0898,-3.0898,-3.0898,-3.0898,-3.0898,-3.0898,-3.0898,-3.0898,-3.0898,-3.0898,-3.0898,-3.0898,-3.0898,-3.0898,-3.0898,-3.0898,-3.0898,-3.0898,-3.0898,-3.0898,-3.0898,-3.0898,-3.0605,-3.043,-3.043,-3.0176,-3.0137,-3.041,-3.043,-3.043,-3.043,-3.043,-3.0293,-3.0019,-2.9863,-2.9648,-2.9355,-2.8926,-2.8867,-2.9141,-2.9277,-2.959,0.0,0.0,0.0,0.0,0.0,0.0,0.0,0.0,0.0,0.0,0.0,0.0,0.0,0.0,0.0,0.0,0.0,0.0,0.0,0.0,0.0,0.0,0.0,0.0,0.0,0.0,0.0,0.0,0.0,-3.2727,-3.2669,-3.2669,-3.2669,-3.2669,-3.2669,-3.2669,-3.2669,-3.2669,-3.2669,-3.2669,-3.2669,-3.2669,-3.2669,-3.2669,-3.2669,-3.2669,-3.2669,-3.2669,-3.2669,-3.244,-3.2076,-3.173,-3.1441,-3.117,-3.0898,-3.0898,-3.0898,-3.0898,-3.0898,-3.0898,-3.0898,-3.0898,-3.0898,-3.0898,-3.0898,-3.0898,-3.0898,-3.0898,-3.0898,-3.0898,-3.0898,-3.0898,-3.0898,-3.0898,-3.0898,-3.0898,-3.0898,-3.0898,-3.0898,-3.0898,-3.0898,-3.0898,-3.0898,-3.0898,-3.0898,-3.0898,-3.0898,-3.0898,-3.0898,-3.0898,-3.0898,-3.0898,-3.0898,-3.0898,-3.0898,-3.0898,-3.0898,-3.0898,-3.0898,-3.0898,-3.0898,-3.0898,-3.0898,-3.0898,-3.0449,-3.0215,-3.0215,-2.9785,-2.9626,-2.9646,-3.0019,-3.0449,-2.1622,0.0,0.0,0.0,0.0,0.0,0.0,0.0,0.0,0.0,0.0,0.0,0.0,0.0,0.0,0.0,0.0,0.0,0.0,0.0,0.0,0.0,0.0,0.0,0.0,0.0,0.0,0.0,0.0,-3.3593,-3.2727,-3.2669,-3.2669,-3.2669,-3.2669,-3.2669,-3.2669,-3.2669,-3.2669,-3.2669,-3.2669,-3.2669,-3.2669,-3.2669,-3.2669,-3.2669,-3.2498,-3.242,-3.2363,-3.2305,-3.196,-3.1441,-3.1325,-3.117,-3.0898,-3.0898,-3.0898,-3.0898,-3.0898,-3.0898,-3.0898,-3.0898,-3.0898,-3.0898,-3.0898,-3.0898,-3.0898,-3.0898,-3.0898,-3.0898,-3.0898,-3.0898,-3.0898,-3.0898,-3.0898,-3.0898,-3.0898,-3.0898,-3.0898,-3.0898,-3.0898,-3.0898,-3.0898,-3.0898,-3.0898,-3.0898,-3.0898,-3.0898,-3.0898,-3.0898,-3.0898,-3.0898,-3.0898,-3.0898,-3.0898,-3.0898,-3.0898,-3.0898,-3.0898,-3.0898,-3.0898,-3.0898,-3.0898,-3.0898,-3.0762,-3.0703,-3.0703,-2.9941,-2.9726,-3.0039,-3.0488,-3.0762,-2.2874,-2.3477,-2.4531,0.0,0.0,0.0,0.0,0.0,0.0,0.0,0.0,0.0,0.0,0.0,0.0,0.0,0.0,0.0,0.0,0.0,0.0,0.0,0.0,0.0,0.0,0.0,0.0,0.0,-3.4692,-3.3445,-3.2727,-3.2669,-3.2669,-3.2669,-3.2669,-3.2669,-3.2669,-3.2669,-3.2669,-3.2669,-3.2669,-3.2669,-3.2669,-3.2669,-3.2669,-3.2669,-3.242,-3.219,-3.2076,-3.196,-3.1672,-3.1267,-3.117,-3.1054,-3.0898,-3.0898,-3.0898,-3.0898,-3.0898,-3.0898,-3.0898,-3.0898,-3.0898,-3.0898,-3.0898,-3.0898,-3.0898,-3.0898,-3.0898,-3.0898,-3.0898,-3.0898,-3.0898,-3.0898,-3.0898,-3.0898,-3.0898,-3.0898,-3.0898,-3.0898,-3.0898,-3.0898,-3.0898,-3.0898,-3.0898,-3.0898,-3.0898,-3.0898,-3.0898,-3.0898,-3.0898,-3.0898,-3.0898,-3.0898,-3.0898,-3.0898,-3.0898,-3.0898,-3.0898,-3.0898,-3.0898,-3.0898,-3.0898,-3.0898,-3.0898,-3.0898,-3.0898,-3.0371,-3.0254,-3.0488,-3.0762,-3.0898,-2.4556,-2.4456,-2.4933,0.0,0.0,0.0,-2.9438,-2.9324,0.0,0.0,0.0,0.0,0.0,0.0,0.0,0.0,0.0,0.0,0.0,0.0,0.0,0.0,0.0,0.0,0.0,0.0,0.0,-3.6402,-3.4246,-3.2898,-3.2898,-3.2784,-3.2669,-3.2669,-3.2669,-3.2669,-3.2669,-3.2669,-3.2669,-3.2669,-3.2669,-3.2669,-3.2669,-3.2669,-3.2669,-3.2669,-3.2383,-3.2076,-3.1787,-3.1383,-3.1267,-3.1208,-3.0995,-3.0898,-3.0898,-3.0898,-3.0898,-3.0898,-3.0898,-3.0898,-3.0898,-3.0898,-3.0898,-3.0898,-3.0898,-3.0898,-3.0898,-3.0898,-3.0898,-3.0898,-3.0898,-3.0898,-3.0898,-3.0898,-3.0898,-3.0898,-3.0898,-3.0898,-3.0898,-3.0898,-3.0898,-3.0898,-3.0898,-3.0898,-3.0898,-3.0898,-3.0898,-3.0898,-3.0898,-3.0898,-3.0898,-3.0898,-3.0898,-3.0898,-3.0898,-3.0898,-3.0898,-3.0898,-3.0898,-3.0898,-3.0898,-3.0898,-3.0898,-3.0898,-3.0898,-3.0898,-3.0898,-3.0898,-3.0898,-3.0898,-3.0898,-3.0898,-2.7042,-2.7293,-2.7509,-2.5703,0.0,0.0,0.0,-2.4546,0.0,0.0,0.0,0.0,0.0,0.0,0.0,0.0,0.0,0.0,0.0,0.0,0.0,0.0,0.0,0.0,0.0,0.0,-3.8607,-3.7607,-3.5443,-3.4155,-3.4155,-3.3218,-3.2669,-3.2669,-3.2669,-3.2669,-3.2669,-3.2669,-3.2669,-3.2669,-3.2669,-3.2669,-3.2669,-3.2669,-3.2669,-3.2669,-3.2133,-3.1845,-3.173,-3.1228,-3.0995,-3.0937,-3.0937,-3.0898,-3.0898,-3.0898,-3.0898,-3.0898,-3.0898,-3.0898,-3.0898,-3.0898,-3.0898,-3.0898,-3.0898,-3.0898,-3.0898,-3.0898,-3.0898,-3.0898,-3.0898,-3.0898,-3.0898,-3.0898,-3.0898,-3.0898,-3.0898,-3.0898,-3.0898,-3.0898,-3.0898,-3.0898,-3.0898,-3.0898,-3.0898,-3.0898,-3.0898,-3.0898,-3.0898,-3.0898,-3.0898,-3.0898,-3.0898,-3.0898,-3.0898,-3.0898,-3.0898,-3.0898,-3.0898,-3.0898,-3.0898,-3.0898,-3.0898,-3.0898,-3.0898,-3.0898,-3.0898,-3.0898,-3.0898,-3.0898,-3.0898,-3.0898,-2.8549,-2.8298,-2.8211,-2.7107,0.0,0.0,0.0,0.0,0.0,0.0,0.0,0.0,0.0,0.0,0.0,0.0,0.0,0.0,0.0,0.0,0.0,0.0,0.0,0.0,0.0,0.0,-3.6363,-3.5366,-3.4246,-3.3614,-3.3614,-3.3069,-3.2669,-3.2669,-3.2669,-3.2669,-3.2669,-3.2669,-3.2669,-3.2669,-3.2669,-3.2669,-3.2669,-3.2669,-3.2612,-3.2477,-3.2018,-3.173,-3.1498,-3.1054,-3.0898,-3.0898,-3.0898,-3.0898,-3.0898,-3.0898,-3.0898,-3.0898,-3.0898,-3.0898,-3.0898,-3.0898,-3.0898,-3.0898,-3.0898,-3.0898,-3.0898,-3.0898,-3.0898,-3.0898,-3.0898,-3.0898,-3.0898,-3.0898,-3.0898,-3.0898,-3.0898,-3.0898,-3.0898,-3.0898,-3.0898,-3.0898,-3.0898,-3.0898,-3.0898,-3.0898,-3.0898,-3.0898,-3.0898,-3.0898,-3.0898,-3.0898,-3.0898,-3.0898,-3.0898,-3.0898,-3.0898,-3.0898,-3.0898,-3.0898,-3.0898,-3.0898,-3.0898,-3.0898,-3.0898,-3.0898,-3.0898,-3.0898,-3.0898,-3.0898,-3.0898,-3.0898,0.0,0.0,0.0,0.0,0.0,-2.7211,0.0,0.0,0.0,-2.5998,0.0,0.0,0.0,0.0,0.0,0.0,0.0,0.0,0.0,0.0,0.0,0.0,0.0,0.0,0.0,0.0,-3.3464,-3.3106,-3.2721,-3.265,-3.2922,-3.2799,-3.2669,-3.2669,-3.2669,-3.2669,-3.2669,-3.2669,-3.2669,-3.2669,-3.2669,-3.2669,-3.2669,-3.2669,-3.2498,-3.2305,-3.1903,-3.1556,-3.1267,-3.0995,-3.0898,-3.0898,-3.0898,-3.0898,-3.0898,-3.0898,-3.0898,-3.0898,-3.0898,-3.0898,-3.0898,-3.0898,-3.0898,-3.0898,-3.0898,-3.0898,-3.0898,-3.0898,-3.0898,-3.0898,-3.0898,-3.0898,-3.0898,-3.0898,-3.0957,-3.1016,-3.1016,-3.1074,-3.1133,-3.1133,-3.1133,-3.1094,-3.0918,-3.0898,-3.0898,-3.0898,-3.0898,-3.0898,-3.0898,-3.0898,-3.0898,-3.0898,-3.0898,-3.0898,-3.0898,-3.0898,-3.0898,-3.0898,-3.0898,-3.0898,-3.0898,-3.0898,-3.0898,-3.0898,-3.0898,-3.0898,-3.0898,-3.0898,-3.0898,-3.0898,-3.0898,-3.0898,0.0,0.0,0.0,0.0,-3.0335,0.0,0.0,0.0,-2.4249,-2.2227,0.0,0.0,0.0,0.0,0.0,0.0,0.0,0.0,0.0,0.0,0.0,0.0,0.0,0.0,0.0,0.0,0.0,-3.4478,-3.2842,-3.2354,-3.3606,-3.3043,-3.2669,-3.2669,-3.2669,-3.2669,-3.2669,-3.2669,-3.2669,-3.2669,-3.2669,-3.2669,-3.2669,-3.242,-3.2305,-3.2248,-3.1614,-3.1325,-3.1267,-3.0995,-3.0898,-3.0898,-3.0898,-3.0898,-3.0898,-3.0898,-3.0898,-3.0898,-3.0898,-3.0898,-3.0898,-3.0898,-3.0898,-3.0898,-3.0898,-3.0898,-3.0898,-3.0898,-3.0898,-3.0898,-3.0898,-3.0898,-3.0898,-3.0898,-3.1172,-3.1445,-3.1445,-3.1758,-3.2031,-3.2031,-3.2031,-3.1777,-3.1016,-3.0898,-3.0898,-3.0898,-3.0898,-3.0898,-3.0898,-3.0898,-3.0898,-3.0898,-3.0898,-3.0898,-3.0898,-3.0898,-3.0898,-3.0898,-3.0898,-3.0898,-3.0898,-3.0898,-3.0898,-3.0898,-3.0898,-3.0898,-3.0898,-3.0898,-3.0898,-3.0898,-3.0898,-3.0898,0.0,0.0,0.0,0.0,0.0,0.0,0.0,0.0,-2.4207,0.0,0.0,0.0,0.0,0.0,0.0,0.0,0.0,0.0,0.0,0.0,0.0,0.0,0.0,0.0,0.0,0.0,0.0,0.0,0.0,-3.0766,-3.1932,-3.2197,-3.2277,-3.2277,-3.2545,-3.2669,-3.2669,-3.2669,-3.2669,-3.2669,-3.2669,-3.2669,-3.2669,-3.242,-3.219,-3.196,-3.1498,-3.1228,-3.1054,-3.0957,-3.0898,-3.0898,-3.0898,-3.0898,-3.0898,-3.0898,-3.0898,-3.0898,-3.0898,-3.0898,-3.0898,-3.0898,-3.0898,-3.0898,-3.0898,-3.0898,-3.0898,-3.0898,-3.0898,-3.0937,-3.1191,-3.125,-3.1328,-3.1562,-3.1758,-3.1894,-3.1894,-3.2031,-3.2229,-3.2229,-3.2229,-3.2051,-3.1699,-3.1426,-3.1348,-3.1601,-3.1211,-3.0976,-3.123,-3.1035,-3.0898,-3.0898,-3.0898,-3.0898,-3.0898,-3.0898,-3.0898,-3.0898,-3.0898,-3.0898,-3.0898,-3.0898,-3.0898,-3.0898,-3.0898,-3.0898,-3.0898,-3.0898,-3.0898,-3.0898,-3.0898,-3.0898,-3.4625,0.0,0.0,0.0,0.0,0.0,0.0,0.0,0.0,0.0,0.0,0.0,0.0,0.0,0.0,0.0,0.0,0.0,0.0,0.0,0.0,0.0,0.0,0.0,0.0,0.0,0.0,0.0,0.0,0.0,-3.0429,-3.136,-3.1919,-3.1988,-3.2442,-3.2669,-3.2669,-3.2669,-3.2669,-3.2669,-3.2669,-3.2669,-3.2555,-3.2305,-3.196,-3.1672,-3.1325,-3.1054,-3.0898,-3.0898,-3.0898,-3.0898,-3.0898,-3.0898,-3.0898,-3.0898,-3.0898,-3.0898,-3.0898,-3.0898,-3.0898,-3.0898,-3.0898,-3.0898,-3.0898,-3.0898,-3.0918,-3.1035,-3.1055,-3.1152,-3.1582,-3.1699,-3.1777,-3.209,-3.2246,-3.2344,-3.2344,-3.2422,-3.2519,-3.2519,-3.2519,-3.2519,-3.2519,-3.2051,-3.1797,-3.2129,-3.1641,-3.1309,-3.1504,-3.125,-3.1016,-3.0898,-3.0898,-3.0898,-3.0898,-3.0898,-3.0898,-3.0898,-3.0898,-3.0898,-3.0898,-3.0898,-3.0898,-3.0898,-3.0898,-3.0898,-3.0898,-3.0898,-3.0898,-3.0898,-3.0898,-3.0898,0.0,0.0,0.0,0.0,0.0,0.0,0.0,0.0,-2.5684,0.0,0.0,0.0,0.0,0.0,0.0,-2.1259,0.0,0.0,0.0,0.0,0.0,0.0,0.0,0.0,0.0,0.0,0.0,0.0,0.0,0.0,-2.987,-3.0884,-3.1588,-3.1967,-3.2442,-3.2669,-3.2669,-3.2669,-3.2669,-3.2669,-3.2669,-3.2555,-3.2305,-3.196,-3.1614,-3.1325,-3.1054,-3.0898,-3.0898,-3.0898,-3.0898,-3.0898,-3.0898,-3.0898,-3.0898,-3.0898,-3.0898,-3.0898,-3.0898,-3.0898,-3.0898,-3.0898,-3.0898,-3.0898,-3.0898,-3.0898,-3.0976,-3.1387,-3.1504,-3.1601,-3.2031,-3.2209,-3.2148,-3.2229,-3.248,-3.2773,-3.2773,-3.3105,-3.3379,-3.3379,-3.3379,-3.3379,-3.3379,-3.2695,-3.2148,-3.2229,-3.2209,-3.1973,-3.1562,-3.1504,-3.1348,-3.0937,-3.0898,-3.0898,-3.0898,-3.0898,-3.0898,-3.0898,-3.0898,-3.0898,-3.0898,-3.0898,-3.0898,-3.0898,-3.0898,-3.0898,-3.0898,-3.0898,-3.0898,-3.0898,-3.0898,-3.0898,0.0,0.0,-3.8768,-3.5031,0.0,0.0,0.0,0.0,0.0,0.0,0.0,0.0,0.0,0.0,-2.2294,-2.1673,-2.1445,0.0,0.0,0.0,0.0,0.0,0.0,0.0,0.0,0.0,0.0,0.0,0.0,0.0,0.0,-2.9953,-3.0822,-3.1567,-3.2043,-3.2303,-3.242,-3.2612,-3.2612,-3.244,-3.244,-3.2383,-3.2305,-3.173,-3.1383,-3.1267,-3.0995,-3.0898,-3.0898,-3.0898,-3.0898,-3.0898,-3.0898,-3.0898,-3.0898,-3.0898,-3.0898,-3.0898,-3.0898,-3.0898,-3.0898,-3.0898,-3.0898,-3.0898,-3.0898,-3.1094,-3.1328,-3.1484,-3.1719,-3.2051,-3.248,-3.2578,-3.2656,-3.293,-3.3105,-3.3203,-3.3203,-3.332,-3.3418,-3.3418,-3.3418,-3.3418,-3.3418,-3.3184,-3.3008,-3.3008,-3.2519,-3.2226,-3.2344,-3.2129,-3.1777,-3.1348,-3.1309,-3.1191,-3.0918,-3.0898,-3.0898,-3.0898,-3.0898,-3.0898,-3.0898,-3.0898,-3.0898,-3.0898,-3.0898,-3.0898,-3.0898,-3.0898,-3.0898,-3.0898,-3.0898,-3.0898,-3.9597,-3.9973,0.0,0.0,-3.5604,0.0,0.0,0.0,0.0,0.0,0.0,0.0,0.0,0.0,0.0,-2.2584,-2.1735,0.0,0.0,0.0,0.0,0.0,0.0,0.0,0.0,0.0,-2.4529,-2.513,0.0,0.0,0.0,0.0,-3.018,-3.1091,-3.1712,-3.2138,-3.242,-3.2498,-3.2477,-3.2305,-3.219,-3.2076,-3.1903,-3.1498,-3.1267,-3.117,-3.0995,-3.0898,-3.0898,-3.0898,-3.0898,-3.0898,-3.0898,-3.0898,-3.0898,-3.0898,-3.0898,-3.0898,-3.0898,-3.0898,-3.0898,-3.0898,-3.0898,-3.0918,-3.1074,-3.1309,-3.1582,-3.1894,-3.2168,-3.248,-3.291,-3.3008,-3.3086,-3.3359,-3.3418,-3.3418,-3.3418,-3.3418,-3.3418,-3.3418,-3.3418,-3.3418,-3.3418,-3.3418,-3.3418,-3.3418,-3.2969,-3.2656,-3.2773,-3.2559,-3.2226,-3.1797,-3.1758,-3.1582,-3.1152,-3.1113,-3.1055,-3.0898,-3.0898,-3.0898,-3.0898,-3.0898,-3.0898,-3.0898,-3.0898,-3.0898,-3.0898,-3.0898,-3.0898,-3.0898,-3.0898,-3.0898]},{"header":{"parameterUnit":"m.s-1","parameterCategory":1,"la1":30.6,"la2":29.2853,"lo1":-89.7004,"lo2":-87.6739,"dy":0.0162,"dx":0.0183,"nx":112,"ny":82,"refTime":"2026-05-16T00:00:00:Z","depth":0,"parameterNumber":3,"parameterNumberName":"V-component_of_WINDS"},"data":[0.0,0.0,0.0,0.0,0.0,0.0,0.0,0.0,0.0,0.0,0.0,0.0,0.0,0.0,0.0,0.0,0.0,0.0,0.0,0.0,0.0,0.0,0.0,0.0,0.0,0.0,0.0,0.0,0.0,0.0,0.0,0.0,0.0,0.0,0.0,0.0,0.0,0.0,0.0,0.0,0.0,0.0,0.0,0.0,0.0,0.0,0.0,0.0,0.0,0.0,0.0,0.0,0.0,0.0,0.0,0.0,0.0,0.0,0.0,0.0,0.0,0.0,0.0,0.0,0.0,0.0,0.0,0.0,0.0,0.0,0.0,0.0,0.0,0.0,0.0,0.0,0.0,0.0,0.0,0.0,0.0,0.0,0.0,0.0,0.0,0.0,0.0,0.0,0.0,0.0,0.0,2.1298,2.3769,2.5728,2.6884,2.6181,2.4418,2.141,0.0,0.0,0.0,0.0,0.0,0.0,0.0,0.0,0.0,0.0,0.0,0.0,0.0,0.0,0.0,0.0,0.0,0.0,0.0,0.0,0.0,0.0,0.0,0.0,0.0,0.0,0.0,0.0,0.0,0.0,0.0,0.0,0.0,0.0,0.0,0.0,0.0,0.0,0.0,0.0,0.0,0.0,0.0,0.0,0.0,0.0,0.0,0.0,0.0,0.0,0.0,0.0,0.0,0.0,0.0,0.0,0.0,0.0,0.0,0.0,0.0,0.0,0.0,0.0,0.0,0.0,0.0,0.0,0.0,0.0,0.0,0.0,0.0,0.0,0.0,0.0,0.0,0.0,0.0,0.0,0.0,0.0,0.0,0.0,0.0,0.0,0.0,0.0,0.0,0.0,0.0,0.0,0.0,0.0,0.0,0.0,0.0,0.0,0.0,0.0,0.0,0.0,0.0,0.0,1.9443,2.4637,2.5998,2.7014,2.8197,2.672,2.4995,2.3279,0.0,0.0,0.0,0.0,0.0,0.0,0.0,0.0,0.0,0.0,0.0,0.0,0.0,0.0,0.0,0.0,0.0,0.0,0.0,0.0,0.0,0.0,0.0,0.0,0.0,0.0,0.0,0.0,0.0,0.0,0.0,0.0,0.0,0.0,0.0,0.0,0.0,0.0,0.0,0.0,0.0,0.0,0.0,0.0,0.0,0.0,0.0,0.0,0.0,0.0,0.0,0.0,0.0,0.0,0.0,0.0,0.0,0.0,0.0,0.0,0.0,0.0,0.0,0.0,0.0,0.0,0.0,0.0,0.0,0.0,0.0,0.0,0.0,0.0,0.0,0.0,0.0,0.0,0.0,0.0,0.0,0.0,0.0,0.0,0.0,0.0,0.0,0.0,0.0,0.0,0.0,0.0,0.0,0.0,0.0,0.0,0.0,0.0,0.0,0.0,0.0,0.0,0.0,1.9349,2.1828,2.6435,2.747,2.8025,2.8566,2.7114,2.5147,2.2721,2.1036,0.0,0.0,0.0,0.0,0.0,0.0,0.0,0.0,0.0,0.0,0.0,0.0,0.0,0.0,0.0,0.0,0.0,0.0,0.0,0.0,0.0,0.0,0.0,0.0,0.0,0.0,0.0,0.0,0.0,0.0,0.0,0.0,0.0,0.0,0.0,0.0,0.0,0.0,0.0,0.0,0.0,0.0,0.0,0.0,0.0,0.0,0.0,0.0,0.0,0.0,0.0,0.0,0.0,0.0,0.0,0.0,0.0,0.0,0.0,0.0,0.0,0.0,0.0,0.0,0.0,0.0,0.0,0.0,0.0,0.0,0.0,0.0,0.0,0.0,0.0,0.0,0.0,0.0,0.0,0.0,0.0,0.0,0.0,0.0,0.0,0.0,0.0,0.0,0.0,0.0,0.0,0.0,0.0,0.0,0.0,0.0,0.0,0.0,0.0,0.0,0.0,0.0,2.2603,2.4694,2.7845,2.8738,2.9056,2.8848,2.7335,2.5106,2.2113,2.0079,0.0,0.0,0.0,0.0,0.0,0.0,0.0,0.0,0.0,0.0,0.0,0.0,0.0,0.0,0.0,0.0,0.0,0.0,0.0,0.0,0.0,0.0,0.0,0.0,0.0,0.0,0.0,0.0,0.0,0.0,0.0,0.0,0.0,0.0,0.0,0.0,0.0,0.0,0.0,0.0,0.0,0.0,0.0,0.0,0.0,0.0,0.0,0.0,0.0,0.0,0.0,0.0,0.0,0.0,0.0,0.0,0.0,0.0,0.0,0.0,0.0,0.0,0.0,0.0,0.0,0.0,0.0,0.0,0.0,0.0,0.0,0.0,0.0,0.0,0.0,0.0,0.0,0.0,0.0,0.0,0.0,0.0,0.0,0.0,0.0,0.0,0.0,0.0,0.0,0.0,0.0,0.0,0.0,0.0,0.0,0.0,0.0,0.0,0.0,0.0,0.0,0.0,2.4156,2.7258,2.932,3.0074,3.0163,2.9602,2.7146,2.4807,2.2763,1.9014,0.0,0.0,0.0,0.0,0.0,0.0,0.0,0.0,0.0,0.0,0.0,0.0,0.0,0.0,0.0,0.0,0.0,0.0,0.0,0.0,0.0,0.0,0.0,0.0,0.0,0.0,0.0,0.0,0.0,0.0,0.0,0.0,0.0,0.0,0.0,0.0,0.0,0.0,0.0,0.0,0.0,0.0,0.0,0.0,0.0,0.0,0.0,0.0,0.0,0.0,0.0,0.0,0.0,0.0,0.0,0.0,0.0,0.0,0.0,0.0,0.0,0.0,0.0,0.0,0.0,0.0,0.0,0.0,0.0,0.0,0.0,0.0,0.0,0.0,0.0,0.0,0.0,0.0,0.0,0.0,0.0,0.0,0.0,0.0,0.0,0.0,0.0,0.0,0.0,0.0,0.0,0.0,0.0,0.0,0.0,0.0,0.0,0.0,0.0,0.0,0.0,0.0,2.4507,2.735,0.0,3.0749,3.0714,2.9684,2.7914,2.5488,2.2283,0.0,0.0,0.0,0.0,0.0,0.0,0.0,0.0,0.0,0.0,0.0,0.0,0.0,0.0,0.0,0.0,0.0,0.0,0.0,0.0,0.0,0.0,0.0,0.0,0.0,0.0,0.0,0.0,0.0,0.0,0.0,0.0,0.0,0.0,0.0,0.0,0.0,0.0,0.0,0.0,0.0,0.0,0.0,0.0,0.0,0.0,0.0,0.0,0.0,0.0,0.0,0.0,0.0,0.0,0.0,0.0,0.0,0.0,0.0,0.0,0.0,0.0,0.0,0.0,0.0,0.0,0.0,0.0,0.0,0.0,0.0,0.0,0.0,0.0,0.0,0.0,0.0,0.0,0.0,0.0,0.0,0.0,0.0,0.0,0.0,0.0,0.0,0.0,0.0,0.0,0.0,0.0,0.0,0.0,0.0,0.0,0.0,0.0,0.0,0.0,0.0,0.0,2.2652,2.5462,2.8122,0.0,3.1219,3.0972,2.9711,2.7974,2.5435,2.1904,0.0,0.0,0.0,0.0,0.0,0.0,0.0,0.0,0.0,0.0,0.0,0.0,0.0,0.0,0.0,0.0,0.0,0.0,0.0,0.0,0.0,0.0,0.0,0.0,0.0,0.0,0.0,0.0,0.0,0.0,0.0,0.0,0.0,0.0,0.0,0.0,0.0,0.0,0.0,0.0,0.0,0.0,0.0,0.0,0.0,0.0,0.0,0.0,0.0,0.0,0.0,0.0,0.0,0.0,0.0,0.0,0.0,0.0,0.0,0.0,0.0,0.0,0.0,0.0,0.0,0.0,0.0,0.0,0.0,0.0,0.0,0.0,0.0,0.0,0.0,0.0,0.0,0.0,0.0,0.0,0.0,0.0,0.0,0.0,0.0,0.0,0.0,0.0,0.0,0.0,0.0,0.0,0.0,0.0,0.0,0.0,0.0,0.0,0.0,0.0,0.0,0.0,2.3883,2.7297,3.0073,3.1361,3.1511,3.0972,2.9711,2.7141,2.4507,0.0,0.0,0.0,0.0,0.0,0.0,0.0,0.0,0.0,0.0,0.0,0.0,0.0,0.0,0.0,0.0,0.0,0.0,0.0,0.0,0.0,0.0,0.0,0.0,0.0,0.0,0.0,0.0,0.0,0.0,0.0,0.0,0.0,0.0,0.0,0.0,0.0,0.0,0.0,0.0,0.0,0.0,0.0,0.0,0.0,0.0,0.0,0.0,0.0,0.0,0.0,0.0,0.0,0.0,0.0,0.0,0.0,0.0,0.0,0.0,0.0,0.0,0.0,0.0,0.0,0.0,0.0,0.0,0.0,0.0,0.0,0.0,0.0,0.0,0.0,0.0,0.0,0.0,0.0,0.0,0.0,0.0,0.0,0.0,0.0,0.0,0.0,0.0,0.0,0.0,0.0,0.0,0.0,0.0,0.0,0.0,0.0,0.0,0.0,0.0,0.0,0.0,0.0,0.0,2.7594,3.0073,3.1361,3.1511,3.0972,2.9711,2.8034,2.5488,2.1904,0.0,0.0,0.0,0.0,0.0,0.0,0.0,0.0,0.0,0.0,0.0,0.0,0.0,0.0,0.0,0.0,0.0,0.0,0.0,0.0,0.0,0.0,0.0,0.0,0.0,0.0,0.0,0.0,0.0,0.0,0.0,0.0,0.0,0.0,0.0,0.0,0.0,0.0,0.0,0.0,0.0,0.0,0.0,0.0,0.0,0.0,0.0,0.0,0.0,0.0,0.0,0.0,0.0,0.0,0.0,0.0,0.0,0.0,0.0,0.0,0.0,0.0,0.0,0.0,0.0,0.0,0.0,0.0,0.0,0.0,0.0,0.0,0.0,0.0,0.0,0.0,0.0,0.0,0.0,0.0,0.0,0.0,0.0,0.0,0.0,0.0,0.0,0.0,0.0,0.0,0.0,0.0,0.0,0.0,0.0,0.0,0.0,0.0,0.0,0.0,0.0,0.0,2.4864,2.779,3.0073,3.1361,3.1511,3.0972,2.9711,2.8364,2.6027,2.2343,0.0,0.0,0.0,0.0,0.0,0.0,0.0,0.0,0.0,0.0,0.0,0.0,0.0,0.0,0.0,0.0,0.0,0.0,0.0,0.0,0.0,0.0,0.0,0.0,0.0,0.0,0.0,0.0,0.0,0.0,0.0,0.0,0.0,0.0,0.0,0.0,0.0,0.0,0.0,0.0,0.0,0.0,0.0,0.0,0.0,0.0,0.0,0.0,0.0,0.0,0.0,0.0,0.0,0.0,0.0,0.0,0.0,0.0,0.0,0.0,0.0,0.0,0.0,0.0,0.0,0.0,0.0,0.0,0.0,0.0,0.0,0.0,0.0,0.0,0.0,0.0,0.0,0.0,0.0,0.0,0.0,0.0,0.0,0.0,0.0,0.0,0.0,0.0,0.0,0.0,0.0,0.0,0.0,0.0,0.0,0.0,0.0,0.0,0.0,0.0,0.0,0.0,2.5196,2.7919,3.0073,3.1361,3.1511,3.0972,2.9711,2.8423,2.6297,2.3002,0.0,0.0,0.0,0.0,0.0,0.0,0.0,0.0,0.0,0.0,0.0,0.0,0.0,0.0,0.0,0.0,0.0,0.0,0.0,0.0,0.0,0.0,0.0,0.0,0.0,0.0,0.0,0.0,0.0,0.0,0.0,0.0,0.0,0.0,0.0,0.0,0.0,0.0,0.0,0.0,0.0,0.0,0.0,0.0,0.0,0.0,0.0,0.0,0.0,0.0,0.0,0.0,0.0,0.0,0.0,0.0,0.0,0.0,0.0,0.0,3.0492,0.0,0.0,0.0,0.0,0.0,0.0,0.0,0.0,0.0,0.0,0.0,0.0,0.0,0.0,0.0,0.0,0.0,0.0,0.0,0.0,0.0,0.0,0.0,0.0,0.0,0.0,0.0,0.0,0.0,0.0,0.0,0.0,0.0,0.0,0.0,0.0,0.0,0.0,0.0,0.0,0.0,2.5196,2.7919,3.0073,3.1361,3.1511,3.0972,2.9711,2.8846,2.6961,2.361,0.0,0.0,0.0,0.0,0.0,0.0,0.0,0.0,0.0,0.0,0.0,0.0,0.0,0.0,0.0,0.0,0.0,0.0,0.0,0.0,0.0,0.0,0.0,0.0,0.0,0.0,0.0,0.0,0.0,0.0,0.0,0.0,0.0,0.0,0.0,0.0,0.0,0.0,0.0,0.0,0.0,0.0,0.0,0.0,0.0,0.0,0.0,0.0,0.0,0.0,0.0,0.0,0.0,0.0,0.0,0.0,0.0,0.0,0.0,0.0,0.0,3.2137,0.0,0.0,0.0,0.0,0.0,0.0,0.0,0.0,0.0,0.0,0.0,0.0,0.0,0.0,0.0,0.0,0.0,0.0,0.0,0.0,0.0,0.0,0.0,0.0,0.0,0.0,0.0,0.0,0.0,0.0,0.0,0.0,0.0,0.0,0.0,0.0,0.0,0.0,0.0,0.0,2.5644,2.8397,3.0402,3.1391,3.1511,3.0972,2.9711,2.8996,2.744,2.4747,2.2443,0.0,0.0,0.0,0.0,0.0,0.0,0.0,0.0,0.0,0.0,0.0,0.0,0.0,0.0,0.0,0.0,0.0,0.0,0.0,0.0,0.0,0.0,0.0,0.0,0.0,0.0,0.0,0.0,0.0,0.0,0.0,0.0,0.0,0.0,0.0,0.0,0.0,0.0,0.0,0.0,0.0,0.0,0.0,0.0,0.0,0.0,0.0,0.0,0.0,0.0,0.0,0.0,0.0,0.0,0.0,4.0816,4.1354,4.1594,4.1414,3.8033,3.6716,3.6776,0.0,0.0,0.0,0.0,0.0,0.0,0.0,0.0,0.0,0.0,0.0,0.0,0.0,0.0,0.0,0.0,0.0,0.0,0.0,0.0,0.0,0.0,0.0,0.0,0.0,3.0103,2.9175,0.0,0.0,0.0,0.0,0.0,0.0,0.0,0.0,0.0,0.0,0.0,0.0,2.6387,2.8936,3.0761,3.1421,3.1511,3.0972,2.9711,2.9086,2.7919,2.5914,2.364,2.1724,0.0,0.0,0.0,0.0,0.0,0.0,0.0,0.0,0.0,0.0,0.0,0.0,0.0,0.0,0.0,0.0,0.0,0.0,0.0,0.0,0.0,0.0,0.0,0.0,0.0,0.0,0.0,0.0,0.0,0.0,0.0,0.0,2.9624,3.1509,0.0,0.0,0.0,0.0,0.0,0.0,0.0,0.0,0.0,0.0,0.0,0.0,0.0,0.0,4.0606,4.303,4.4257,4.4287,4.5723,4.6352,4.6262,4.6352,4.6411,4.6322,4.5244,0.0,3.896,3.7913,0.0,0.0,0.0,0.0,0.0,0.0,0.0,0.0,0.0,0.0,0.0,0.0,0.0,0.0,0.0,0.0,0.0,0.0,0.0,0.0,0.0,0.0,3.3365,3.2347,3.2138,3.1988,0.0,2.7654,2.4096,2.3251,0.0,0.0,0.0,0.0,0.0,0.0,0.0,0.0,2.7106,2.9235,3.0761,3.1421,3.1511,3.0972,2.9711,2.9532,2.8633,2.6602,2.5585,2.4238,2.2373,2.0367,0.0,0.0,0.0,0.0,0.0,0.0,0.0,0.0,0.0,0.0,0.0,0.0,0.0,0.0,0.0,0.0,0.0,0.0,0.0,0.0,0.0,0.0,0.0,0.0,0.0,0.0,0.0,0.0,0.0,3.0101,3.2676,3.3514,3.3694,3.3065,0.0,0.0,0.0,0.0,0.0,0.0,0.0,0.0,0.0,4.1235,4.2491,4.3658,4.4706,4.6232,4.698,4.698,4.8327,4.8775,4.8416,4.8775,4.8745,4.8386,4.8087,4.6411,4.3658,4.1115,3.8781,3.6656,0.0,0.0,0.0,0.0,0.0,0.0,3.5908,0.0,0.0,0.0,0.0,0.0,0.0,0.0,0.0,0.0,0.0,0.0,0.0,0.0,0.0,3.4801,3.4741,3.4532,3.3784,3.1509,2.8966,0.0,2.5734,2.4358,2.1834,0.0,0.0,0.0,0.0,0.0,2.8423,3.0103,3.1182,3.1481,3.1511,3.0972,2.9711,2.9621,2.8903,2.7285,2.6512,2.5435,2.3849,2.2233,2.0258,0.0,0.0,0.0,0.0,0.0,0.0,0.0,0.0,0.0,0.0,0.0,0.0,0.0,0.0,0.0,0.0,0.0,0.0,0.0,0.0,0.0,0.0,0.0,0.0,0.0,0.0,0.0,0.0,3.3126,3.5432,3.525,3.6417,3.6267,0.0,0.0,0.0,0.0,0.0,0.0,4.0068,4.2043,4.3898,4.5544,4.6531,4.7549,4.8536,4.9045,4.9284,4.9284,5.0092,5.0242,4.9793,5.0272,5.0212,4.9763,4.9583,4.8955,4.7758,4.4137,4.1773,4.021,3.8631,3.7584,0.0,3.8272,3.8272,3.8068,4.0157,4.0367,3.9469,3.8153,0.0,3.54,3.2287,0.0,0.0,0.0,0.0,3.2916,3.4771,0.0,3.6118,3.6596,3.6596,3.6207,3.5252,3.4354,3.2916,0.0,2.9325,2.8038,2.4769,0.0,0.0,0.0,0.0,2.7769,2.9594,3.0821,3.1511,3.1511,3.1511,3.0972,2.9711,2.9621,2.9022,2.7675,2.7136,2.6243,2.4903,2.3789,2.1994,0.0,0.0,0.0,0.0,0.0,0.0,0.0,0.0,0.0,0.0,0.0,0.0,0.0,0.0,0.0,0.0,0.0,0.0,0.0,0.0,0.0,0.0,0.0,0.0,0.0,0.0,0.0,0.0,0.0,0.0,3.7345,4.0068,0.0,0.0,0.0,0.0,3.9074,4.0965,4.295,4.4855,4.686,4.8267,4.906,5.087,5.1887,5.1947,5.1977,5.2007,5.2007,5.1439,5.1139,5.1139,5.1169,5.1139,5.1079,5.0405,5.0106,4.9837,4.7146,4.4874,4.3021,4.2381,4.1692,4.1212,4.1901,4.1722,4.1272,4.2021,4.1452,4.0427,4.0965,3.9409,3.7165,3.6387,3.4801,0.0,0.0,3.525,3.5609,3.6926,3.7285,3.7315,3.7345,3.6926,3.6477,3.6387,3.5372,3.3993,0.0,3.13,2.9953,2.8547,0.0,0.0,2.7405,2.8034,2.8966,3.0283,3.1062,3.1511,3.1511,3.1511,3.0972,2.9711,2.9621,2.9022,2.7675,2.7555,2.6956,2.5615,2.4874,2.3558,2.1575,1.96,0.0,0.0,0.0,0.0,0.0,0.0,0.0,0.0,0.0,0.0,0.0,0.0,0.0,0.0,0.0,0.0,0.0,0.0,0.0,0.0,0.0,0.0,0.0,0.0,0.0,0.0,0.0,0.0,4.1235,4.3419,0.0,0.0,4.1884,4.2731,4.318,4.5035,4.686,4.8386,4.9942,5.1109,5.1768,5.2456,5.2815,5.2815,5.2426,5.2187,5.2187,5.1528,5.1229,5.1229,5.1229,5.1229,5.1199,5.0913,5.0584,5.0136,4.9179,4.7625,4.5783,4.4676,4.4107,4.3928,4.4167,4.4107,4.3928,4.4167,4.3658,4.2821,4.2261,4.0786,3.929,3.908,3.7913,3.6836,3.7764,3.7704,3.7554,3.8482,3.8691,3.8601,3.8153,3.7883,3.7494,3.6656,3.6118,3.5519,3.4622,3.3365,3.2018,3.0673,3.0255,2.9983,2.9535,2.9654,3.0163,3.1032,3.1361,3.1511,3.1511,3.1511,3.0972,2.9711,2.9621,2.9022,2.7675,2.7195,2.6542,2.5644,2.4963,2.3887,2.2373,2.1474,2.0018,0.0,0.0,0.0,0.0,0.0,0.0,0.0,0.0,0.0,0.0,0.0,0.0,0.0,0.0,0.0,0.0,0.0,0.0,0.0,0.0,0.0,0.0,0.0,0.0,0.0,0.0,4.3549,4.3988,4.6172,4.6728,4.4515,4.5334,4.6262,4.692,4.8386,4.9853,5.1169,5.2276,5.3084,5.3503,5.3743,5.3862,5.3862,5.2965,5.2546,5.2516,5.1648,5.1229,5.1229,5.1229,5.1229,5.1229,5.1229,5.0913,5.0495,5.0285,4.9344,4.7848,4.6741,4.6172,4.5963,4.5963,4.5843,4.5603,4.5364,4.4855,4.4137,4.303,4.1953,4.1025,4.0786,4.0098,3.9439,3.9679,3.9409,3.911,3.9349,3.9373,3.932,3.8841,3.8571,3.8153,3.7315,3.6776,3.6357,3.5908,3.4951,3.3814,3.2676,3.2497,3.2228,3.133,3.118,3.127,3.1481,3.1511,3.1511,3.1511,3.1511,3.0972,2.9711,2.9621,2.9022,2.7675,2.6986,2.6303,2.5644,2.4724,2.3789,2.2733,2.2205,2.106,1.9233,0.0,0.0,0.0,0.0,0.0,0.0,0.0,0.0,0.0,0.0,0.0,0.0,0.0,0.0,0.0,0.0,0.0,0.0,0.0,0.0,0.0,0.0,0.0,3.9589,4.294,4.5424,4.5484,4.8356,4.9299,4.6758,4.8267,4.9643,5.0226,5.0883,5.1858,5.3144,5.3862,5.4251,5.4251,5.485,5.5179,5.5179,5.3862,5.3174,5.3174,5.1858,5.1229,5.1229,5.1229,5.1229,5.1229,5.1229,5.1229,5.1169,5.0495,4.9883,4.9239,4.8536,4.7878,4.7309,4.7309,4.689,4.6262,4.5574,4.4885,4.4227,4.3529,4.291,4.2321,4.1662,4.1482,4.1294,4.0636,4.0427,4.0247,3.9619,3.9439,3.9373,3.9373,3.8901,3.8422,3.8392,3.7404,3.6507,3.6477,3.5968,3.528,3.4653,3.4503,3.4053,3.2766,3.2527,0.0,3.163,3.154,3.154,3.1511,3.1511,3.0972,2.9714,2.9621,2.9022,2.7675,2.6956,2.6273,2.5644,2.435,2.3383,2.2825,2.1846,2.1144,2.0728,0.0,0.0,0.0,0.0,0.0,0.0,0.0,0.0,0.0,0.0,0.0,0.0,0.0,0.0,0.0,0.0,0.0,0.0,0.0,0.0,0.0,0.0,4.3509,4.303,4.5963,4.8536,4.9494,5.1229,5.2097,5.1349,5.1768,5.2187,5.2366,5.2995,5.3533,5.3922,5.4551,5.491,5.491,5.5089,5.5179,5.5179,5.3862,5.3174,5.3174,5.1858,5.1229,5.1229,5.1229,5.1229,5.1229,5.1229,5.1229,5.1199,5.102,5.0272,4.9239,4.8536,4.7878,4.7309,4.7309,4.7189,4.695,4.6262,4.5603,4.4915,4.4257,4.3599,4.303,4.2811,4.2462,4.2081,4.1901,4.1145,4.0367,4.0187,3.9768,3.9373,3.9373,3.926,3.899,3.8482,3.7734,3.7015,3.6567,3.5968,3.5459,3.525,3.4801,3.4384,3.4024,0.0,0.0,3.2288,3.2228,3.2019,3.154,3.1511,3.1152,3.0313,2.9834,2.9022,0.0,2.6512,2.5794,2.5615,2.5136,2.5102,2.5536,2.3406,2.2149,0.0,0.0,0.0,0.0,0.0,0.0,0.0,0.0,0.0,0.0,0.0,0.0,0.0,0.0,0.0,0.0,0.0,0.0,0.0,0.0,0.0,0.0,4.4287,4.701,4.7189,4.8865,5.0571,5.1887,5.2725,5.3294,5.3593,5.3354,5.3294,5.3593,5.3982,5.4341,5.461,5.497,5.5179,5.5179,5.5179,5.5059,5.479,5.3713,5.3054,5.2755,5.1708,5.1229,5.1229,5.1229,5.1229,0.0,5.1229,5.1229,5.1229,5.1229,5.0451,0.0,0.0,0.0,0.0,0.0,4.7309,4.7249,4.686,4.6112,4.5244,4.4855,4.4107,4.329,4.329,4.306,4.2701,4.247,4.1662,4.0756,4.0457,3.9918,3.9373,3.9373,3.9373,3.932,3.8901,3.8302,3.7644,3.6985,0.0,0.0,3.5549,3.519,3.4801,3.4563,3.4174,3.3664,0.0,3.2677,3.2348,3.1959,3.166,3.1241,3.0552,3.0163,0.0,0.0,0.0,2.6063,2.5202,0.0,0.0,0.0,0.0,0.0,0.0,0.0,0.0,0.0,2.3289,2.3071,0.0,0.0,0.0,0.0,0.0,0.0,0.0,0.0,0.0,0.0,0.0,0.0,0.0,0.0,0.0,0.0,4.7429,4.9942,5.1259,5.1498,5.1977,5.3144,5.3354,5.3653,5.4251,5.3773,5.3653,5.4281,5.4311,5.4581,5.5149,0.0,0.0,0.0,0.0,5.488,5.4221,5.3533,5.2845,5.2187,5.1528,5.1229,5.1229,5.1229,5.1229,5.1229,5.1229,5.1229,5.1229,5.1229,5.0451,4.9299,4.9149,4.8327,4.7309,4.7309,4.7309,0.0,0.0,0.0,0.0,4.5304,4.4407,4.329,4.329,4.329,4.317,4.2641,4.1991,4.1235,4.0666,3.9978,3.9373,3.9373,3.9373,3.9373,3.9373,3.8871,3.8182,3.7524,3.6896,3.6267,3.5609,3.5519,3.531,3.4713,3.4623,0.0,3.3694,3.3036,3.2557,3.2497,0.0,0.0,3.0672,3.0552,2.9983,2.8786,2.8094,2.6896,2.5085,2.4956,2.5198,2.5679,2.5989,2.6616,2.7615,2.8306,2.8622,2.8497,2.5755,2.4986,0.0,0.0,0.0,0.0,0.0,0.0,0.0,0.0,0.0,0.0,0.0,0.0,0.0,0.0,0.0,4.707,4.9374,5.1289,5.2606,5.3294,5.3713,5.3982,5.4491,5.485,5.497,5.488,5.485,5.4999,5.4999,5.5059,5.5179,5.5179,0.0,5.5179,5.5179,5.488,5.4221,5.3533,5.2845,5.2187,0.0,0.0,5.1229,5.1229,5.1229,5.1229,5.1229,5.1229,5.1229,5.1229,5.0451,4.9209,4.8087,4.7519,4.7309,4.7309,4.7309,4.7309,4.7309,4.6411,4.5304,4.5304,4.4407,4.329,4.329,4.329,0.0,4.314,4.2282,4.1354,4.1235,4.0307,3.9373,3.9373,3.9373,3.9373,3.9373,3.8871,3.8182,3.7524,3.6896,3.6267,3.5609,3.5519,3.5459,3.534,3.531,3.507,3.4414,3.3724,3.3095,3.2587,3.1899,3.1451,3.1331,3.0821,3.0193,2.9445,2.8757,2.8182,2.7622,2.7236,2.7157,2.7498,2.704,2.6926,2.7137,2.9148,2.9947,2.9566,2.8187,2.7921,0.0,0.0,0.0,0.0,0.0,0.0,0.0,0.0,0.0,0.0,0.0,4.0876,4.2581,0.0,4.695,4.8955,5.093,5.2306,5.2636,5.3563,5.4221,5.4221,5.479,5.5179,5.5179,5.5179,5.5179,5.5179,5.5179,5.5179,5.5179,5.488,5.47,5.47,5.4371,5.3862,5.3204,5.2875,5.2366,5.1708,5.1379,5.1229,5.1229,5.1229,5.1229,5.1229,5.1229,5.1229,5.1169,5.0511,4.9853,4.9179,4.7818,4.7309,4.7309,4.7309,4.7309,4.7309,4.7309,4.6411,4.5304,4.5304,4.4407,4.329,4.329,4.329,4.329,4.329,4.2402,4.1422,4.1422,4.0397,3.9373,3.9373,3.9373,3.9373,3.9373,3.914,3.8601,3.7614,3.7165,3.6626,3.5669,3.5519,3.5519,3.5519,3.5519,3.537,3.504,3.4412,3.3724,3.3066,3.2378,3.1869,3.154,3.0883,3.0372,3.0073,2.9445,2.9068,2.8935,2.8733,2.888,2.9556,2.9232,2.9316,2.9859,3.1045,3.1495,3.1287,3.079,3.0709,0.0,0.0,0.0,0.0,0.0,0.0,0.0,0.0,3.8901,4.2073,4.3279,4.4387,4.6501,4.7878,4.9134,5.0524,5.2127,5.3054,5.2636,5.3533,5.4162,5.4012,5.4491,5.479,5.479,5.479,5.485,5.4999,5.4999,5.5059,5.5179,5.4551,5.4221,5.4221,5.3533,5.2875,5.2217,5.2187,5.1858,5.1229,5.1229,5.1229,5.1229,5.1229,5.1229,5.1229,5.1229,5.1229,5.1109,4.9823,4.9299,4.9179,4.7818,4.7309,4.7309,4.7309,4.7309,4.7309,4.7309,4.6411,4.5304,4.5304,4.4407,4.329,4.329,4.329,4.329,4.329,4.2402,4.1422,4.1422,4.0397,3.9373,3.9373,3.9373,3.9373,3.9373,3.9373,3.902,3.7674,3.7404,3.7015,3.5729,3.5519,3.5519,3.5519,3.5519,3.5519,3.5519,3.4891,3.4264,3.3574,3.2916,3.2228,3.157,3.1002,3.0702,3.0702,3.0253,2.9894,2.9801,2.9774,3.0164,3.0948,3.0948,3.1494,3.2551,3.2694,3.276,3.276,3.3005,3.305,3.522,3.4711,3.5222,3.8123,3.7614,3.8242,0.0,0.0,4.4227,4.695,4.8071,4.864,4.894,4.9523,5.0631,5.2546,5.3025,5.3384,5.3892,5.4132,5.3982,5.3354,5.3354,5.3414,5.3414,5.3414,5.3653,5.4281,5.4311,5.4581,5.5149,5.4551,5.4221,5.4221,5.3533,5.2875,5.2217,5.2187,5.1858,5.1229,5.1229,5.1229,5.1229,5.1229,5.1229,5.1229,5.1229,5.1229,5.1109,4.9823,4.9299,4.9179,4.7818,4.7309,4.7309,4.7309,4.7309,4.7309,4.7309,4.6411,4.5304,4.5304,4.4407,4.329,4.329,4.329,4.329,4.329,4.2402,4.1422,4.1422,4.0397,3.9373,3.9373,3.9373,3.9373,3.9373,3.9373,3.902,3.7674,3.7404,3.7015,3.5729,3.5519,3.5519,3.5519,3.5519,3.5519,3.5519,3.4891,3.4264,3.3574,3.2916,3.2228,3.157,3.1421,3.1391,3.1391,3.1331,3.1002,3.0432,3.0402,3.0431,3.0474,3.0428,3.0961,3.208,3.2707,3.2975,3.2975,3.4107,3.4286,3.9349,3.9326,3.9625,0.0,4.2252,4.318,4.689,4.686,4.6711,4.8955,4.9643,4.9942,5.0331,5.0631,5.1199,0.0,5.2935,5.3144,5.3054,5.3054,5.2636,5.1588,5.1468,5.1917,5.3084,5.3174,5.3294,5.3593,5.3623,5.3892,5.4581,5.3623,5.3204,5.3593,5.2606,5.1917,5.1618,5.1618,5.1498,5.1229,5.1229,5.1229,5.1229,5.1229,5.1229,5.1229,5.1229,5.1229,5.1109,4.9823,4.9299,4.9179,4.7818,4.7309,4.7309,4.7309,4.7309,4.7309,4.7309,4.6411,4.5304,4.5304,4.4407,4.329,4.329,4.329,4.329,4.329,4.2671,4.1901,4.1512,4.0696,3.9888,3.9499,3.9373,3.9373,3.9373,3.9373,3.914,3.8182,3.7674,3.7135,3.6237,3.5759,3.5519,3.5519,3.5519,3.5519,3.5519,3.525,3.4681,3.3604,3.2557,3.1809,3.154,3.1511,3.1511,3.1511,3.1511,3.1361,3.1092,3.1062,3.1222,3.1578,3.1866,3.2412,3.3218,3.3518,3.3647,3.3647,3.4194,3.426,4.1662,4.2381,0.0,4.4526,4.5873,4.71,4.7938,4.8117,4.8566,5.0136,5.0315,5.0345,5.0823,5.0913,5.1229,5.2067,5.2755,5.3025,5.2546,5.2306,5.1708,5.0345,5.0016,5.0601,5.2217,5.2546,5.2725,5.2905,5.2905,5.3204,5.3892,5.2845,5.2426,5.2905,5.1798,5.1229,5.1229,5.1229,5.1229,5.1229,5.1229,5.1229,5.1229,5.1229,5.1229,5.1229,5.1229,5.1229,5.1109,4.9823,4.9299,4.9179,4.7818,4.7309,4.7309,4.7309,4.7309,4.7309,4.7309,4.6411,4.5304,4.5304,4.4407,4.329,4.329,4.329,4.329,4.329,4.288,4.2261,4.1602,4.0876,4.0217,3.9589,3.9373,3.9373,3.9373,3.9373,3.92,3.8512,3.7853,3.7225,3.6596,3.5938,3.5519,3.5519,3.5519,3.5519,3.5519,3.534,3.4771,3.3604,3.2467,3.169,3.1511,3.1511,3.1511,3.1511,3.1511,3.1511,3.1511,3.1511,3.1768,3.2382,3.2598,3.3188,3.4101,3.4143,3.4207,3.4392,3.4543,3.4543,4.0636,0.0,4.4586,4.5891,4.7249,4.8566,4.9807,5.0106,5.0315,5.1003,5.0644,5.0196,5.0226,5.0226,5.0644,5.2007,5.2755,5.3174,5.3144,5.2606,5.1708,5.0345,4.9673,4.9583,0.0,5.09,5.1528,5.2187,5.2217,5.2516,5.3174,5.2576,5.2217,5.2217,5.1558,5.1229,5.1229,5.1229,5.1229,5.1229,5.1229,5.1229,5.1229,5.1229,5.1229,5.1229,5.1229,5.1229,5.1109,4.9823,4.9299,4.9179,4.7818,4.7309,4.7309,4.7309,4.7309,4.7309,4.7309,4.6411,4.5304,4.5304,4.4407,4.329,4.329,4.329,4.329,4.329,4.288,4.2261,4.1602,4.0876,4.0217,3.9589,3.9373,3.9373,3.9373,3.9373,3.92,3.8512,3.7853,3.7225,3.6596,3.5938,3.5519,3.5519,3.5519,3.5519,3.5519,3.4921,3.4264,3.3574,3.2886,3.2198,3.157,3.1511,3.1511,3.1511,3.1511,3.1511,3.1511,3.1511,3.1768,3.2382,3.1853,3.2382,3.4101,3.4229,3.4574,3.5072,3.5671,3.5646,4.2701,0.0,4.6621,4.7938,4.8925,4.9823,5.0644,5.0853,5.0794,5.0554,5.0062,4.9464,4.9015,4.8955,4.9374,5.0644,5.1828,5.2546,5.2546,5.2336,5.1558,4.9793,4.9449,0.0,0.0,0.0,0.0,5.1468,5.1139,5.1379,5.2486,5.1917,5.1738,5.2187,5.1558,5.1229,5.1229,5.1229,5.1229,5.1229,5.1229,5.1229,5.1229,5.1229,5.1229,5.1229,5.1229,5.0913,5.0465,4.9613,4.906,4.8536,4.7638,4.7309,4.7309,4.7309,4.7309,4.7309,4.7309,4.6411,4.5304,4.5304,4.4407,4.329,4.329,4.329,4.329,4.329,4.314,4.2761,4.1654,4.1205,4.0786,3.9679,3.9373,3.9373,3.9373,3.9373,3.9313,3.911,3.8512,3.7853,3.7195,3.6567,3.5998,3.5579,3.5519,3.5519,3.5519,3.4891,3.4414,3.4204,3.3544,3.2886,3.2198,3.2138,3.1959,3.154,3.1511,3.1511,3.1511,3.2334,3.292,3.3116,3.3717,3.4328,3.4904,3.4936,3.5058,3.5249,3.587,3.6026,4.5364,4.686,4.8087,4.9883,5.0451,5.0584,5.0794,5.0823,5.0554,4.9687,4.8626,4.7728,4.7309,4.683,4.7189,4.9224,5.0451,5.1409,5.2097,5.2007,5.1289,4.9793,4.9449,0.0,0.0,0.0,0.0,5.1109,5.0794,5.105,5.2127,5.1558,5.1528,5.2187,5.1558,5.1229,5.1229,5.1229,5.1229,5.1229,5.1229,5.1229,5.1229,5.1229,5.1229,5.1229,5.1229,5.0794,5.0136,4.9523,4.891,4.8207,4.7549,4.7309,4.7309,4.7309,4.7309,4.7309,4.7309,4.6591,4.5633,4.5364,4.4556,4.3589,4.3349,4.329,4.329,4.329,4.329,4.305,4.2013,4.1602,4.1115,4.0038,3.9553,3.9373,3.9373,3.9373,3.9373,3.9373,3.8871,3.8182,3.7524,3.6716,3.5998,3.5579,3.5519,3.5519,3.5519,3.513,3.4773,3.4533,3.4083,3.3574,3.2916,3.3035,3.3002,3.2579,3.2779,3.2808,3.2549,3.3578,3.4082,3.3854,3.4826,3.5296,3.5296,3.5772,3.6011,3.5983,3.6615,3.6908,4.8207,4.8865,4.9045,5.1558,5.1678,5.0943,5.0285,5.0076,4.9657,4.8356,4.6501,4.5065,0.0,0.0,4.4347,4.7549,4.8745,4.9988,5.1887,5.1648,5.102,0.0,0.0,0.0,0.0,0.0,0.0,5.1139,0.0,5.1498,5.2157,5.1618,5.1558,5.2187,5.1558,5.1229,5.1229,5.1229,5.1229,5.1229,5.1229,5.1229,5.1229,5.1229,5.1229,5.1229,5.1229,5.0794,5.0106,4.9523,4.8865,4.8177,4.7549,4.7309,4.7309,4.7309,4.7309,4.7309,4.7309,4.686,4.6202,4.5514,4.4855,4.4197,4.3499,4.329,4.329,4.329,4.329,4.314,4.256,4.1901,4.1205,4.0546,3.9888,3.9373,3.9373,3.9373,3.9373,3.9373,3.8871,3.8182,3.7524,3.6387,3.5549,3.5519,3.5519,3.5519,3.5519,3.5519,3.525,3.4623,3.4563,3.4294,3.3604,3.4089,3.4443,3.4382,3.5015,3.51,3.4469,3.5103,3.5191,3.456,3.5194,3.5506,3.5478,3.6731,3.7334,3.7279,3.7939,3.8261,4.8253,4.9715,5.0704,5.1679,5.116,5.0255,4.9673,4.8745,4.7519,4.5693,4.3748,4.2073,0.0,0.0,0.0,4.4945,4.7549,0.0,5.1259,5.1738,0.0,5.0315,0.0,5.0016,5.0196,5.0046,0.0,0.0,5.1229,5.1498,5.2157,5.2037,5.2037,5.2187,5.1558,5.1229,5.1229,5.1229,5.1229,5.1229,5.1229,5.1229,5.1229,5.1229,5.1229,5.1229,5.1229,5.0571,4.9494,4.9389,4.8596,4.7549,4.7369,4.7309,4.7309,4.7309,4.7309,4.7309,4.7309,4.686,4.6202,4.5514,4.4855,4.4197,4.3499,4.329,4.329,4.329,4.329,4.314,4.256,4.1901,4.1205,4.0546,3.9888,3.9373,3.9373,3.9373,3.9373,3.9373,3.8871,3.8182,3.7524,3.6746,3.6058,3.5579,3.5519,3.5519,3.5519,3.5519,3.5429,3.525,3.525,3.4951,3.4292,3.479,3.4936,3.4412,3.5015,3.5328,3.5159,3.6222,3.6731,3.6561,3.7219,3.7532,3.7532,3.7866,3.8047,3.8019,3.8716,3.9017,4.9449,5.0704,5.15,5.1743,5.0994,4.9717,4.7938,4.6711,4.5095,4.1923,4.0187,0.0,3.7494,0.0,0.0,0.0,0.0,0.0,5.0511,5.1349,5.1498,0.0,5.0614,0.0,5.0614,5.0614,5.0764,0.0,5.1498,5.1947,5.2606,5.2366,5.2336,5.2606,5.1708,5.1229,5.1229,5.1229,5.1229,5.1229,5.1229,5.1229,5.1229,5.1229,5.1229,5.1229,0.0,5.0481,4.9299,4.9299,4.8506,4.7309,4.7309,4.7309,4.7309,4.7309,4.7309,4.7309,4.7309,4.707,4.6591,4.5603,4.5035,4.4556,4.3589,4.329,4.329,4.329,4.329,4.3319,4.3317,4.2576,4.1758,4.1401,4.0576,3.9773,3.9481,3.9373,3.9481,3.9809,3.9334,3.8865,3.8772,3.7992,3.7155,3.6457,3.6334,3.6243,3.5908,3.5651,3.5519,3.5519,3.5519,3.534,3.4951,3.5769,3.6096,3.5751,3.6582,3.6975,3.6666,3.7638,3.8057,3.7751,3.8394,3.859,3.8306,3.859,3.859,3.8306,3.898,3.9315,5.1042,5.1649,5.1706,5.1617,5.0738,4.9089,4.5903,4.4377,4.2432,3.8063,0.0,3.5459,3.4324,3.5699,3.7943,4.0786,0.0,4.6997,4.9807,5.0674,5.1139,5.1319,5.1349,5.1379,5.1468,5.1468,5.1468,5.1468,5.2097,5.2665,5.3144,5.2636,5.2516,5.2905,5.1828,5.1229,5.1229,5.1229,5.1229,5.1229,5.1229,5.1229,5.1229,5.1229,5.1229,5.1229,0.0,0.0,4.9419,4.9329,4.8536,4.7429,4.7339,4.7309,4.7309,4.7309,4.7309,4.7309,4.7309,4.7309,4.71,4.5843,4.5364,4.5065,4.3798,4.3349,4.329,4.329,4.3369,4.3615,4.432,4.3593,4.271,4.2659,4.167,4.0536,3.9732,3.9445,3.9661,4.0478,4.0118,3.9823,4.0387,3.9529,3.8549,3.7869,3.7651,3.7341,3.6755,3.6131,3.5716,3.5619,3.5619,3.5587,3.5519,3.6662,3.7383,3.7383,3.8595,3.9067,3.8479,3.898,3.904,3.8418,3.898,3.9007,3.8451,3.904,3.898,3.8451,3.9007,3.9315,5.1511,5.1679,5.1345,5.0784,4.9466,4.7614,4.5083,4.2282,0.0,0.0,3.3962,3.2288,3.2049,3.3664,3.6207,3.9978,4.288,4.592,0.0,0.0,5.0764,0.0,0.0,0.0,0.0,0.0,0.0,0.0,0.0,0.0,5.3204,5.3084,5.2576,5.1588,5.1349,5.1229,5.1229,5.1229,5.1229,5.1229,5.1229,5.1229,5.1229,5.1229,5.1229,5.1229,0.0,0.0,4.9986,4.9494,4.885,4.8057,4.7519,4.7309,4.7309,4.7309,4.7309,4.7309,4.7309,4.7309,4.7189,4.6381,4.5753,4.5155,4.4377,4.3738,4.329,4.329,4.3771,4.432,4.4472,4.4408,4.4161,4.3563,4.2808,4.1883,4.0601,3.9809,3.9773,4.106,4.0764,4.038,4.0481,4.0324,3.9945,3.9251,3.8683,3.8243,3.8147,3.7523,3.6875,3.6321,3.6227,3.6068,3.5522,3.6662,3.7383,3.7383,3.8595,3.9228,3.9121,3.9228,3.9228,3.9121,3.9228,3.9228,3.9121,3.9228,3.9228,3.9121,3.9228,3.9315,5.1146,5.1619,5.1709,5.0629,4.8962,4.6672,4.308,0.0,0.0,0.0,3.142,3.0313,2.9594,3.1928,0.0,3.6956,4.0098,4.3658,0.0,0.0,0.0,0.0,0.0,0.0,0.0,0.0,0.0,0.0,0.0,0.0,5.3713,5.3384,5.2576,5.1259,5.1229,5.1229,5.1229,5.1229,5.1229,5.1229,5.1229,5.1229,5.1229,5.1229,5.1229,5.1229,0.0,0.0,5.0136,4.9523,4.891,4.8207,4.7549,4.7309,4.7352,4.7807,4.7709,4.7352,4.7807,4.7976,4.7916,4.7612,4.649,4.5237,4.5061,4.4197,4.3409,4.381,4.4167,4.4699,4.5483,4.5479,4.5152,4.4799,4.3667,4.2313,4.125,4.0721,4.0789,4.1852,4.1819,4.1724,4.2037,4.1817,4.1372,4.0666,4.0281,3.9961,3.9576,3.9521,3.883,3.7089,3.6936,3.6814,3.6538,3.7324,3.7879,3.7879,3.8761,3.9315,3.9315,3.9315,3.9315,3.9315,3.9315,3.9315,3.9315,3.9315,3.9315,3.9315,3.9315,3.9315,5.0676,5.1333,5.1709,5.0239,4.8399,4.5734,4.1338,3.8118,0.0,0.0,2.9472,2.8903,2.7974,3.0462,3.3095,0.0,3.7554,4.1235,4.5514,0.0,0.0,0.0,0.0,0.0,0.0,0.0,0.0,0.0,0.0,0.0,0.0,5.3264,5.2426,5.1259,5.1229,5.1229,5.1229,5.1229,5.1229,5.1229,5.1229,5.1229,5.1229,5.1229,5.1229,5.1229,0.0,0.0,0.0,4.9583,4.9,4.8416,4.7608,4.7409,4.7666,4.8324,4.8187,4.7709,4.8573,4.8708,4.8656,4.8994,4.7742,4.6032,4.6074,4.5125,4.4148,4.4617,4.4887,4.5264,4.6483,4.6509,4.6155,4.6092,4.4393,4.2744,4.2268,4.1817,4.1754,4.2648,4.271,4.2803,4.3476,4.3174,4.2641,4.2115,4.1857,4.1534,4.101,4.1222,4.0578,3.8485,3.7995,3.7689,3.7445,3.7937,3.8306,3.8306,3.8925,3.9315,3.9315,3.9315,3.9381,3.9547,3.9547,3.9547,3.9547,3.968,3.968,3.9547,3.968,3.9746,5.0511,5.0763,5.0455,4.8723,4.699,4.4676,4.0914,0.0,0.0,3.1001,2.8996,2.7944,2.8427,2.9295,3.115,3.4801,3.6686,3.9499,4.4646,0.0,0.0,0.0,0.0,0.0,0.0,0.0,0.0,0.0,0.0,0.0,0.0,5.2336,5.1977,5.1229,5.1229,5.1229,5.1229,5.1229,5.1229,5.1229,5.1229,5.1229,5.1229,5.1229,5.1229,5.1229,0.0,0.0,0.0,4.9793,4.9269,4.909,4.7788,4.7764,4.849,4.8573,4.8573,4.8615,4.9407,4.9237,4.8831,5.0377,4.9796,4.8348,4.7694,4.7032,4.637,4.5777,4.6092,4.6622,4.6761,4.7272,4.7605,4.6944,4.5178,4.375,4.4282,4.2879,4.1884,4.3235,4.3021,4.2803,4.3476,4.3568,4.3476,4.3439,4.2815,4.2415,4.2315,4.1782,4.1319,4.1069,3.996,3.8731,3.7506,3.7937,3.8306,3.8306,3.8925,3.9315,3.9315,3.9315,3.9613,4.031,4.031,4.031,4.031,4.0912,4.0878,4.031,4.0912,4.121,4.9698,5.0464,5.0524,4.9073,4.6917,4.4152,4.0351,0.0,3.3125,3.0492,2.8693,2.7675,2.7944,2.8547,2.9894,3.2647,3.3514,3.5696,4.1025,0.0,0.0,0.0,0.0,0.0,0.0,0.0,0.0,0.0,0.0,0.0,0.0,5.1977,5.1887,5.1229,5.1229,5.1229,5.1229,5.1229,5.1229,5.1229,5.1229,5.1229,5.1229,5.1229,5.1229,0.0,0.0,0.0,0.0,4.9823,4.9299,4.9224,4.8407,4.8282,4.8738,4.9718,4.9757,4.9407,5.0306,5.0384,5.019,5.0876,5.102,5.0639,4.8965,4.7686,4.6761,4.6461,4.6585,4.6931,4.7404,4.7737,4.7802,4.7073,4.5923,4.4907,4.4757,4.3697,4.2927,4.3509,4.3386,4.3295,4.3568,4.3598,4.3598,4.3598,4.3333,4.3168,4.3168,4.2903,4.2539,4.2109,4.0847,3.9963,3.9805,3.9645,3.9752,4.0146,4.0436,4.0547,4.0547,4.0547,4.0713,4.1011,4.1011,4.1011,4.1011,4.1276,4.1276,4.1011,4.1276,4.1409,4.8304,4.9465,4.9785,4.8547,4.6182,4.3264,0.0,3.5892,3.2527,3.0101,2.8543,2.7585,2.7585,2.8154,2.9175,3.0913,3.169,3.3723,3.8452,4.0038,0.0,0.0,0.0,0.0,0.0,0.0,0.0,0.0,0.0,0.0,0.0,0.0,5.1708,5.1229,5.1229,5.1229,5.1229,5.1229,5.1229,5.1229,5.1229,5.1229,5.1229,5.1229,5.1229,0.0,0.0,0.0,0.0,4.9823,4.9434,4.9595,4.8887,4.8872,4.9479,5.0685,5.0723,5.0306,5.1177,5.1322,5.114,5.1397,5.1908,5.207,5.0255,4.8771,4.7705,4.7292,4.7135,4.7303,4.7869,4.8001,4.7868,4.7338,4.6477,4.5649,4.5119,4.4291,4.3598,4.3598,4.3598,4.3598,4.3598,4.3598,4.3598,4.3598,4.3598,4.3598,4.3598,4.3598,4.34,4.287,4.174,4.111,4.1375,4.0978,4.0912,4.1375,4.1409,4.1409,4.1409,4.1409,4.148,4.174,4.1711,4.1711,4.1711,4.1943,4.191,4.1711,4.1943,4.2042,4.633,4.7317,4.7585,4.6486,4.4422,4.1823,3.8809,3.5207,3.1958,2.9983,2.8543,2.7585,2.7585,2.8154,2.9026,3.0313,3.2168,3.4622,3.7943,4.0127,0.0,0.0,0.0,0.0,0.0,0.0,0.0,0.0,0.0,0.0,0.0,0.0,5.1229,5.1229,5.1229,5.1229,5.1229,5.1229,5.1229,5.1229,5.1229,5.1229,5.1229,5.1229,0.0,0.0,0.0,0.0,0.0,4.9823,4.9761,5.0334,4.9097,4.9599,5.1065,5.1065,5.1065,5.121,5.2053,5.1835,5.1247,5.2122,5.2373,5.2277,5.1479,5.0783,4.9855,4.8431,4.8001,4.8001,4.8001,4.8001,4.8001,4.8001,4.6874,4.5781,4.5781,4.4655,4.3598,4.3598,4.3598,4.3598,4.3598,4.3598,4.3598,4.3598,4.3598,4.3598,4.3598,4.3598,4.3598,4.3598,4.2903,4.2175,4.1446,4.138,4.1409,4.1409,4.1409,4.1409,4.1409,4.1409,4.1744,4.2473,4.2473,4.2473,4.2473,4.3201,4.3201,4.2506,4.3234,4.3565,4.1947,4.3425,4.4223,4.2076,4.1185,3.9979,3.6788,3.4193,3.1958,2.9983,2.8543,2.7585,2.7585,2.7764,2.8906,3.2048,3.2706,3.4292,0.0,0.0,0.0,0.0,0.0,0.0,0.0,0.0,0.0,0.0,0.0,0.0,0.0,0.0,5.1229,5.1229,5.1229,5.1229,5.1229,5.1229,5.1229,5.1229,5.1229,5.1229,5.1229,0.0,0.0,0.0,0.0,0.0,0.0,5.0227,5.0026,4.9816,5.0184,5.0647,5.114,5.1798,5.198,5.2017,5.2302,5.223,5.2017,5.2302,5.2409,5.2142,5.0916,5.0386,4.9889,4.8431,4.8001,4.8001,4.8001,4.8001,4.8001,4.8001,4.7272,4.6411,4.5914,4.5019,4.4191,4.3698,4.3598,4.3598,4.3598,4.3598,4.3598,4.3598,4.3598,4.3598,4.3598,4.3598,4.3598,4.3598,4.34,4.3168,4.2903,4.244,4.2373,4.287,4.2903,4.2903,4.2903,4.2903,4.3002,4.3234,4.3234,4.3234,4.3234,4.3499,4.3466,4.3267,4.3499,4.3598,3.9013,4.0879,4.1829,3.9795,3.907,3.8133,3.5169,3.3063,3.127,2.9564,2.8364,2.7585,2.7585,2.7824,2.8873,3.1569,3.2287,3.3873,0.0,0.0,0.0,0.0,0.0,0.0,0.0,0.0,0.0,0.0,0.0,0.0,0.0,0.0,5.1229,5.1229,5.1229,5.1229,5.1229,5.1229,5.1229,5.1229,5.1229,5.1229,5.1229,0.0,0.0,0.0,0.0,0.0,0.0,5.0546,5.0483,5.0501,5.0942,5.1322,5.1655,5.2194,5.2409,5.2409,5.2409,5.2409,5.2409,5.2409,5.221,5.1744,5.0551,4.9823,4.9193,4.8266,4.8001,4.8001,4.8001,4.8001,4.8001,4.8001,4.7438,4.6775,4.6311,4.5417,4.4556,4.4125,4.3764,4.3598,4.3598,4.3598,4.3598,4.3598,4.3598,4.3598,4.3598,4.3598,4.3598,4.3598,4.3598,4.3598,4.3598,4.3168,4.3102,4.3565,4.3598,4.3598,4.3598,4.3598,4.3598,4.3598,4.3598,4.3598,4.3598,4.3598,4.3598,4.3598,4.3598,4.3598,0.0,3.909,3.9976,3.8832,3.7658,3.6149,3.3842,3.1809,0.0,2.8846,2.8094,2.7645,2.7794,2.8218,2.8936,2.9951,3.1569,0.0,0.0,0.0,0.0,0.0,0.0,0.0,0.0,0.0,0.0,0.0,0.0,0.0,0.0,0.0,0.0,5.1229,5.1229,5.1229,5.1229,5.1229,5.1229,5.1229,5.1229,5.1229,5.1229,0.0,0.0,0.0,0.0,0.0,0.0,5.0907,5.1203,5.1965,5.1399,5.1688,5.2409,5.2409,5.2409,5.2409,5.2409,5.2409,5.2409,5.2409,5.1912,5.1183,5.0419,4.9226,4.8067,4.8001,4.8001,4.8001,4.8001,4.8001,4.8001,4.8001,4.7471,4.6974,4.6908,4.5814,4.4821,4.4718,4.4158,4.3664,4.3598,4.3628,4.3628,4.3628,4.3628,4.3628,4.3628,4.3628,4.3628,4.3598,4.3628,4.3628,4.3628,4.3598,4.3598,4.3598,4.3598,4.3598,4.3598,4.3598,4.3598,4.3598,4.3598,4.3598,4.3598,4.3598,4.3598,4.3598,4.3598,4.3598,3.2877,0.0,3.5307,3.3563,3.336,3.3154,0.0,3.0462,2.9564,2.8757,2.8094,2.8064,2.9535,2.9146,2.9983,3.4173,3.4831,3.6058,0.0,0.0,0.0,0.0,0.0,0.0,0.0,0.0,0.0,0.0,0.0,0.0,0.0,0.0,0.0,5.1229,5.1229,5.1229,5.1229,5.1229,5.1229,5.1229,5.1229,5.1229,0.0,0.0,0.0,0.0,0.0,0.0,0.0,5.2068,5.2105,5.1399,5.19,5.223,5.2409,5.2409,5.2409,5.2409,5.2409,5.2409,5.2409,5.2409,5.1912,5.1183,5.0419,4.9558,4.873,4.8166,4.8001,4.8001,4.8001,4.8001,4.8001,4.8001,4.7868,4.7603,4.7007,4.6643,4.6046,4.492,4.4556,4.4257,4.3698,4.3717,4.3839,4.3839,4.3894,4.3952,4.3839,4.3839,4.3747,4.3628,4.375,4.3839,4.3839,4.3687,4.3598,4.3598,4.3598,4.3598,4.3598,4.3598,4.3598,4.3598,4.3598,4.3598,4.3598,4.3598,4.3598,4.3598,4.3598,4.3598,3.1036,3.2824,3.4403,3.2735,3.2646,3.2617,3.1241,3.0013,2.8936,2.8304,2.8124,2.8457,2.9834,3.0013,3.1091,3.4562,3.5579,0.0,0.0,0.0,0.0,0.0,0.0,0.0,0.0,0.0,0.0,0.0,0.0,0.0,0.0,0.0,0.0,0.0,5.1229,5.1229,5.1229,5.1229,5.1229,5.1229,5.1229,5.1433,5.1865,0.0,0.0,0.0,0.0,0.0,5.1808,5.2452,5.2297,5.1729,5.223,5.2409,5.2409,5.2409,5.2409,5.2409,5.2409,5.2409,5.2409,5.2409,5.1645,5.0717,5.032,4.9458,4.8531,4.81,4.8001,4.8001,4.8001,4.8001,4.8001,4.8001,4.8001,4.7901,4.7504,4.7139,4.6643,4.5847,4.5417,4.4953,4.4224,4.4245,4.4234,4.3964,4.401,4.4068,4.4015,4.4015,4.3923,4.3835,4.3923,4.4015,4.4015,4.3894,4.3835,4.3835,4.3776,4.375,4.375,4.3658,4.3628,4.375,4.375,4.375,4.375,4.3658,4.3598,4.3598,4.3598,4.3598,3.0642,3.3036,3.51,3.3455,3.3185,3.3006,3.166,3.0013,2.8577,2.8034,2.8427,2.9175,3.0191,3.124,3.2527,0.0,0.0,0.0,0.0,0.0,0.0,0.0,0.0,0.0,0.0,0.0,0.0,0.0,0.0,0.0,0.0,0.0,0.0,0.0,5.1229,5.1229,5.1229,5.1229,5.1229,5.1229,5.1339,5.1819,5.2606,5.2887,0.0,0.0,0.0,0.0,5.3006,5.2507,5.2347,5.2409,5.2409,5.2409,5.2409,5.2409,5.2409,5.2409,5.2409,5.2409,5.2409,5.2409,5.1545,5.0485,5.0286,4.9326,4.8299,4.8067,4.8001,4.8001,4.8001,4.8001,4.8001,4.8001,4.8001,4.8001,4.8001,4.7504,4.704,4.6908,4.6378,4.5746,4.5047,4.5006,4.4927,4.4356,4.4403,4.4457,4.4322,4.4294,4.426,4.4097,4.4126,4.4126,4.4126,4.4155,4.4184,4.4184,4.4044,4.3927,4.3927,4.3747,4.3747,4.3927,4.3927,4.3927,4.3898,4.3717,4.3628,4.3598,4.3598,4.3664,3.1182,3.3395,3.4771,3.1719,3.1809,3.2317,3.0971,3.0013,2.9442,2.9322,2.9774,3.0941,3.3335,3.3904,3.519,0.0,0.0,0.0,0.0,0.0,0.0,0.0,0.0,0.0,0.0,0.0,0.0,0.0,0.0,0.0,0.0,0.0,0.0,0.0,0.0,5.1229,5.1229,5.1229,5.1229,5.1229,5.2002,5.2471,5.2651,5.42,5.4218,0.0,0.0,0.0,5.2333,5.2955,5.2894,5.2409,5.2409,5.2409,5.2409,5.2409,5.2409,5.2409,5.2409,5.2409,5.2409,5.2409,5.2241,5.181,5.0585,5.0055,4.9624,4.8365,4.8001,4.8001,4.8001,4.8001,4.8001,4.8001,4.8001,4.8001,4.8001,4.7901,4.7636,4.7007,4.6808,4.6573,4.5998,4.6018,4.6073,4.6089,4.6237,4.6094,4.5303,4.5206,4.4946,4.4164,4.4212,4.4265,4.4265,4.4412,4.453,4.453,4.4212,4.4068,4.4068,4.4039,4.4039,4.4068,4.4068,4.401,4.3898,4.3868,4.378,4.3598,4.3598,4.3959,2.9953,3.1869,3.3514,3.1988,3.3395,3.4921,3.3963,3.2677,3.1689,3.1689,3.2198,3.3125,3.4741,0.0,3.8452,4.2402,0.0,0.0,0.0,0.0,0.0,0.0,0.0,0.0,0.0,0.0,0.0,0.0,0.0,0.0,0.0,0.0,0.0,0.0,0.0,0.0,5.274,5.22,5.1957,5.1957,5.2381,5.3108,5.4073,5.4911,5.4964,0.0,0.0,5.4171,5.2815,5.2858,5.2672,5.2409,5.2409,5.2409,5.2409,5.2409,5.2409,5.2409,5.2409,5.2409,5.2409,5.2409,5.2144,5.168,5.0982,5.0253,4.9458,4.8796,4.8365,4.8099,4.8033,4.8066,4.8099,4.8001,4.8001,4.8001,4.8001,4.8001,4.7934,4.7634,4.76,4.7431,4.6889,4.6907,4.6895,4.6552,4.6663,4.6621,4.619,4.6161,4.5997,4.5601,4.5592,4.5486,4.5081,4.5133,4.4964,4.4474,4.4298,4.4184,4.4097,4.4184,4.4212,4.4212,4.4212,4.4184,4.4126,4.3985,4.4097,4.446,4.4281,4.4649,2.9564,3.1001,3.2587,3.2886,3.4861,3.6746,3.6896,3.54,3.4143,3.4771,3.528,3.5848,0.0,3.8931,0.0,0.0,0.0,0.0,0.0,0.0,0.0,0.0,0.0,0.0,0.0,0.0,0.0,0.0,0.0,0.0,0.0,0.0,0.0,0.0,0.0,0.0,5.3976,5.3284,5.2962,5.2962,5.2962,5.3762,5.528,5.5352,5.5365,5.5284,5.4556,5.3831,5.3135,5.2605,5.2409,5.2409,5.2409,5.2409,5.2409,5.2409,5.2409,5.2409,5.2409,5.2409,5.2409,5.2409,5.2045,5.1547,5.1348,5.052,4.9592,4.926,4.8861,4.8525,4.8132,4.813,4.8227,4.8099,4.8066,4.8033,4.8001,4.8033,4.8099,4.8163,4.8227,4.8157,4.7778,4.7802,4.7692,4.7181,4.7203,4.7259,4.709,4.7056,4.6989,4.6819,4.6786,4.6583,4.6007,4.5974,4.5645,4.4923,4.4552,4.4327,4.4212,4.4327,4.4384,4.4384,4.4552,4.4591,4.4562,4.4503,4.4783,4.5436,4.5166,4.5504,3.1869,3.2377,3.2796,3.4023,3.4533,3.5342,3.7704,3.6746,3.6058,3.8482,3.8985,3.926,3.9918,4.2701,0.0,0.0,0.0,0.0,0.0,0.0,0.0,0.0,0.0,0.0,0.0,0.0,0.0,0.0,0.0,0.0,0.0,0.0,0.0,0.0,0.0,0.0,5.3976,5.3934,5.3891,5.3891,5.3891,5.4401,5.532,5.5489,5.5213,5.456,5.3798,5.3102,5.244,5.2442,5.2409,5.2409,5.2409,5.2409,5.2409,5.2409,5.2409,5.2409,5.2409,5.2409,5.2409,5.2409,5.234,5.221,5.1514,5.132,5.1024,4.966,4.9522,4.9516,4.846,4.8324,4.842,4.8227,4.8195,4.813,4.8033,4.8131,4.8195,4.8195,4.8356,4.8547,4.8671,4.8702,4.8731,4.8818,4.8849,4.8612,4.7906,4.7804,4.7564,4.6853,4.6786,4.6786,4.6718,4.6718,4.6684,4.6616,4.5331,4.4587,4.4559,4.4587,4.4587,4.4587,4.5235,4.5515,4.5332,4.5861,4.6173,4.6207,4.6088,4.6488,3.0163,3.1869,3.3844,3.4384,3.6028,3.7913,3.932,3.9709,4.0397,4.2611,4.2761,4.2521,4.2791,0.0,0.0,0.0,0.0,0.0,0.0,0.0,0.0,0.0,0.0,0.0,0.0,0.0,0.0,0.0,0.0,0.0,0.0,0.0,0.0,0.0,0.0,0.0,0.0,5.5108,5.4841,5.4977,5.4422,5.4624,5.5489,5.5104,5.449,5.3798,5.3533,5.3036,5.2409,5.2409,5.2409,5.2409,5.2409,5.2409,5.2409,5.2409,5.2409,5.2409,5.2409,5.2409,5.2409,5.2409,5.2409,5.2376,5.2078,5.1752,5.1257,5.0292,4.9957,4.9648,4.8652,4.8515,4.8612,4.826,4.8195,4.8195,4.813,4.8163,4.826,4.8549,4.8644,4.8738,4.8894,4.8925,4.8956,4.9018,4.9018,4.8917,4.8612,4.8578,4.8477,4.8206,4.7767,4.7496,4.7496,4.7056,4.6786,4.6786,4.6278,4.594,4.594,4.594,4.594,4.594,4.6244,4.635,4.6258,4.638,4.672,4.7315,4.7041,4.7378,3.0073,3.1809,3.3993,3.4683,3.6956,3.9529,4.1235,4.2192,4.3459,4.6022,4.5693,4.4945,4.4945,0.0,0.0,0.0,0.0,0.0,0.0,0.0,0.0,0.0,0.0,0.0,0.0,0.0,0.0,0.0,0.0,0.0,0.0,0.0,0.0,0.0,0.0,0.0,0.0,5.5372,5.5109,5.5251,5.4421,5.4459,5.5218,5.4494,5.3897,5.34,5.3169,5.2804,5.2409,5.2409,5.2409,5.2409,5.2409,5.2409,5.2409,5.2409,5.2409,5.2409,5.2409,5.2409,5.2409,5.2409,5.2409,5.2409,5.2445,5.2221,5.1794,5.1128,5.0793,5.0416,4.931,4.8938,4.8769,4.8452,4.8388,4.8356,4.8324,4.8324,4.8452,4.8738,4.8832,4.8894,4.8987,4.9018,4.9018,4.9018,4.9018,4.9018,4.9018,4.9018,4.9018,4.9018,4.8545,4.8274,4.8274,4.78,4.7496,4.7496,4.7496,4.7293,4.6819,4.6786,4.6786,4.6786,4.7022,4.7158,4.7158,4.7211,4.7582,4.8244,4.7964,4.8236,3.2497,3.2527,3.3036,3.5011,3.6985,3.9499,4.3449,4.3868,4.4526,4.852,4.7728,4.6309,4.6309,4.686,0.0,0.0,0.0,0.0,0.0,0.0,0.0,0.0,0.0,0.0,0.0,0.0,0.0,0.0,0.0,0.0,0.0,0.0,0.0,0.0,0.0,0.0,0.0,5.449,5.449,5.4456,5.3765,5.3798,5.4456,5.3732,5.34,5.3367,5.2672,5.2409,5.2409,5.2409,5.2409,5.2409,5.2409,5.2409,5.2409,5.2409,5.2409,5.2409,5.2409,5.2409,5.2409,5.2409,5.2409,5.2409,5.2553,5.2729,5.2804,5.2236,5.2201,5.1961,5.0473,4.956,4.8987,4.8832,4.8801,4.8738,4.8547,4.8675,4.8801,4.8801,4.8925,4.9018,4.9018,4.9018,4.9018,4.9018,4.9018,4.9018,4.9018,4.9018,4.9018,4.9018,4.9018,4.9018,4.9018,4.9018,4.9018,4.9018,4.9018,4.8342,4.6887,4.6819,4.6819,4.6819,4.7564,4.7906,4.7906,4.8526,4.8863,4.9018,4.8863,4.8863,3.0941,3.2826,3.5459,3.6058,3.9768,4.3808,4.5933,4.6292,4.686,4.9434,4.9134,4.8267,4.7788,0.0,0.0,0.0,0.0,0.0,0.0,0.0,0.0,0.0,0.0,0.0,0.0,0.0,0.0,0.0,0.0,0.0,0.0,0.0,0.0,0.0,0.0,0.0,0.0,0.0,5.4262,5.3695,5.3533,5.3533,5.3732,5.3003,5.2705,5.2672,5.2473,5.2409,5.2409,5.2409,5.2409,5.2409,5.2409,5.2409,5.2409,5.2409,5.2409,5.2409,5.2409,5.2409,5.2409,5.2516,5.248,5.2445,5.2729,5.2834,5.2804,5.2236,5.2201,5.2097,5.1116,5.071,5.024,4.9102,4.8801,4.8769,4.8738,4.8738,4.8832,4.8925,4.8987,4.9018,4.9018,4.9018,4.9018,4.9018,4.9018,4.9018,4.9018,4.9018,4.9018,4.9018,4.9018,4.9018,4.9018,4.9018,4.9018,4.9018,4.9018,4.8815,4.8376,4.8342,4.8342,4.8342,4.8578,4.868,4.868,4.8855,4.8956,4.9018,4.8956,4.8956,3.2766,3.4921,3.7614,3.92,4.2462,4.5843,4.7997,4.8686,4.9194,5.0345,4.9912,4.9269,4.9075,0.0,0.0,0.0,0.0,0.0,0.0,0.0,0.0,0.0,0.0,0.0,0.0,0.0,0.0,0.0,0.0,0.0,0.0,0.0,0.0,0.0,0.0,0.0,0.0,0.0,0.0,5.3003,5.3003,5.3003,5.3003,5.2572,5.2409,5.2409,5.2409,5.2409,5.2409,5.2409,5.2409,5.2409,5.2409,5.2409,5.2409,5.2409,5.2445,5.248,5.248,5.2551,5.2622,5.2694,5.2659,5.2657,5.2938,5.3007,5.2974,5.2741,5.2707,5.2604,5.186,5.1657,5.132,5.0042,4.9535,4.9333,4.9333,4.9097,4.8894,4.8987,4.9018,4.9018,4.9018,4.9018,4.9018,4.9018,4.9018,4.9018,4.9018,4.9018,4.9018,4.9018,4.9018,4.9018,4.9018,4.9018,4.9018,4.9018,4.9018,4.9018,4.9018,4.9018,4.9018,4.9018,4.9018,4.9018,4.9018,4.9018,4.9018,4.9018,4.9018,4.9018,3.6178,3.7704,3.9409,4.3269,4.4975,4.6561,4.9598,5.0734,5.1229,5.1229,0.0,4.9613,0.0,0.0,0.0,0.0,0.0,0.0,0.0,0.0,0.0,0.0,0.0,0.0,0.0,0.0,0.0,0.0,0.0,0.0,0.0,0.0,0.0,0.0,0.0,0.0,0.0,0.0,0.0,0.0,5.2409,5.2409,5.2409,5.2409,5.2409,5.2409,5.2409,5.2409,5.2409,5.2409,5.2409,5.2409,5.2409,5.2409,5.2409,5.2409,5.248,5.2589,5.2589,5.2729,5.2903,5.2903,5.2903,5.2938,5.3144,5.3213,5.3247,5.3416,5.3518,5.3348,5.2604,5.2401,5.2232,5.1589,5.0777,5.0168,5.0101,4.956,4.9086,4.9018,4.9018,4.9018,4.9018,4.9018,4.9018,4.9018,4.9018,4.9018,4.9018,4.9018,4.9018,4.9018,4.9018,4.9018,4.9018,4.9018,4.9018,4.9018,4.9018,4.9018,4.9018,4.9018,4.9018,4.9018,4.9018,4.9018,4.9018,4.9018,4.9018,4.9018,4.9018,4.9018,3.3664,3.6327,3.9888,4.2781,4.6339,4.9448,5.0674,5.1109,5.1229,5.1229,5.099,0.0,0.0,0.0,0.0,0.0,0.0,0.0,0.0,0.0,0.0,0.0,0.0,0.0,0.0,0.0,0.0,0.0,0.0,0.0,0.0,0.0,0.0,0.0,0.0,0.0,5.2409,5.2409,5.2409,0.0,5.2409,5.2409,5.2409,5.2409,5.2409,5.2409,5.2409,5.2409,5.2409,5.2409,5.2409,5.2409,5.2409,5.2409,5.2409,5.2409,5.248,5.2589,5.2589,5.2729,5.2938,5.3076,5.3007,5.2972,5.3314,5.3348,5.3247,5.3416,5.3518,5.345,5.3281,5.3247,5.3213,5.3044,5.1961,5.0811,5.0236,4.9965,4.9695,4.912,4.9018,4.9018,4.9018,4.9018,4.9018,4.9018,4.9018,4.9018,4.9018,4.9018,4.9018,4.9018,4.9018,4.9018,4.9018,4.9018,4.9018,4.9018,4.9018,4.9018,4.9018,4.9018,4.9018,4.9018,4.9018,4.9018,4.9018,4.9018,4.9018,4.9018,4.9018,4.9018,3.4741,3.7554,4.0905,4.5125,4.8446,5.0764,5.1139,5.1229,5.1229,5.1229,0.0,0.0,0.0,0.0,0.0,0.0,0.0,0.0,0.0,0.0,0.0,0.0,0.0,0.0,0.0,0.0,0.0,0.0,0.0,0.0,0.0,0.0,0.0,0.0,0.0,0.0,5.2409,5.2409,5.2409,5.2409,5.2409,5.2409,5.2409,5.2409,5.2409,5.2409,5.2409,5.2409,5.2409,5.2409,5.2409,5.2409,5.2409,5.2409,5.2409,5.248,5.2589,5.2764,5.2834,5.3007,5.3212,5.3314,5.328,5.3246,5.345,5.3416,5.3382,5.345,5.3518,5.3518,5.3518,5.3518,5.3518,5.3518,5.2604,5.1623,5.1251,5.0879,5.0507,5.0135,4.9763,4.9526,4.9526,4.9221,4.9018,4.9018,4.9018,4.9018,4.9018,4.9018,4.9018,4.9018,4.9018,4.9018,4.9018,4.9018,4.9018,4.9018,4.9018,4.9018,4.9018,4.9018,4.9018,4.9018,4.9018,4.9018,4.9018,4.9018,4.9018,4.9018,4.9018,4.9018,3.5549,3.8691,4.1953,4.7712,5.0092,5.1079,5.1199,5.1229,5.1229,0.0,0.0,0.0,0.0,0.0,0.0,0.0,0.0,0.0,0.0,0.0,0.0,0.0,0.0,0.0,0.0,0.0,0.0,0.0,0.0,0.0,0.0,0.0,0.0,0.0,0.0,5.2409,5.2409,5.2409,5.2409,5.2409,5.2409,5.2409,5.2409,5.2409,5.2409,5.2409,5.2409,5.2409,5.2409,5.2409,5.2409,5.2409,5.2409,5.2409,5.2445,5.2553,5.2729,5.2972,5.3144,5.3348,5.3518,5.3518,5.3518,5.3518,5.3518,5.3518,5.3518,5.3518,5.3518,5.3518,5.3518,5.3518,5.3518,5.3518,5.2976,5.2469,5.2334,5.1826,5.1352,5.1219,5.071,5.027,5.027,4.9695,4.9187,4.9187,4.9086,4.9018,4.9018,4.9018,4.9018,4.9018,4.9018,4.9018,4.9018,4.9018,4.9018,4.9018,4.9018,4.9018,4.9018,4.9018,4.9018,4.9018,4.9018,4.9018,4.9018,4.9018,4.9018,4.9018,4.9018,4.9018,3.058,3.5908,4.2402,4.7219,4.9404,5.0465,0.0,0.0,5.1229,0.0,0.0,0.0,0.0,0.0,0.0,0.0,0.0,0.0,0.0,0.0,0.0,0.0,0.0,0.0,0.0,0.0,0.0,0.0,0.0,0.0,0.0,0.0,5.2409,5.2409,5.2409,0.0,5.2409,5.2409,5.2409,5.2409,5.2409,5.2409,5.2409,5.2409,5.2409,5.2409,5.2409,5.2409,5.2409,5.2409,5.2409,5.2409,5.2409,5.248,5.2553,5.2589,5.2834,5.3144,5.3179,5.3348,5.3518,5.3518,5.3518,5.3518,5.3518,5.3518,5.3518,5.3518,5.3518,5.3518,5.3518,5.3518,5.3518,5.3518,5.3416,5.3145,5.2469,5.2232,5.1961,5.132,5.115,5.1082,5.1082,5.0439,4.9932,4.9932,4.939,4.9018,4.9018,4.9018,4.9018,4.9018,4.9018,4.9018,4.9018,4.9018,4.9018,4.9018,4.9018,4.9018,4.9018,4.9018,4.9018,4.9018,4.9018,4.9018,4.9018,4.9018,4.9018,4.9018,4.9018,4.9018,3.2347,3.7379,4.2402,4.6681,4.8446,4.9404,5.0375,0.0,0.0,0.0,0.0,0.0,0.0,0.0,0.0,0.0,0.0,0.0,0.0,0.0,0.0,0.0,0.0,0.0,0.0,0.0,0.0,0.0,0.0,0.0,0.0,5.2194,5.2409,5.2409,5.2409,0.0,5.2409,5.2409,5.2409,5.2409,5.2409,5.2409,5.2409,5.2409,5.2409,5.2409,5.2409,5.2409,5.2409,5.2409,5.2409,5.2409,5.248,5.2553,5.2624,5.2834,5.3041,5.3213,5.3348,5.3416,5.3518,5.3518,5.3518,5.3518,5.3518,5.3518,5.3518,5.3518,5.3518,5.3518,5.3518,5.3518,5.3518,5.3518,5.3518,5.3416,5.3044,5.2976,5.2739,5.1961,5.1826,5.1691,5.1252,5.0947,5.071,5.071,5.0439,5.0236,5.0236,5.0236,5.0236,5.0236,4.9864,4.9627,4.9627,4.9255,4.9187,4.9593,4.9627,4.9627,4.9627,4.9627,4.9424,4.9018,4.9018,4.9018,4.9018,4.9018,4.9018,4.9018,4.9018,4.9018,3.3155,3.7015,4.0187,4.4676,4.6681,4.7908,0.0,0.0,0.0,0.0,0.0,0.0,0.0,0.0,0.0,0.0,0.0,0.0,0.0,0.0,0.0,0.0,0.0,0.0,0.0,0.0,0.0,0.0,0.0,0.0,5.2373,5.2409,5.2409,5.2409,5.2409,5.2409,5.2409,5.2409,5.2409,5.2409,5.2409,5.2409,5.2409,5.2409,5.2409,5.2409,5.2409,5.2409,5.2409,5.2409,5.2409,5.248,5.2553,5.2659,5.2799,5.3076,5.3213,5.3314,5.345,5.3518,5.3518,5.3518,5.3518,5.3518,5.3518,5.3518,5.3518,5.3518,5.3518,5.3518,5.3518,5.3518,5.3518,5.3518,5.3518,5.3518,5.3518,5.3518,5.3315,5.2739,5.2604,5.2435,5.1894,5.1623,5.1488,5.1488,5.132,5.1185,5.1185,5.1185,5.1185,5.1185,5.071,5.0371,5.0371,4.9864,4.9796,5.0338,5.0371,5.0371,5.0371,5.0371,5.0135,4.9593,4.939,4.9187,4.9018,4.9018,4.9018,4.9018,4.9187,4.9289,2.9535,3.1869,3.4382,4.0217,4.3599,4.5963,0.0,0.0,0.0,0.0,0.0,0.0,0.0,0.0,0.0,0.0,0.0,0.0,0.0,0.0,0.0,0.0,0.0,0.0,0.0,0.0,0.0,0.0,0.0,0.0,5.2409,5.2409,5.2409,5.2409,5.2409,5.2409,5.2409,5.2409,5.2409,5.2409,5.2409,5.2409,5.2409,5.2409,5.2409,5.2409,5.2409,5.2409,5.2409,5.2409,5.248,5.2589,5.2589,5.2834,5.3179,5.3179,5.3314,5.3518,5.3518,5.3518,5.3518,5.3518,5.3518,5.3518,5.3518,5.3518,5.3518,5.3518,5.3518,5.3518,5.3518,5.3518,5.3518,5.3518,5.3518,5.3518,5.3518,5.3518,5.3484,5.345,5.345,5.345,5.3382,5.2739,5.2232,5.2232,5.1657,5.1185,5.1185,5.1185,5.1185,5.1185,5.1183,5.115,5.115,5.1116,5.1083,5.115,5.115,5.115,5.115,5.115,5.115,5.1116,5.0405,4.9695,4.9018,4.9018,4.9018,4.9018,4.9729,5.0033,2.8607,3.0881,3.3544,3.7764,4.0516,4.2791,0.0,0.0,0.0,0.0,0.0,0.0,0.0,0.0,0.0,0.0,0.0,0.0,0.0,0.0,0.0,0.0,0.0,0.0,0.0,0.0,0.0,0.0,0.0,0.0,5.2409,5.2409,5.2409,5.2409,5.2409,5.2409,5.2409,5.2409,5.2409,5.2409,5.2409,5.2409,5.2409,5.2409,5.2409,5.2409,5.2409,5.2409,5.2409,5.2409,5.248,5.2589,5.2729,5.2972,5.3213,5.3348,5.3416,5.3518,5.3518,5.3518,5.3518,5.3518,5.3518,5.3518,5.3518,5.3518,5.3518,5.3518,5.3518,5.3518,5.3518,5.3518,5.3518,5.3518,5.3518,5.3518,5.3518,5.3518,5.3518,5.3518,5.3518,5.3518,5.3518,5.3281,5.3078,5.3078,5.2841,5.2672,5.2672,5.2672,5.2672,5.2672,5.2232,5.1928,5.1928,5.1488,5.142,5.1894,5.1928,5.1928,5.1928,5.1928,5.1691,5.1185,5.0947,5.0439,4.9695,4.9221,4.9255,4.9695,4.9965,5.0338,2.7021,2.9026,3.1749,0.0,0.0,3.9439,0.0,0.0,0.0,0.0,0.0,0.0,0.0,0.0,0.0,0.0,0.0,0.0,0.0,0.0,0.0,0.0,0.0,0.0,0.0,0.0,0.0,0.0,0.0,0.0,5.2409,5.2409,5.2409,5.2409,5.2409,5.2409,5.2409,5.2409,5.2409,5.2409,5.2409,5.2409,5.2409,5.2409,5.2409,5.2409,5.2409,5.2409,5.2409,5.2445,5.2587,5.2729,5.2903,5.311,5.3314,5.345,5.3518,5.3518,5.3518,5.3518,5.3518,5.3518,5.3518,5.3518,5.3518,5.3518,5.3518,5.3518,5.3518,5.3518,5.3518,5.3518,5.3518,5.3518,5.3518,5.3518,5.3518,5.3518,5.3518,5.3518,5.3518,5.3518,5.3518,5.3518,5.3518,5.3518,5.3518,5.3518,5.3518,5.3518,5.3518,5.3518,5.301,5.2706,5.2706,5.2266,5.2198,5.2672,5.2706,5.2706,5.2706,5.2706,5.2469,5.1995,5.1725,5.1352,5.0845,5.0101,4.9999,5.0473,5.071,5.1251,0.0,0.0,0.0,0.0,0.0,0.0,0.0,0.0,0.0,0.0,0.0,0.0,0.0,0.0,0.0,0.0,0.0,0.0,0.0,0.0,0.0,0.0,0.0,0.0,0.0,0.0,0.0,0.0,0.0,5.2373,5.2409,5.2409,5.2409,5.2409,5.2409,5.2409,5.2409,5.2409,5.2409,5.2409,5.2409,5.2409,5.2409,5.2409,5.2409,5.2409,5.2409,5.2409,5.2409,5.2551,5.2729,5.2938,5.311,5.3314,5.3518,5.3518,5.3518,5.3518,5.3518,5.3518,5.3518,5.3518,5.3518,5.3518,5.3518,5.3518,5.3518,5.3518,5.3518,5.3518,5.3518,5.3518,5.3518,5.3518,5.3518,5.3518,5.3518,5.3518,5.3518,5.3518,5.3518,5.3518,5.3518,5.3518,5.3518,5.3518,5.3518,5.3518,5.3518,5.3518,5.3518,5.3518,5.3518,5.3518,5.3518,5.3518,5.3518,5.3518,5.3518,5.3518,5.3518,5.3518,5.3518,5.3518,5.2739,5.2334,5.2334,5.1589,5.1185,5.1219,5.1995,5.2739,2.5711,0.0,0.0,0.0,0.0,0.0,0.0,0.0,0.0,0.0,0.0,0.0,0.0,0.0,0.0,0.0,0.0,0.0,0.0,0.0,0.0,0.0,0.0,0.0,0.0,0.0,0.0,0.0,0.0,5.1729,5.2373,5.2409,5.2409,5.2409,5.2409,5.2409,5.2409,5.2409,5.2409,5.2409,5.2409,5.2409,5.2409,5.2409,5.2409,5.2409,5.2516,5.2518,5.2553,5.2589,5.2799,5.311,5.3179,5.3314,5.3518,5.3518,5.3518,5.3518,5.3518,5.3518,5.3518,5.3518,5.3518,5.3518,5.3518,5.3518,5.3518,5.3518,5.3518,5.3518,5.3518,5.3518,5.3518,5.3518,5.3518,5.3518,5.3518,5.3518,5.3518,5.3518,5.3518,5.3518,5.3518,5.3518,5.3518,5.3518,5.3518,5.3518,5.3518,5.3518,5.3518,5.3518,5.3518,5.3518,5.3518,5.3518,5.3518,5.3518,5.3518,5.3518,5.3518,5.3518,5.3518,5.3518,5.3281,5.3179,5.3179,5.186,5.1488,5.2029,5.2807,5.3281,2.726,2.7979,2.9235,0.0,0.0,0.0,0.0,0.0,0.0,0.0,0.0,0.0,0.0,0.0,0.0,0.0,0.0,0.0,0.0,0.0,0.0,0.0,0.0,0.0,0.0,0.0,0.0,0.0,5.0951,5.1871,5.2373,5.2409,5.2409,5.2409,5.2409,5.2409,5.2409,5.2409,5.2409,5.2409,5.2409,5.2409,5.2409,5.2409,5.2409,5.2409,5.2518,5.2659,5.2729,5.2799,5.2972,5.3213,5.3314,5.3382,5.3518,5.3518,5.3518,5.3518,5.3518,5.3518,5.3518,5.3518,5.3518,5.3518,5.3518,5.3518,5.3518,5.3518,5.3518,5.3518,5.3518,5.3518,5.3518,5.3518,5.3518,5.3518,5.3518,5.3518,5.3518,5.3518,5.3518,5.3518,5.3518,5.3518,5.3518,5.3518,5.3518,5.3518,5.3518,5.3518,5.3518,5.3518,5.3518,5.3518,5.3518,5.3518,5.3518,5.3518,5.3518,5.3518,5.3518,5.3518,5.3518,5.3518,5.3518,5.3518,5.3518,5.2604,5.2401,5.2807,5.3281,5.3518,2.9265,2.9146,2.9714,0.0,0.0,0.0,3.5317,3.5259,0.0,0.0,0.0,0.0,0.0,0.0,0.0,0.0,0.0,0.0,0.0,0.0,0.0,0.0,0.0,0.0,0.0,0.0,0.0,4.9647,5.1252,5.2266,5.2266,5.2338,5.2409,5.2409,5.2409,5.2409,5.2409,5.2409,5.2409,5.2409,5.2409,5.2409,5.2409,5.2409,5.2409,5.2409,5.2587,5.2729,5.2903,5.3144,5.3213,5.3247,5.3416,5.3518,5.3518,5.3518,5.3518,5.3518,5.3518,5.3518,5.3518,5.3518,5.3518,5.3518,5.3518,5.3518,5.3518,5.3518,5.3518,5.3518,5.3518,5.3518,5.3518,5.3518,5.3518,5.3518,5.3518,5.3518,5.3518,5.3518,5.3518,5.3518,5.3518,5.3518,5.3518,5.3518,5.3518,5.3518,5.3518,5.3518,5.3518,5.3518,5.3518,5.3518,5.3518,5.3518,5.3518,5.3518,5.3518,5.3518,5.3518,5.3518,5.3518,5.3518,5.3518,5.3518,5.3518,5.3518,5.3518,5.3518,5.3518,5.3518,3.2228,3.2527,3.2856,3.07,0.0,0.0,0.0,3.1137,0.0,0.0,0.0,0.0,0.0,0.0,0.0,0.0,0.0,0.0,0.0,0.0,0.0,0.0,0.0,0.0,0.0,0.0,4.8103,4.879,5.0384,5.1359,5.1359,5.2017,5.2409,5.2409,5.2409,5.2409,5.2409,5.2409,5.2409,5.2409,5.2409,5.2409,5.2409,5.2409,5.2409,5.2409,5.2694,5.2868,5.2938,5.328,5.3416,5.345,5.345,5.3518,5.3518,5.3518,5.3518,5.3518,5.3518,5.3518,5.3518,5.3518,5.3518,5.3518,5.3518,5.3518,5.3518,5.3518,5.3518,5.3518,5.3518,5.3518,5.3518,5.3518,5.3518,5.3518,5.3518,5.3518,5.3518,5.3518,5.3518,5.3518,5.3518,5.3518,5.3518,5.3518,5.3518,5.3518,5.3518,5.3518,5.3518,5.3518,5.3518,5.3518,5.3518,5.3518,5.3518,5.3518,5.3518,5.3518,5.3518,5.3518,5.3518,5.3518,5.3518,5.3518,5.3518,5.3518,5.3518,5.3518,5.3518,5.3518,3.4023,3.3724,3.3695,3.2377,0.0,0.0,0.0,0.0,0.0,0.0,0.0,0.0,0.0,0.0,0.0,0.0,0.0,0.0,0.0,0.0,0.0,0.0,0.0,0.0,0.0,0.0,4.9142,5.039,5.1252,5.1762,5.1762,5.2158,5.2409,5.2409,5.2409,5.2409,5.2409,5.2409,5.2409,5.2409,5.2409,5.2409,5.2409,5.2409,5.2445,5.2483,5.2764,5.2938,5.3076,5.3382,5.3518,5.3518,5.3518,5.3518,5.3518,5.3518,5.3518,5.3518,5.3518,5.3518,5.3518,5.3518,5.3518,5.3518,5.3518,5.3518,5.3518,5.3518,5.3518,5.3518,5.3518,5.3518,5.3518,5.3518,5.3518,5.3518,5.3518,5.3518,5.3518,5.3518,5.3518,5.3518,5.3518,5.3518,5.3518,5.3518,5.3518,5.3518,5.3518,5.3518,5.3518,5.3518,5.3518,5.3518,5.3518,5.3518,5.3518,5.3518,5.3518,5.3518,5.3518,5.3518,5.3518,5.3518,5.3518,5.3518,5.3518,5.3518,5.3518,5.3518,5.3518,5.3518,0.0,0.0,0.0,0.0,0.0,3.3305,0.0,0.0,0.0,3.5865,0.0,0.0,0.0,0.0,0.0,0.0,0.0,0.0,0.0,0.0,0.0,0.0,0.0,0.0,0.0,0.0,4.9613,5.1346,5.1361,5.1498,5.1927,5.2236,5.2409,5.2409,5.2409,5.2409,5.2409,5.2409,5.2409,5.2409,5.2409,5.2409,5.2409,5.2409,5.2516,5.2589,5.2834,5.3041,5.3213,5.3416,5.3518,5.3518,5.3518,5.3518,5.3518,5.3518,5.3518,5.3518,5.3518,5.3518,5.3518,5.3518,5.3518,5.3518,5.3518,5.3518,5.3518,5.3518,5.3518,5.3518,5.3518,5.3518,5.3518,5.3518,5.3619,5.3721,5.3721,5.3822,5.3923,5.3923,5.3923,5.3856,5.3551,5.3518,5.3518,5.3518,5.3518,5.3518,5.3518,5.3518,5.3518,5.3518,5.3518,5.3518,5.3518,5.3518,5.3518,5.3518,5.3518,5.3518,5.3518,5.3518,5.3518,5.3518,5.3518,5.3518,5.3518,5.3518,5.3518,5.3518,5.3518,5.3518,0.0,0.0,0.0,0.0,3.7461,0.0,0.0,0.0,3.3996,3.4145,0.0,0.0,0.0,0.0,0.0,0.0,0.0,0.0,0.0,0.0,0.0,0.0,0.0,0.0,0.0,0.0,0.0,4.8003,4.7673,4.8194,5.0176,5.1619,5.2409,5.2409,5.2409,5.2409,5.2409,5.2409,5.2409,5.2409,5.2409,5.2409,5.2409,5.2518,5.2589,5.2624,5.3007,5.3179,5.3213,5.3416,5.3518,5.3518,5.3518,5.3518,5.3518,5.3518,5.3518,5.3518,5.3518,5.3518,5.3518,5.3518,5.3518,5.3518,5.3518,5.3518,5.3518,5.3518,5.3518,5.3518,5.3518,5.3518,5.3518,5.3518,5.3991,5.4465,5.4465,5.5006,5.548,5.548,5.548,5.504,5.3721,5.3518,5.3518,5.3518,5.3518,5.3518,5.3518,5.3518,5.3518,5.3518,5.3518,5.3518,5.3518,5.3518,5.3518,5.3518,5.3518,5.3518,5.3518,5.3518,5.3518,5.3518,5.3518,5.3518,5.3518,5.3518,5.3518,5.3518,5.3518,5.3518,0.0,0.0,0.0,0.0,0.0,0.0,0.0,0.0,3.3014,0.0,0.0,0.0,0.0,0.0,0.0,0.0,0.0,0.0,0.0,0.0,0.0,0.0,0.0,0.0,0.0,0.0,0.0,0.0,0.0,4.7603,4.9407,5.0907,5.1779,5.1779,5.221,5.2409,5.2409,5.2409,5.2409,5.2409,5.2409,5.2409,5.2409,5.2518,5.2659,5.2799,5.3076,5.328,5.3382,5.3484,5.3518,5.3518,5.3518,5.3518,5.3518,5.3518,5.3518,5.3518,5.3518,5.3518,5.3518,5.3518,5.3518,5.3518,5.3518,5.3518,5.3518,5.3518,5.3518,5.3585,5.4025,5.4126,5.4262,5.4668,5.5006,5.5243,5.5243,5.548,5.5681,5.5681,5.5681,5.5513,5.4905,5.4431,5.4296,5.4735,5.4059,5.3653,5.4093,5.3754,5.3518,5.3518,5.3518,5.3518,5.3518,5.3518,5.3518,5.3518,5.3518,5.3518,5.3518,5.3518,5.3518,5.3518,5.3518,5.3518,5.3518,5.3518,5.3518,5.3518,5.3518,5.3518,4.1265,0.0,0.0,0.0,0.0,0.0,0.0,0.0,0.0,0.0,0.0,0.0,0.0,0.0,0.0,0.0,0.0,0.0,0.0,0.0,0.0,0.0,0.0,0.0,0.0,0.0,0.0,0.0,0.0,0.0,4.8696,5.0187,5.1082,5.1315,5.2045,5.2409,5.2409,5.2409,5.2409,5.2409,5.2409,5.2409,5.248,5.2589,5.2799,5.2972,5.3179,5.3382,5.3518,5.3518,5.3518,5.3518,5.3518,5.3518,5.3518,5.3518,5.3518,5.3518,5.3518,5.3518,5.3518,5.3518,5.3518,5.3518,5.3518,5.3518,5.3551,5.3754,5.3788,5.3957,5.4702,5.4905,5.504,5.5581,5.5852,5.6021,5.6021,5.6156,5.6325,5.6325,5.6325,5.6325,5.6325,5.5513,5.5074,5.5649,5.4803,5.4228,5.4566,5.4126,5.3721,5.3518,5.3518,5.3518,5.3518,5.3518,5.3518,5.3518,5.3518,5.3518,5.3518,5.3518,5.3518,5.3518,5.3518,5.3518,5.3518,5.3518,5.3518,5.3518,5.3518,5.3518,0.0,0.0,0.0,0.0,0.0,0.0,0.0,0.0,3.6091,0.0,0.0,0.0,0.0,0.0,0.0,3.4021,0.0,0.0,0.0,0.0,0.0,0.0,0.0,0.0,0.0,0.0,0.0,0.0,0.0,0.0,4.7802,4.9425,5.0551,5.1282,5.2045,5.2409,5.2409,5.2409,5.2409,5.2409,5.2409,5.248,5.2589,5.2799,5.3007,5.3179,5.3382,5.3518,5.3518,5.3518,5.3518,5.3518,5.3518,5.3518,5.3518,5.3518,5.3518,5.3518,5.3518,5.3518,5.3518,5.3518,5.3518,5.3518,5.3518,5.3518,5.3653,5.4363,5.4566,5.4735,5.548,5.5647,5.5683,5.5681,5.6258,5.6765,5.6765,5.734,5.7814,5.7814,5.7814,5.7814,5.7814,5.663,5.5683,5.5681,5.5647,5.5378,5.4668,5.4566,5.4296,5.3585,5.3518,5.3518,5.3518,5.3518,5.3518,5.3518,5.3518,5.3518,5.3518,5.3518,5.3518,5.3518,5.3518,5.3518,5.3518,5.3518,5.3518,5.3518,5.3518,5.3518,0.0,0.0,4.6202,4.1841,0.0,0.0,0.0,0.0,0.0,0.0,0.0,0.0,0.0,0.0,3.5678,3.4684,3.4319,0.0,0.0,0.0,0.0,0.0,0.0,0.0,0.0,0.0,0.0,0.0,0.0,0.0,0.0,4.7934,4.9326,5.0518,5.128,5.1947,5.2518,5.2445,5.2445,5.2551,5.2551,5.2587,5.2589,5.2938,5.3144,5.3213,5.3416,5.3518,5.3518,5.3518,5.3518,5.3518,5.3518,5.3518,5.3518,5.3518,5.3518,5.3518,5.3518,5.3518,5.3518,5.3518,5.3518,5.3518,5.3518,5.3856,5.4262,5.4532,5.4938,5.5513,5.6258,5.6427,5.6562,5.7036,5.734,5.7509,5.7509,5.7712,5.7881,5.7881,5.7881,5.7881,5.7881,5.7476,5.7171,5.7171,5.6325,5.5818,5.6021,5.5649,5.504,5.4296,5.4228,5.4025,5.3551,5.3518,5.3518,5.3518,5.3518,5.3518,5.3518,5.3518,5.3518,5.3518,5.3518,5.3518,5.3518,5.3518,5.3518,5.3518,5.3518,5.3518,4.7189,4.7638,0.0,0.0,4.2432,0.0,0.0,0.0,0.0,0.0,0.0,0.0,0.0,0.0,0.0,3.6141,3.4783,0.0,0.0,0.0,0.0,0.0,0.0,0.0,0.0,0.0,3.7681,4.0216,0.0,0.0,0.0,0.0,4.8299,4.9756,5.075,5.1682,5.2518,5.2516,5.2483,5.2589,5.2659,5.2729,5.2834,5.3076,5.3213,5.3314,5.3416,5.3518,5.3518,5.3518,5.3518,5.3518,5.3518,5.3518,5.3518,5.3518,5.3518,5.3518,5.3518,5.3518,5.3518,5.3518,5.3518,5.3551,5.3822,5.4228,5.4702,5.5243,5.5716,5.6258,5.7002,5.7171,5.7306,5.778,5.7881,5.7881,5.7881,5.7881,5.7881,5.7881,5.7881,5.7881,5.7881,5.7881,5.7881,5.7881,5.7103,5.6562,5.6765,5.6393,5.5818,5.5074,5.5006,5.4702,5.3957,5.389,5.3788,5.3518,5.3518,5.3518,5.3518,5.3518,5.3518,5.3518,5.3518,5.3518,5.3518,5.3518,5.3518,5.3518,5.3518,5.3518]}]]